<?xml version="1.0" encoding="UTF-8" standalone="no" ?>
<gpx xmlns="http://www.topografix.com/GPX/1/1" xmlns:xsi="http://www.w3.org/2001/XMLSchema-instance" xsi:schemaLocation="http://www.topografix.com/GPX/1/1 http://www.topografix.com/GPX/1/1/gpx.xsd" version="1.1" creator="VisuGPX - https://www.visugpx.com">
  <metadata>
    <name>Sortie Caussens 2</name>
  </metadata>
  <trk>
    <name><![CDATA[Sortie à vélo matinale]]></name>
    <extensions>
      <line xmlns="http://www.topografix.com/GPX/gpx_style/0/2">
        <color>888800</color>
        <width>4</width>
      </line>
    </extensions>
    <trkseg>
      <trkpt lat="44.00457" lon="0.50601">
        <ele>127.4</ele>
        <time>2011-04-10T08:05:54Z</time>
      </trkpt>
      <trkpt lat="44.00443" lon="0.50599">
        <ele>128.5</ele>
        <time>2011-04-10T08:05:49Z</time>
      </trkpt>
      <trkpt lat="44.00383" lon="0.5059">
        <ele>130.9</ele>
        <time>2011-04-10T08:05:35Z</time>
      </trkpt>
      <trkpt lat="44.00352" lon="0.50582">
        <ele>132.1</ele>
        <time>2011-04-10T08:05:30Z</time>
      </trkpt>
      <trkpt lat="44.00319" lon="0.50569">
        <ele>131.5</ele>
        <time>2011-04-10T08:05:26Z</time>
      </trkpt>
      <trkpt lat="44.00282" lon="0.50561">
        <ele>129.6</ele>
        <time>2011-04-10T08:05:21Z</time>
      </trkpt>
      <trkpt lat="44.00249" lon="0.50556">
        <ele>130.4</ele>
        <time>2011-04-10T08:05:12Z</time>
      </trkpt>
      <trkpt lat="44.00195" lon="0.50545">
        <ele>129.6</ele>
        <time>2011-04-10T08:04:56Z</time>
      </trkpt>
      <trkpt lat="44.00093" lon="0.5052">
        <ele>132</ele>
        <time>2011-04-10T08:04:36Z</time>
      </trkpt>
      <trkpt lat="44.00048" lon="0.50508">
        <ele>136</ele>
        <time>2011-04-10T08:04:30Z</time>
      </trkpt>
      <trkpt lat="44.00017" lon="0.50498">
        <ele>134.3</ele>
        <time>2011-04-10T08:04:19Z</time>
      </trkpt>
      <trkpt lat="43.99933" lon="0.50463">
        <ele>133.1</ele>
        <time>2011-04-10T08:04:07Z</time>
      </trkpt>
      <trkpt lat="43.99903" lon="0.50452">
        <ele>133.6</ele>
        <time>2011-04-10T08:04:01Z</time>
      </trkpt>
      <trkpt lat="43.99823" lon="0.50419">
        <ele>133.8</ele>
        <time>2011-04-10T08:03:50Z</time>
      </trkpt>
      <trkpt lat="43.99794" lon="0.50411">
        <ele>135.5</ele>
        <time>2011-04-10T08:03:46Z</time>
      </trkpt>
      <trkpt lat="43.99774" lon="0.50408">
        <ele>136.9</ele>
        <time>2011-04-10T08:03:38Z</time>
      </trkpt>
      <trkpt lat="43.99752" lon="0.5043">
        <ele>138.5</ele>
        <time>2011-04-10T08:03:33Z</time>
      </trkpt>
      <trkpt lat="43.99716" lon="0.50437">
        <ele>139.4</ele>
        <time>2011-04-10T08:03:27Z</time>
      </trkpt>
      <trkpt lat="43.99674" lon="0.50405">
        <ele>139.9</ele>
        <time>2011-04-10T08:03:11Z</time>
      </trkpt>
      <trkpt lat="43.99609" lon="0.50373">
        <ele>142.5</ele>
        <time>2011-04-10T08:02:59Z</time>
      </trkpt>
      <trkpt lat="43.99577" lon="0.50362">
        <ele>143.2</ele>
        <time>2011-04-10T08:02:54Z</time>
      </trkpt>
      <trkpt lat="43.9953" lon="0.50362">
        <ele>142.1</ele>
        <time>2011-04-10T08:02:49Z</time>
      </trkpt>
      <trkpt lat="43.99443" lon="0.50369">
        <ele>144</ele>
        <time>2011-04-10T08:02:36Z</time>
      </trkpt>
      <trkpt lat="43.99412" lon="0.50374">
        <ele>142.5</ele>
        <time>2011-04-10T08:02:31Z</time>
      </trkpt>
      <trkpt lat="43.9938" lon="0.50374">
        <ele>142.2</ele>
        <time>2011-04-10T08:02:24Z</time>
      </trkpt>
      <trkpt lat="43.99298" lon="0.50334">
        <ele>147.5</ele>
        <time>2011-04-10T08:02:16Z</time>
      </trkpt>
      <trkpt lat="43.99245" lon="0.50289">
        <ele>151.3</ele>
        <time>2011-04-10T08:01:56Z</time>
      </trkpt>
      <trkpt lat="43.99229" lon="0.50258">
        <ele>148.3</ele>
        <time>2011-04-10T08:01:47Z</time>
      </trkpt>
      <trkpt lat="43.99244" lon="0.50204">
        <ele>141.9</ele>
        <time>2011-04-10T08:01:38Z</time>
      </trkpt>
      <trkpt lat="43.99251" lon="0.50188">
        <ele>143.2</ele>
        <time>2011-04-10T08:01:28Z</time>
      </trkpt>
      <trkpt lat="43.99236" lon="0.50235">
        <ele>147.5</ele>
        <time>2011-04-10T08:01:19Z</time>
      </trkpt>
      <trkpt lat="43.99214" lon="0.50245">
        <ele>146.7</ele>
        <time>2011-04-10T08:01:10Z</time>
      </trkpt>
      <trkpt lat="43.99193" lon="0.50219">
        <ele>145.9</ele>
        <time>2011-04-10T08:01:05Z</time>
      </trkpt>
      <trkpt lat="43.99162" lon="0.5019">
        <ele>145.8</ele>
        <time>2011-04-10T08:01:01Z</time>
      </trkpt>
      <trkpt lat="43.99091" lon="0.50132">
        <ele>145.9</ele>
        <time>2011-04-10T08:00:55Z</time>
      </trkpt>
      <trkpt lat="43.99027" lon="0.50109">
        <ele>149.2</ele>
        <time>2011-04-10T08:00:51Z</time>
      </trkpt>
      <trkpt lat="43.989" lon="0.501">
        <ele>161.7</ele>
        <time>2011-04-10T08:00:45Z</time>
      </trkpt>
      <trkpt lat="43.98797" lon="0.50112">
        <ele>174.4</ele>
        <time>2011-04-10T08:00:35Z</time>
      </trkpt>
      <trkpt lat="43.98748" lon="0.50124">
        <ele>174</ele>
        <time>2011-04-10T08:00:24Z</time>
      </trkpt>
      <trkpt lat="43.98735" lon="0.50129">
        <ele>174.7</ele>
        <time>2011-04-10T08:00:20Z</time>
      </trkpt>
      <trkpt lat="43.98719" lon="0.50133">
        <ele>175.9</ele>
        <time>2011-04-10T08:00:15Z</time>
      </trkpt>
      <trkpt lat="43.98681" lon="0.50139">
        <ele>178.8</ele>
        <time>2011-04-10T08:00:09Z</time>
      </trkpt>
      <trkpt lat="43.98631" lon="0.50137">
        <ele>180.9</ele>
        <time>2011-04-10T08:00:04Z</time>
      </trkpt>
      <trkpt lat="43.98551" lon="0.50097">
        <ele>180.2</ele>
        <time>2011-04-10T07:59:54Z</time>
      </trkpt>
      <trkpt lat="43.98505" lon="0.50073">
        <ele>180.6</ele>
        <time>2011-04-10T07:59:45Z</time>
      </trkpt>
      <trkpt lat="43.98481" lon="0.50038">
        <ele>180.1</ele>
        <time>2011-04-10T07:59:35Z</time>
      </trkpt>
      <trkpt lat="43.98443" lon="0.49962">
        <ele>180</ele>
        <time>2011-04-10T07:59:19Z</time>
      </trkpt>
      <trkpt lat="43.98417" lon="0.49915">
        <ele>181.6</ele>
        <time>2011-04-10T07:59:12Z</time>
      </trkpt>
      <trkpt lat="43.98363" lon="0.49873">
        <ele>181.9</ele>
        <time>2011-04-10T07:59:01Z</time>
      </trkpt>
      <trkpt lat="43.98326" lon="0.49828">
        <ele>189</ele>
        <time>2011-04-10T07:58:52Z</time>
      </trkpt>
      <trkpt lat="43.98296" lon="0.498">
        <ele>189.9</ele>
        <time>2011-04-10T07:58:48Z</time>
      </trkpt>
      <trkpt lat="43.98277" lon="0.49774">
        <ele>190</ele>
        <time>2011-04-10T07:58:43Z</time>
      </trkpt>
      <trkpt lat="43.98259" lon="0.49802">
        <ele>190</ele>
        <time>2011-04-10T07:58:31Z</time>
      </trkpt>
      <trkpt lat="43.98247" lon="0.4984">
        <ele>190.2</ele>
        <time>2011-04-10T07:58:23Z</time>
      </trkpt>
      <trkpt lat="43.98222" lon="0.49879">
        <ele>190.5</ele>
        <time>2011-04-10T07:58:11Z</time>
      </trkpt>
      <trkpt lat="43.98196" lon="0.4993">
        <ele>190.9</ele>
        <time>2011-04-10T07:58:00Z</time>
      </trkpt>
      <trkpt lat="43.98184" lon="0.49942">
        <ele>190.9</ele>
        <time>2011-04-10T07:57:56Z</time>
      </trkpt>
      <trkpt lat="43.9817" lon="0.49983">
        <ele>189.6</ele>
        <time>2011-04-10T07:57:50Z</time>
      </trkpt>
      <trkpt lat="43.98158" lon="0.50006">
        <ele>189.1</ele>
        <time>2011-04-10T07:57:39Z</time>
      </trkpt>
      <trkpt lat="43.98172" lon="0.49969">
        <ele>190.1</ele>
        <time>2011-04-10T07:57:31Z</time>
      </trkpt>
      <trkpt lat="43.98165" lon="0.49949">
        <ele>188.3</ele>
        <time>2011-04-10T07:57:23Z</time>
      </trkpt>
      <trkpt lat="43.98143" lon="0.4994">
        <ele>188</ele>
        <time>2011-04-10T07:57:18Z</time>
      </trkpt>
      <trkpt lat="43.98145" lon="0.49914">
        <ele>187</ele>
        <time>2011-04-10T07:57:05Z</time>
      </trkpt>
      <trkpt lat="43.98152" lon="0.49898">
        <ele>186.6</ele>
        <time>2011-04-10T07:57:00Z</time>
      </trkpt>
      <trkpt lat="43.98164" lon="0.49857">
        <ele>187</ele>
        <time>2011-04-10T07:56:51Z</time>
      </trkpt>
      <trkpt lat="43.98192" lon="0.49776">
        <ele>189.6</ele>
        <time>2011-04-10T07:56:36Z</time>
      </trkpt>
      <trkpt lat="43.98218" lon="0.49755">
        <ele>188.7</ele>
        <time>2011-04-10T07:56:21Z</time>
      </trkpt>
      <trkpt lat="43.98261" lon="0.49781">
        <ele>190.5</ele>
        <time>2011-04-10T07:55:06Z</time>
      </trkpt>
      <trkpt lat="43.98254" lon="0.49798">
        <ele>190</ele>
        <time>2011-04-10T07:54:48Z</time>
      </trkpt>
      <trkpt lat="43.98258" lon="0.49814">
        <ele>190</ele>
        <time>2011-04-10T07:54:43Z</time>
      </trkpt>
      <trkpt lat="43.98258" lon="0.49836">
        <ele>190</ele>
        <time>2011-04-10T07:54:39Z</time>
      </trkpt>
      <trkpt lat="43.9829" lon="0.49852">
        <ele>189.9</ele>
        <time>2011-04-10T07:54:32Z</time>
      </trkpt>
      <trkpt lat="43.98319" lon="0.49854">
        <ele>189.4</ele>
        <time>2011-04-10T07:54:28Z</time>
      </trkpt>
      <trkpt lat="43.98348" lon="0.49869">
        <ele>182</ele>
        <time>2011-04-10T07:54:24Z</time>
      </trkpt>
      <trkpt lat="43.98419" lon="0.49912">
        <ele>181.6</ele>
        <time>2011-04-10T07:54:13Z</time>
      </trkpt>
      <trkpt lat="43.98439" lon="0.4994">
        <ele>180.8</ele>
        <time>2011-04-10T07:54:09Z</time>
      </trkpt>
      <trkpt lat="43.98461" lon="0.49982">
        <ele>179.9</ele>
        <time>2011-04-10T07:54:04Z</time>
      </trkpt>
      <trkpt lat="43.98516" lon="0.50066">
        <ele>180.5</ele>
        <time>2011-04-10T07:53:54Z</time>
      </trkpt>
      <trkpt lat="43.98519" lon="0.50093">
        <ele>180.9</ele>
        <time>2011-04-10T07:50:03Z</time>
      </trkpt>
      <trkpt lat="43.98521" lon="0.50091">
        <ele>181</ele>
        <time>2011-04-10T07:49:33Z</time>
      </trkpt>
      <trkpt lat="43.98553" lon="0.5009">
        <ele>180.2</ele>
        <time>2011-04-10T07:49:24Z</time>
      </trkpt>
      <trkpt lat="43.9858" lon="0.50097">
        <ele>179.8</ele>
        <time>2011-04-10T07:49:12Z</time>
      </trkpt>
      <trkpt lat="43.98606" lon="0.50109">
        <ele>180.4</ele>
        <time>2011-04-10T07:48:57Z</time>
      </trkpt>
      <trkpt lat="43.98658" lon="0.50125">
        <ele>179.7</ele>
        <time>2011-04-10T07:48:43Z</time>
      </trkpt>
      <trkpt lat="43.98696" lon="0.50124">
        <ele>178.1</ele>
        <time>2011-04-10T07:48:37Z</time>
      </trkpt>
      <trkpt lat="43.98725" lon="0.50121">
        <ele>175.4</ele>
        <time>2011-04-10T07:48:22Z</time>
      </trkpt>
      <trkpt lat="43.98773" lon="0.50113">
        <ele>173.8</ele>
        <time>2011-04-10T07:48:03Z</time>
      </trkpt>
      <trkpt lat="43.98822" lon="0.50111">
        <ele>172.5</ele>
        <time>2011-04-10T07:47:37Z</time>
      </trkpt>
      <trkpt lat="43.98848" lon="0.50118">
        <ele>169.3</ele>
        <time>2011-04-10T07:47:26Z</time>
      </trkpt>
      <trkpt lat="43.9888" lon="0.50123">
        <ele>166.3</ele>
        <time>2011-04-10T07:47:07Z</time>
      </trkpt>
      <trkpt lat="43.98896" lon="0.50121">
        <ele>164.5</ele>
        <time>2011-04-10T07:47:01Z</time>
      </trkpt>
      <trkpt lat="43.98969" lon="0.50121">
        <ele>155.8</ele>
        <time>2011-04-10T07:46:31Z</time>
      </trkpt>
      <trkpt lat="43.99028" lon="0.50119">
        <ele>149.3</ele>
        <time>2011-04-10T07:46:02Z</time>
      </trkpt>
      <trkpt lat="43.99055" lon="0.50124">
        <ele>147.4</ele>
        <time>2011-04-10T07:45:52Z</time>
      </trkpt>
      <trkpt lat="43.99118" lon="0.50158">
        <ele>145.2</ele>
        <time>2011-04-10T07:45:42Z</time>
      </trkpt>
      <trkpt lat="43.99144" lon="0.50181">
        <ele>145.9</ele>
        <time>2011-04-10T07:45:35Z</time>
      </trkpt>
      <trkpt lat="43.99169" lon="0.50208">
        <ele>145.9</ele>
        <time>2011-04-10T07:45:28Z</time>
      </trkpt>
      <trkpt lat="43.99233" lon="0.50288">
        <ele>150.7</ele>
        <time>2011-04-10T07:45:10Z</time>
      </trkpt>
      <trkpt lat="43.99276" lon="0.50323">
        <ele>149.9</ele>
        <time>2011-04-10T07:44:55Z</time>
      </trkpt>
      <trkpt lat="43.99297" lon="0.50331">
        <ele>147.5</ele>
        <time>2011-04-10T07:44:51Z</time>
      </trkpt>
      <trkpt lat="43.99367" lon="0.50343">
        <ele>142.3</ele>
        <time>2011-04-10T07:44:39Z</time>
      </trkpt>
      <trkpt lat="43.99458" lon="0.50358">
        <ele>145.8</ele>
        <time>2011-04-10T07:44:30Z</time>
      </trkpt>
      <trkpt lat="43.99487" lon="0.50355">
        <ele>145.9</ele>
        <time>2011-04-10T07:44:15Z</time>
      </trkpt>
      <trkpt lat="43.99516" lon="0.50348">
        <ele>142.7</ele>
        <time>2011-04-10T07:44:02Z</time>
      </trkpt>
      <trkpt lat="43.99561" lon="0.50348">
        <ele>142</ele>
        <time>2011-04-10T07:43:43Z</time>
      </trkpt>
      <trkpt lat="43.9959" lon="0.50365">
        <ele>144.6</ele>
        <time>2011-04-10T07:43:35Z</time>
      </trkpt>
      <trkpt lat="43.99617" lon="0.50385">
        <ele>145</ele>
        <time>2011-04-10T07:43:27Z</time>
      </trkpt>
      <trkpt lat="43.99658" lon="0.50412">
        <ele>143.3</ele>
        <time>2011-04-10T07:43:14Z</time>
      </trkpt>
      <trkpt lat="43.99698" lon="0.50437">
        <ele>142</ele>
        <time>2011-04-10T07:43:01Z</time>
      </trkpt>
      <trkpt lat="43.99715" lon="0.50446">
        <ele>141.8</ele>
        <time>2011-04-10T07:42:55Z</time>
      </trkpt>
      <trkpt lat="43.99736" lon="0.50451">
        <ele>142.5</ele>
        <time>2011-04-10T07:42:45Z</time>
      </trkpt>
      <trkpt lat="43.99749" lon="0.50432">
        <ele>140.5</ele>
        <time>2011-04-10T07:42:24Z</time>
      </trkpt>
      <trkpt lat="43.99752" lon="0.50413">
        <ele>138.9</ele>
        <time>2011-04-10T07:42:19Z</time>
      </trkpt>
      <trkpt lat="43.99762" lon="0.504">
        <ele>138.1</ele>
        <time>2011-04-10T07:42:13Z</time>
      </trkpt>
      <trkpt lat="43.99778" lon="0.50399">
        <ele>137.6</ele>
        <time>2011-04-10T07:42:08Z</time>
      </trkpt>
      <trkpt lat="43.99793" lon="0.50403">
        <ele>137</ele>
        <time>2011-04-10T07:42:03Z</time>
      </trkpt>
      <trkpt lat="43.99819" lon="0.50423">
        <ele>135.7</ele>
        <time>2011-04-10T07:41:54Z</time>
      </trkpt>
      <trkpt lat="43.99833" lon="0.5043">
        <ele>136.3</ele>
        <time>2011-04-10T07:41:48Z</time>
      </trkpt>
      <trkpt lat="43.99875" lon="0.50445">
        <ele>135.8</ele>
        <time>2011-04-10T07:41:35Z</time>
      </trkpt>
      <trkpt lat="43.99951" lon="0.50481">
        <ele>135.7</ele>
        <time>2011-04-10T07:41:11Z</time>
      </trkpt>
      <trkpt lat="43.99968" lon="0.50485">
        <ele>135.6</ele>
        <time>2011-04-10T07:41:06Z</time>
      </trkpt>
      <trkpt lat="44.0002" lon="0.50498">
        <ele>135.9</ele>
        <time>2011-04-10T07:40:50Z</time>
      </trkpt>
      <trkpt lat="44.00049" lon="0.50508">
        <ele>137.5</ele>
        <time>2011-04-10T07:40:41Z</time>
      </trkpt>
      <trkpt lat="44.00085" lon="0.50515">
        <ele>133.7</ele>
        <time>2011-04-10T07:40:30Z</time>
      </trkpt>
      <trkpt lat="44.00128" lon="0.50529">
        <ele>134</ele>
        <time>2011-04-10T07:40:17Z</time>
      </trkpt>
      <trkpt lat="44.00149" lon="0.50535">
        <ele>133.2</ele>
        <time>2011-04-10T07:40:11Z</time>
      </trkpt>
      <trkpt lat="44.00167" lon="0.50538">
        <ele>132.1</ele>
        <time>2011-04-10T07:40:06Z</time>
      </trkpt>
      <trkpt lat="44.00196" lon="0.50549">
        <ele>131.1</ele>
        <time>2011-04-10T07:39:57Z</time>
      </trkpt>
      <trkpt lat="44.00211" lon="0.50552">
        <ele>131.3</ele>
        <time>2011-04-10T07:39:53Z</time>
      </trkpt>
      <trkpt lat="44.00271" lon="0.50555">
        <ele>131.2</ele>
        <time>2011-04-10T07:39:35Z</time>
      </trkpt>
      <trkpt lat="44.00289" lon="0.50554">
        <ele>131.2</ele>
        <time>2011-04-10T07:39:30Z</time>
      </trkpt>
      <trkpt lat="44.00343" lon="0.50562">
        <ele>133.4</ele>
        <time>2011-04-10T07:39:16Z</time>
      </trkpt>
      <trkpt lat="44.00357" lon="0.50566">
        <ele>133.5</ele>
        <time>2011-04-10T07:39:12Z</time>
      </trkpt>
      <trkpt lat="44.00377" lon="0.50575">
        <ele>132.8</ele>
        <time>2011-04-10T07:39:07Z</time>
      </trkpt>
      <trkpt lat="44.00398" lon="0.50593">
        <ele>132.3</ele>
        <time>2011-04-10T07:38:58Z</time>
      </trkpt>
      <trkpt lat="44.00421" lon="0.50597">
        <ele>131.7</ele>
        <time>2011-04-10T07:38:46Z</time>
      </trkpt>
      <trkpt lat="44.00435" lon="0.506">
        <ele>130.9</ele>
        <time>2011-04-10T07:38:39Z</time>
      </trkpt>
      <trkpt lat="44.00486" lon="0.50615">
        <ele>128.7</ele>
        <time>2011-04-10T07:38:22Z</time>
      </trkpt>
      <trkpt lat="44.00538" lon="0.50617">
        <ele>127.1</ele>
        <time>2011-04-10T07:38:06Z</time>
      </trkpt>
      <trkpt lat="44.00604" lon="0.50623">
        <ele>126.6</ele>
        <time>2011-04-10T07:37:48Z</time>
      </trkpt>
      <trkpt lat="44.00636" lon="0.50621">
        <ele>128.3</ele>
        <time>2011-04-10T07:37:38Z</time>
      </trkpt>
      <trkpt lat="44.00668" lon="0.50618">
        <ele>129.1</ele>
        <time>2011-04-10T07:37:27Z</time>
      </trkpt>
      <trkpt lat="44.00692" lon="0.50614">
        <ele>128.1</ele>
        <time>2011-04-10T07:37:19Z</time>
      </trkpt>
      <trkpt lat="44.00715" lon="0.50614">
        <ele>127.2</ele>
        <time>2011-04-10T07:37:12Z</time>
      </trkpt>
      <trkpt lat="44.00731" lon="0.50619">
        <ele>126.6</ele>
        <time>2011-04-10T07:37:07Z</time>
      </trkpt>
      <trkpt lat="44.00762" lon="0.50644">
        <ele>126</ele>
        <time>2011-04-10T07:36:57Z</time>
      </trkpt>
      <trkpt lat="44.00779" lon="0.5065">
        <ele>125.5</ele>
        <time>2011-04-10T07:36:52Z</time>
      </trkpt>
      <trkpt lat="44.0081" lon="0.50652">
        <ele>125</ele>
        <time>2011-04-10T07:36:43Z</time>
      </trkpt>
      <trkpt lat="44.0085" lon="0.5065">
        <ele>123.9</ele>
        <time>2011-04-10T07:36:29Z</time>
      </trkpt>
      <trkpt lat="44.00924" lon="0.50662">
        <ele>125.2</ele>
        <time>2011-04-10T07:36:09Z</time>
      </trkpt>
      <trkpt lat="44.00959" lon="0.50663">
        <ele>123.7</ele>
        <time>2011-04-10T07:36:01Z</time>
      </trkpt>
      <trkpt lat="44.00974" lon="0.50669">
        <ele>123.4</ele>
        <time>2011-04-10T07:35:57Z</time>
      </trkpt>
      <trkpt lat="44.0105" lon="0.50724">
        <ele>122.4</ele>
        <time>2011-04-10T07:35:26Z</time>
      </trkpt>
      <trkpt lat="44.01077" lon="0.50747">
        <ele>122.6</ele>
        <time>2011-04-10T07:35:16Z</time>
      </trkpt>
      <trkpt lat="44.01098" lon="0.5076">
        <ele>122.6</ele>
        <time>2011-04-10T07:34:12Z</time>
      </trkpt>
      <trkpt lat="44.01135" lon="0.5079">
        <ele>122.2</ele>
        <time>2011-04-10T07:33:57Z</time>
      </trkpt>
      <trkpt lat="44.01147" lon="0.508">
        <ele>121.7</ele>
        <time>2011-04-10T07:33:53Z</time>
      </trkpt>
      <trkpt lat="44.01168" lon="0.50823">
        <ele>122.3</ele>
        <time>2011-04-10T07:33:45Z</time>
      </trkpt>
      <trkpt lat="44.0118" lon="0.50832">
        <ele>122.5</ele>
        <time>2011-04-10T07:33:41Z</time>
      </trkpt>
      <trkpt lat="44.01206" lon="0.50861">
        <ele>121</ele>
        <time>2011-04-10T07:33:33Z</time>
      </trkpt>
      <trkpt lat="44.01233" lon="0.50884">
        <ele>119.4</ele>
        <time>2011-04-10T07:33:25Z</time>
      </trkpt>
      <trkpt lat="44.01263" lon="0.50878">
        <ele>120</ele>
        <time>2011-04-10T07:33:18Z</time>
      </trkpt>
      <trkpt lat="44.01288" lon="0.50853">
        <ele>122</ele>
        <time>2011-04-10T07:33:11Z</time>
      </trkpt>
      <trkpt lat="44.01318" lon="0.50831">
        <ele>123</ele>
        <time>2011-04-10T07:33:03Z</time>
      </trkpt>
      <trkpt lat="44.0137" lon="0.50803">
        <ele>122</ele>
        <time>2011-04-10T07:32:51Z</time>
      </trkpt>
      <trkpt lat="44.01386" lon="0.508">
        <ele>121.5</ele>
        <time>2011-04-10T07:32:47Z</time>
      </trkpt>
      <trkpt lat="44.01454" lon="0.50788">
        <ele>121.8</ele>
        <time>2011-04-10T07:32:31Z</time>
      </trkpt>
      <trkpt lat="44.01469" lon="0.50792">
        <ele>121.1</ele>
        <time>2011-04-10T07:32:27Z</time>
      </trkpt>
      <trkpt lat="44.01514" lon="0.50817">
        <ele>121.2</ele>
        <time>2011-04-10T07:32:15Z</time>
      </trkpt>
      <trkpt lat="44.0156" lon="0.50837">
        <ele>120.3</ele>
        <time>2011-04-10T07:32:03Z</time>
      </trkpt>
      <trkpt lat="44.01588" lon="0.50852">
        <ele>119.6</ele>
        <time>2011-04-10T07:31:57Z</time>
      </trkpt>
      <trkpt lat="44.01621" lon="0.50861">
        <ele>119.7</ele>
        <time>2011-04-10T07:31:50Z</time>
      </trkpt>
      <trkpt lat="44.01653" lon="0.50882">
        <ele>119.4</ele>
        <time>2011-04-10T07:31:43Z</time>
      </trkpt>
      <trkpt lat="44.01674" lon="0.50915">
        <ele>119.7</ele>
        <time>2011-04-10T07:31:37Z</time>
      </trkpt>
      <trkpt lat="44.01698" lon="0.50936">
        <ele>120.3</ele>
        <time>2011-04-10T07:31:00Z</time>
      </trkpt>
      <trkpt lat="44.01733" lon="0.50944">
        <ele>120.9</ele>
        <time>2011-04-10T07:30:54Z</time>
      </trkpt>
      <trkpt lat="44.01798" lon="0.50966">
        <ele>122.6</ele>
        <time>2011-04-10T07:30:40Z</time>
      </trkpt>
      <trkpt lat="44.01848" lon="0.50979">
        <ele>121.8</ele>
        <time>2011-04-10T07:30:28Z</time>
      </trkpt>
      <trkpt lat="44.01883" lon="0.5098">
        <ele>121</ele>
        <time>2011-04-10T07:30:20Z</time>
      </trkpt>
      <trkpt lat="44.01914" lon="0.50971">
        <ele>119.4</ele>
        <time>2011-04-10T07:30:12Z</time>
      </trkpt>
      <trkpt lat="44.01943" lon="0.50964">
        <ele>117.9</ele>
        <time>2011-04-10T07:30:04Z</time>
      </trkpt>
      <trkpt lat="44.01958" lon="0.50962">
        <ele>118.3</ele>
        <time>2011-04-10T07:30:00Z</time>
      </trkpt>
      <trkpt lat="44.0199" lon="0.50963">
        <ele>118.7</ele>
        <time>2011-04-10T07:29:52Z</time>
      </trkpt>
      <trkpt lat="44.02055" lon="0.50971">
        <ele>119.5</ele>
        <time>2011-04-10T07:29:36Z</time>
      </trkpt>
      <trkpt lat="44.02084" lon="0.50977">
        <ele>119.8</ele>
        <time>2011-04-10T07:29:28Z</time>
      </trkpt>
      <trkpt lat="44.02126" lon="0.50982">
        <ele>119.6</ele>
        <time>2011-04-10T07:29:17Z</time>
      </trkpt>
      <trkpt lat="44.02158" lon="0.50985">
        <ele>119.5</ele>
        <time>2011-04-10T07:29:11Z</time>
      </trkpt>
      <trkpt lat="44.02259" lon="0.50984">
        <ele>120.2</ele>
        <time>2011-04-10T07:28:53Z</time>
      </trkpt>
      <trkpt lat="44.02274" lon="0.50984">
        <ele>121.1</ele>
        <time>2011-04-10T07:28:49Z</time>
      </trkpt>
      <trkpt lat="44.0232" lon="0.50978">
        <ele>120.9</ele>
        <time>2011-04-10T07:28:31Z</time>
      </trkpt>
      <trkpt lat="44.02377" lon="0.51001">
        <ele>122.7</ele>
        <time>2011-04-10T07:28:10Z</time>
      </trkpt>
      <trkpt lat="44.02406" lon="0.51001">
        <ele>120.6</ele>
        <time>2011-04-10T07:28:02Z</time>
      </trkpt>
      <trkpt lat="44.02457" lon="0.50996">
        <ele>119.5</ele>
        <time>2011-04-10T07:27:49Z</time>
      </trkpt>
      <trkpt lat="44.02472" lon="0.50994">
        <ele>118.2</ele>
        <time>2011-04-10T07:27:45Z</time>
      </trkpt>
      <trkpt lat="44.02513" lon="0.50978">
        <ele>115.6</ele>
        <time>2011-04-10T07:27:33Z</time>
      </trkpt>
      <trkpt lat="44.02528" lon="0.50977">
        <ele>115.3</ele>
        <time>2011-04-10T07:27:28Z</time>
      </trkpt>
      <trkpt lat="44.02574" lon="0.50986">
        <ele>113.9</ele>
        <time>2011-04-10T07:27:14Z</time>
      </trkpt>
      <trkpt lat="44.02634" lon="0.50979">
        <ele>113.7</ele>
        <time>2011-04-10T07:26:57Z</time>
      </trkpt>
      <trkpt lat="44.02649" lon="0.5098">
        <ele>113.6</ele>
        <time>2011-04-10T07:26:52Z</time>
      </trkpt>
      <trkpt lat="44.02696" lon="0.50966">
        <ele>113.4</ele>
        <time>2011-04-10T07:26:39Z</time>
      </trkpt>
      <trkpt lat="44.02721" lon="0.50952">
        <ele>113.8</ele>
        <time>2011-04-10T07:26:34Z</time>
      </trkpt>
      <trkpt lat="44.02754" lon="0.50935">
        <ele>113.3</ele>
        <time>2011-04-10T07:26:28Z</time>
      </trkpt>
      <trkpt lat="44.02808" lon="0.50916">
        <ele>113.7</ele>
        <time>2011-04-10T07:26:18Z</time>
      </trkpt>
      <trkpt lat="44.0286" lon="0.50906">
        <ele>114.8</ele>
        <time>2011-04-10T07:26:08Z</time>
      </trkpt>
      <trkpt lat="44.02904" lon="0.50921">
        <ele>114.8</ele>
        <time>2011-04-10T07:26:02Z</time>
      </trkpt>
      <trkpt lat="44.02953" lon="0.50964">
        <ele>117.1</ele>
        <time>2011-04-10T07:25:56Z</time>
      </trkpt>
      <trkpt lat="44.03119" lon="0.51045">
        <ele>125.7</ele>
        <time>2011-04-10T07:25:38Z</time>
      </trkpt>
      <trkpt lat="44.03224" lon="0.51115">
        <ele>136.5</ele>
        <time>2011-04-10T07:25:26Z</time>
      </trkpt>
      <trkpt lat="44.03313" lon="0.51151">
        <ele>142.6</ele>
        <time>2011-04-10T07:25:15Z</time>
      </trkpt>
      <trkpt lat="44.03408" lon="0.51199">
        <ele>135.8</ele>
        <time>2011-04-10T07:24:22Z</time>
      </trkpt>
      <trkpt lat="44.03424" lon="0.51205">
        <ele>134.8</ele>
        <time>2011-04-10T07:24:16Z</time>
      </trkpt>
      <trkpt lat="44.03441" lon="0.51211">
        <ele>134.3</ele>
        <time>2011-04-10T07:24:06Z</time>
      </trkpt>
      <trkpt lat="44.03467" lon="0.51226">
        <ele>133.4</ele>
        <time>2011-04-10T07:23:52Z</time>
      </trkpt>
      <trkpt lat="44.03516" lon="0.51236">
        <ele>133.2</ele>
        <time>2011-04-10T07:23:44Z</time>
      </trkpt>
      <trkpt lat="44.03605" lon="0.51278">
        <ele>132.8</ele>
        <time>2011-04-10T07:23:32Z</time>
      </trkpt>
      <trkpt lat="44.03647" lon="0.51292">
        <ele>135.6</ele>
        <time>2011-04-10T07:23:26Z</time>
      </trkpt>
      <trkpt lat="44.03674" lon="0.5131">
        <ele>139.5</ele>
        <time>2011-04-10T07:23:21Z</time>
      </trkpt>
      <trkpt lat="44.03679" lon="0.51391">
        <ele>143.6</ele>
        <time>2011-04-10T07:23:14Z</time>
      </trkpt>
      <trkpt lat="44.03675" lon="0.51583">
        <ele>159.6</ele>
        <time>2011-04-10T07:23:02Z</time>
      </trkpt>
      <trkpt lat="44.03661" lon="0.5165">
        <ele>164.3</ele>
        <time>2011-04-10T07:22:56Z</time>
      </trkpt>
      <trkpt lat="44.03631" lon="0.51708">
        <ele>172</ele>
        <time>2011-04-10T07:22:50Z</time>
      </trkpt>
      <trkpt lat="44.03616" lon="0.51762">
        <ele>178.7</ele>
        <time>2011-04-10T07:22:44Z</time>
      </trkpt>
      <trkpt lat="44.03615" lon="0.51813">
        <ele>180.8</ele>
        <time>2011-04-10T07:22:38Z</time>
      </trkpt>
      <trkpt lat="44.03632" lon="0.51847">
        <ele>184.2</ele>
        <time>2011-04-10T07:22:32Z</time>
      </trkpt>
      <trkpt lat="44.03681" lon="0.51905">
        <ele>189.8</ele>
        <time>2011-04-10T07:22:19Z</time>
      </trkpt>
      <trkpt lat="44.03709" lon="0.51924">
        <ele>192.4</ele>
        <time>2011-04-10T07:22:12Z</time>
      </trkpt>
      <trkpt lat="44.03737" lon="0.51919">
        <ele>191.2</ele>
        <time>2011-04-10T07:22:06Z</time>
      </trkpt>
      <trkpt lat="44.03765" lon="0.51906">
        <ele>191.2</ele>
        <time>2011-04-10T07:22:00Z</time>
      </trkpt>
      <trkpt lat="44.03789" lon="0.51889">
        <ele>188.4</ele>
        <time>2011-04-10T07:21:55Z</time>
      </trkpt>
      <trkpt lat="44.03816" lon="0.51878">
        <ele>186.1</ele>
        <time>2011-04-10T07:21:50Z</time>
      </trkpt>
      <trkpt lat="44.03841" lon="0.5186">
        <ele>184</ele>
        <time>2011-04-10T07:21:38Z</time>
      </trkpt>
      <trkpt lat="44.03861" lon="0.51835">
        <ele>181.2</ele>
        <time>2011-04-10T07:21:21Z</time>
      </trkpt>
      <trkpt lat="44.03888" lon="0.51785">
        <ele>176.9</ele>
        <time>2011-04-10T07:21:03Z</time>
      </trkpt>
      <trkpt lat="44.03903" lon="0.51745">
        <ele>173.4</ele>
        <time>2011-04-10T07:20:41Z</time>
      </trkpt>
      <trkpt lat="44.03921" lon="0.51674">
        <ele>168.5</ele>
        <time>2011-04-10T07:20:06Z</time>
      </trkpt>
      <trkpt lat="44.03928" lon="0.51657">
        <ele>166.8</ele>
        <time>2011-04-10T07:19:56Z</time>
      </trkpt>
      <trkpt lat="44.03948" lon="0.51645">
        <ele>164.5</ele>
        <time>2011-04-10T07:19:49Z</time>
      </trkpt>
      <trkpt lat="44.03951" lon="0.51646">
        <ele>164.5</ele>
        <time>2011-04-10T07:19:44Z</time>
      </trkpt>
      <trkpt lat="44.03967" lon="0.51668">
        <ele>159.7</ele>
        <time>2011-04-10T07:19:34Z</time>
      </trkpt>
      <trkpt lat="44.03987" lon="0.51697">
        <ele>156.5</ele>
        <time>2011-04-10T07:19:25Z</time>
      </trkpt>
      <trkpt lat="44.04026" lon="0.51754">
        <ele>153.9</ele>
        <time>2011-04-10T07:19:07Z</time>
      </trkpt>
      <trkpt lat="44.04045" lon="0.51785">
        <ele>150</ele>
        <time>2011-04-10T07:18:50Z</time>
      </trkpt>
      <trkpt lat="44.04074" lon="0.51818">
        <ele>150.3</ele>
        <time>2011-04-10T07:18:27Z</time>
      </trkpt>
      <trkpt lat="44.04085" lon="0.51839">
        <ele>149.6</ele>
        <time>2011-04-10T07:18:15Z</time>
      </trkpt>
      <trkpt lat="44.04101" lon="0.51853">
        <ele>146.6</ele>
        <time>2011-04-10T07:18:04Z</time>
      </trkpt>
      <trkpt lat="44.04129" lon="0.5189">
        <ele>144.1</ele>
        <time>2011-04-10T07:17:50Z</time>
      </trkpt>
      <trkpt lat="44.04149" lon="0.51903">
        <ele>141</ele>
        <time>2011-04-10T07:17:35Z</time>
      </trkpt>
      <trkpt lat="44.04163" lon="0.51915">
        <ele>139.2</ele>
        <time>2011-04-10T07:17:24Z</time>
      </trkpt>
      <trkpt lat="44.04194" lon="0.51927">
        <ele>135.2</ele>
        <time>2011-04-10T07:17:11Z</time>
      </trkpt>
      <trkpt lat="44.04209" lon="0.51952">
        <ele>135.1</ele>
        <time>2011-04-10T07:17:07Z</time>
      </trkpt>
      <trkpt lat="44.04228" lon="0.51991">
        <ele>136.6</ele>
        <time>2011-04-10T07:17:02Z</time>
      </trkpt>
      <trkpt lat="44.04229" lon="0.52015">
        <ele>139</ele>
        <time>2011-04-10T07:16:58Z</time>
      </trkpt>
      <trkpt lat="44.04227" lon="0.52037">
        <ele>141.3</ele>
        <time>2011-04-10T07:16:53Z</time>
      </trkpt>
      <trkpt lat="44.04243" lon="0.52055">
        <ele>141.4</ele>
        <time>2011-04-10T07:16:44Z</time>
      </trkpt>
      <trkpt lat="44.04272" lon="0.52067">
        <ele>138.6</ele>
        <time>2011-04-10T07:16:29Z</time>
      </trkpt>
      <trkpt lat="44.04285" lon="0.52075">
        <ele>138.2</ele>
        <time>2011-04-10T07:16:24Z</time>
      </trkpt>
      <trkpt lat="44.04302" lon="0.52136">
        <ele>139.9</ele>
        <time>2011-04-10T07:16:17Z</time>
      </trkpt>
      <trkpt lat="44.04288" lon="0.52173">
        <ele>143</ele>
        <time>2011-04-10T07:16:12Z</time>
      </trkpt>
      <trkpt lat="44.04268" lon="0.52206">
        <ele>149.1</ele>
        <time>2011-04-10T07:16:06Z</time>
      </trkpt>
      <trkpt lat="44.04264" lon="0.52252">
        <ele>150.2</ele>
        <time>2011-04-10T07:16:01Z</time>
      </trkpt>
      <trkpt lat="44.04276" lon="0.52276">
        <ele>148.8</ele>
        <time>2011-04-10T07:15:48Z</time>
      </trkpt>
      <trkpt lat="44.04313" lon="0.52304">
        <ele>143.4</ele>
        <time>2011-04-10T07:15:22Z</time>
      </trkpt>
      <trkpt lat="44.04358" lon="0.52334">
        <ele>137.8</ele>
        <time>2011-04-10T07:14:48Z</time>
      </trkpt>
      <trkpt lat="44.04376" lon="0.52345">
        <ele>136.9</ele>
        <time>2011-04-10T07:14:37Z</time>
      </trkpt>
      <trkpt lat="44.04395" lon="0.52354">
        <ele>135.3</ele>
        <time>2011-04-10T07:14:18Z</time>
      </trkpt>
      <trkpt lat="44.04451" lon="0.5239">
        <ele>127</ele>
        <time>2011-04-10T07:13:49Z</time>
      </trkpt>
      <trkpt lat="44.04463" lon="0.52401">
        <ele>126.4</ele>
        <time>2011-04-10T07:13:43Z</time>
      </trkpt>
      <trkpt lat="44.04493" lon="0.52445">
        <ele>125</ele>
        <time>2011-04-10T07:13:30Z</time>
      </trkpt>
      <trkpt lat="44.04514" lon="0.5248">
        <ele>126.3</ele>
        <time>2011-04-10T07:13:25Z</time>
      </trkpt>
      <trkpt lat="44.04547" lon="0.52566">
        <ele>128.7</ele>
        <time>2011-04-10T07:13:07Z</time>
      </trkpt>
      <trkpt lat="44.04558" lon="0.52588">
        <ele>127.4</ele>
        <time>2011-04-10T07:12:59Z</time>
      </trkpt>
      <trkpt lat="44.04589" lon="0.52625">
        <ele>124.5</ele>
        <time>2011-04-10T07:12:41Z</time>
      </trkpt>
      <trkpt lat="44.04609" lon="0.52637">
        <ele>123.7</ele>
        <time>2011-04-10T07:12:32Z</time>
      </trkpt>
      <trkpt lat="44.04636" lon="0.52637">
        <ele>122.7</ele>
        <time>2011-04-10T07:12:14Z</time>
      </trkpt>
      <trkpt lat="44.04654" lon="0.52636">
        <ele>121.3</ele>
        <time>2011-04-10T07:12:06Z</time>
      </trkpt>
      <trkpt lat="44.04673" lon="0.52649">
        <ele>119.7</ele>
        <time>2011-04-10T07:11:56Z</time>
      </trkpt>
      <trkpt lat="44.04687" lon="0.52702">
        <ele>120.8</ele>
        <time>2011-04-10T07:11:46Z</time>
      </trkpt>
      <trkpt lat="44.04699" lon="0.52727">
        <ele>120.3</ele>
        <time>2011-04-10T07:11:35Z</time>
      </trkpt>
      <trkpt lat="44.04717" lon="0.52732">
        <ele>118.5</ele>
        <time>2011-04-10T07:11:22Z</time>
      </trkpt>
      <trkpt lat="44.0473" lon="0.5273">
        <ele>116.4</ele>
        <time>2011-04-10T07:11:14Z</time>
      </trkpt>
      <trkpt lat="44.04753" lon="0.52723">
        <ele>111.1</ele>
        <time>2011-04-10T07:11:00Z</time>
      </trkpt>
      <trkpt lat="44.04767" lon="0.52726">
        <ele>109.9</ele>
        <time>2011-04-10T07:10:55Z</time>
      </trkpt>
      <trkpt lat="44.048" lon="0.52741">
        <ele>111.3</ele>
        <time>2011-04-10T07:10:50Z</time>
      </trkpt>
      <trkpt lat="44.04856" lon="0.52758">
        <ele>115.8</ele>
        <time>2011-04-10T07:10:44Z</time>
      </trkpt>
      <trkpt lat="44.04918" lon="0.52768">
        <ele>121.1</ele>
        <time>2011-04-10T07:10:38Z</time>
      </trkpt>
      <trkpt lat="44.04972" lon="0.5278">
        <ele>125.7</ele>
        <time>2011-04-10T07:10:32Z</time>
      </trkpt>
      <trkpt lat="44.05015" lon="0.52798">
        <ele>127.4</ele>
        <time>2011-04-10T07:10:27Z</time>
      </trkpt>
      <trkpt lat="44.05056" lon="0.52803">
        <ele>131.6</ele>
        <time>2011-04-10T07:10:22Z</time>
      </trkpt>
      <trkpt lat="44.05106" lon="0.52812">
        <ele>135.1</ele>
        <time>2011-04-10T07:10:16Z</time>
      </trkpt>
      <trkpt lat="44.05266" lon="0.52818">
        <ele>152.9</ele>
        <time>2011-04-10T07:09:54Z</time>
      </trkpt>
      <trkpt lat="44.05281" lon="0.52818">
        <ele>153.2</ele>
        <time>2011-04-10T07:09:50Z</time>
      </trkpt>
      <trkpt lat="44.05303" lon="0.52813">
        <ele>153.6</ele>
        <time>2011-04-10T07:09:40Z</time>
      </trkpt>
      <trkpt lat="44.05326" lon="0.52823">
        <ele>152.2</ele>
        <time>2011-04-10T07:09:30Z</time>
      </trkpt>
      <trkpt lat="44.05344" lon="0.52838">
        <ele>151.2</ele>
        <time>2011-04-10T07:09:21Z</time>
      </trkpt>
      <trkpt lat="44.05364" lon="0.52844">
        <ele>148.8</ele>
        <time>2011-04-10T07:09:12Z</time>
      </trkpt>
      <trkpt lat="44.05384" lon="0.52849">
        <ele>146.5</ele>
        <time>2011-04-10T07:08:59Z</time>
      </trkpt>
      <trkpt lat="44.05411" lon="0.52862">
        <ele>144.1</ele>
        <time>2011-04-10T07:08:47Z</time>
      </trkpt>
      <trkpt lat="44.05426" lon="0.52865">
        <ele>143.3</ele>
        <time>2011-04-10T07:08:41Z</time>
      </trkpt>
      <trkpt lat="44.05442" lon="0.52867">
        <ele>142.5</ele>
        <time>2011-04-10T07:08:35Z</time>
      </trkpt>
      <trkpt lat="44.05459" lon="0.52867">
        <ele>141.8</ele>
        <time>2011-04-10T07:08:29Z</time>
      </trkpt>
      <trkpt lat="44.05473" lon="0.52866">
        <ele>140.8</ele>
        <time>2011-04-10T07:08:24Z</time>
      </trkpt>
      <trkpt lat="44.05536" lon="0.52851">
        <ele>138.9</ele>
        <time>2011-04-10T07:08:04Z</time>
      </trkpt>
      <trkpt lat="44.05575" lon="0.52827">
        <ele>136.7</ele>
        <time>2011-04-10T07:07:47Z</time>
      </trkpt>
      <trkpt lat="44.05587" lon="0.52816">
        <ele>134.8</ele>
        <time>2011-04-10T07:07:43Z</time>
      </trkpt>
      <trkpt lat="44.05618" lon="0.52804">
        <ele>133.5</ele>
        <time>2011-04-10T07:07:35Z</time>
      </trkpt>
      <trkpt lat="44.05651" lon="0.52781">
        <ele>130.9</ele>
        <time>2011-04-10T07:07:29Z</time>
      </trkpt>
      <trkpt lat="44.05706" lon="0.52777">
        <ele>127.8</ele>
        <time>2011-04-10T07:07:25Z</time>
      </trkpt>
      <trkpt lat="44.05769" lon="0.52775">
        <ele>131.6</ele>
        <time>2011-04-10T07:07:21Z</time>
      </trkpt>
      <trkpt lat="44.05831" lon="0.528">
        <ele>142.4</ele>
        <time>2011-04-10T07:07:15Z</time>
      </trkpt>
      <trkpt lat="44.05916" lon="0.52847">
        <ele>149</ele>
        <time>2011-04-10T07:07:07Z</time>
      </trkpt>
      <trkpt lat="44.06057" lon="0.52877">
        <ele>162.6</ele>
        <time>2011-04-10T07:06:53Z</time>
      </trkpt>
      <trkpt lat="44.06143" lon="0.52901">
        <ele>163.9</ele>
        <time>2011-04-10T07:06:35Z</time>
      </trkpt>
      <trkpt lat="44.06159" lon="0.52904">
        <ele>163.2</ele>
        <time>2011-04-10T07:06:31Z</time>
      </trkpt>
      <trkpt lat="44.06174" lon="0.52905">
        <ele>163</ele>
        <time>2011-04-10T07:06:27Z</time>
      </trkpt>
      <trkpt lat="44.06184" lon="0.52888">
        <ele>163</ele>
        <time>2011-04-10T07:06:19Z</time>
      </trkpt>
      <trkpt lat="44.0618" lon="0.52868">
        <ele>162.2</ele>
        <time>2011-04-10T07:06:14Z</time>
      </trkpt>
      <trkpt lat="44.06173" lon="0.5285">
        <ele>161.7</ele>
        <time>2011-04-10T07:06:09Z</time>
      </trkpt>
      <trkpt lat="44.06181" lon="0.52806">
        <ele>160.5</ele>
        <time>2011-04-10T07:06:01Z</time>
      </trkpt>
      <trkpt lat="44.062" lon="0.52772">
        <ele>159.4</ele>
        <time>2011-04-10T07:05:55Z</time>
      </trkpt>
      <trkpt lat="44.06331" lon="0.5261">
        <ele>156.9</ele>
        <time>2011-04-10T07:05:26Z</time>
      </trkpt>
      <trkpt lat="44.06355" lon="0.52572">
        <ele>155.6</ele>
        <time>2011-04-10T07:05:20Z</time>
      </trkpt>
      <trkpt lat="44.06365" lon="0.52555">
        <ele>155.6</ele>
        <time>2011-04-10T07:05:16Z</time>
      </trkpt>
      <trkpt lat="44.06372" lon="0.52534">
        <ele>155.5</ele>
        <time>2011-04-10T07:05:11Z</time>
      </trkpt>
      <trkpt lat="44.06376" lon="0.52512">
        <ele>155.5</ele>
        <time>2011-04-10T07:05:06Z</time>
      </trkpt>
      <trkpt lat="44.06413" lon="0.52414">
        <ele>153.7</ele>
        <time>2011-04-10T07:04:46Z</time>
      </trkpt>
      <trkpt lat="44.06435" lon="0.52357">
        <ele>152.1</ele>
        <time>2011-04-10T07:04:36Z</time>
      </trkpt>
      <trkpt lat="44.06468" lon="0.52284">
        <ele>150</ele>
        <time>2011-04-10T07:04:24Z</time>
      </trkpt>
      <trkpt lat="44.0649" lon="0.52244">
        <ele>148.7</ele>
        <time>2011-04-10T07:04:18Z</time>
      </trkpt>
      <trkpt lat="44.06541" lon="0.52175">
        <ele>147.3</ele>
        <time>2011-04-10T07:04:07Z</time>
      </trkpt>
      <trkpt lat="44.06559" lon="0.52138">
        <ele>147.1</ele>
        <time>2011-04-10T07:04:01Z</time>
      </trkpt>
      <trkpt lat="44.06574" lon="0.52107">
        <ele>147</ele>
        <time>2011-04-10T07:03:53Z</time>
      </trkpt>
      <trkpt lat="44.06585" lon="0.5208">
        <ele>147.1</ele>
        <time>2011-04-10T07:03:46Z</time>
      </trkpt>
      <trkpt lat="44.06606" lon="0.5205">
        <ele>147.2</ele>
        <time>2011-04-10T07:03:37Z</time>
      </trkpt>
      <trkpt lat="44.06623" lon="0.52051">
        <ele>147.2</ele>
        <time>2011-04-10T07:03:26Z</time>
      </trkpt>
      <trkpt lat="44.06663" lon="0.52083">
        <ele>141.4</ele>
        <time>2011-04-10T07:02:58Z</time>
      </trkpt>
      <trkpt lat="44.06678" lon="0.52092">
        <ele>139.5</ele>
        <time>2011-04-10T07:02:49Z</time>
      </trkpt>
      <trkpt lat="44.06707" lon="0.52109">
        <ele>135</ele>
        <time>2011-04-10T07:02:24Z</time>
      </trkpt>
      <trkpt lat="44.0675" lon="0.5214">
        <ele>129.1</ele>
        <time>2011-04-10T07:01:55Z</time>
      </trkpt>
      <trkpt lat="44.06772" lon="0.52163">
        <ele>124.7</ele>
        <time>2011-04-10T07:01:35Z</time>
      </trkpt>
      <trkpt lat="44.06784" lon="0.52174">
        <ele>121.7</ele>
        <time>2011-04-10T07:01:28Z</time>
      </trkpt>
      <trkpt lat="44.06805" lon="0.5218">
        <ele>119.1</ele>
        <time>2011-04-10T07:01:20Z</time>
      </trkpt>
      <trkpt lat="44.06848" lon="0.52186">
        <ele>114.3</ele>
        <time>2011-04-10T07:01:00Z</time>
      </trkpt>
      <trkpt lat="44.06885" lon="0.52193">
        <ele>113</ele>
        <time>2011-04-10T07:00:44Z</time>
      </trkpt>
      <trkpt lat="44.06933" lon="0.5221">
        <ele>109</ele>
        <time>2011-04-10T07:00:22Z</time>
      </trkpt>
      <trkpt lat="44.06962" lon="0.52211">
        <ele>105.4</ele>
        <time>2011-04-10T07:00:05Z</time>
      </trkpt>
      <trkpt lat="44.06985" lon="0.52215">
        <ele>104.2</ele>
        <time>2011-04-10T06:59:57Z</time>
      </trkpt>
      <trkpt lat="44.07002" lon="0.52214">
        <ele>104</ele>
        <time>2011-04-10T06:59:50Z</time>
      </trkpt>
      <trkpt lat="44.0703" lon="0.52209">
        <ele>104.4</ele>
        <time>2011-04-10T06:59:36Z</time>
      </trkpt>
      <trkpt lat="44.07058" lon="0.52211">
        <ele>102.9</ele>
        <time>2011-04-10T06:59:10Z</time>
      </trkpt>
      <trkpt lat="44.07085" lon="0.52217">
        <ele>103.1</ele>
        <time>2011-04-10T06:58:45Z</time>
      </trkpt>
      <trkpt lat="44.07112" lon="0.52225">
        <ele>104</ele>
        <time>2011-04-10T06:58:23Z</time>
      </trkpt>
      <trkpt lat="44.07125" lon="0.52236">
        <ele>104</ele>
        <time>2011-04-10T06:58:19Z</time>
      </trkpt>
      <trkpt lat="44.07154" lon="0.52229">
        <ele>103.1</ele>
        <time>2011-04-10T06:58:11Z</time>
      </trkpt>
      <trkpt lat="44.07218" lon="0.52161">
        <ele>99.4</ele>
        <time>2011-04-10T06:57:53Z</time>
      </trkpt>
      <trkpt lat="44.07233" lon="0.52153">
        <ele>100.3</ele>
        <time>2011-04-10T06:57:49Z</time>
      </trkpt>
      <trkpt lat="44.07262" lon="0.52174">
        <ele>104.4</ele>
        <time>2011-04-10T06:57:43Z</time>
      </trkpt>
      <trkpt lat="44.07295" lon="0.52169">
        <ele>105.7</ele>
        <time>2011-04-10T06:57:35Z</time>
      </trkpt>
      <trkpt lat="44.07325" lon="0.52097">
        <ele>105.6</ele>
        <time>2011-04-10T06:57:23Z</time>
      </trkpt>
      <trkpt lat="44.0735" lon="0.52063">
        <ele>106.6</ele>
        <time>2011-04-10T06:57:17Z</time>
      </trkpt>
      <trkpt lat="44.07382" lon="0.52043">
        <ele>108.9</ele>
        <time>2011-04-10T06:57:11Z</time>
      </trkpt>
      <trkpt lat="44.07424" lon="0.52061">
        <ele>113.9</ele>
        <time>2011-04-10T06:57:04Z</time>
      </trkpt>
      <trkpt lat="44.07454" lon="0.52081">
        <ele>117</ele>
        <time>2011-04-10T06:56:59Z</time>
      </trkpt>
      <trkpt lat="44.07471" lon="0.52096">
        <ele>117.3</ele>
        <time>2011-04-10T06:56:54Z</time>
      </trkpt>
      <trkpt lat="44.07477" lon="0.52115">
        <ele>117.5</ele>
        <time>2011-04-10T06:56:50Z</time>
      </trkpt>
      <trkpt lat="44.07495" lon="0.52142">
        <ele>121</ele>
        <time>2011-04-10T06:56:45Z</time>
      </trkpt>
      <trkpt lat="44.07513" lon="0.52177">
        <ele>123</ele>
        <time>2011-04-10T06:56:41Z</time>
      </trkpt>
      <trkpt lat="44.07497" lon="0.52245">
        <ele>123.3</ele>
        <time>2011-04-10T06:56:35Z</time>
      </trkpt>
      <trkpt lat="44.07482" lon="0.52316">
        <ele>126</ele>
        <time>2011-04-10T06:56:29Z</time>
      </trkpt>
      <trkpt lat="44.07477" lon="0.52379">
        <ele>129.6</ele>
        <time>2011-04-10T06:56:23Z</time>
      </trkpt>
      <trkpt lat="44.07479" lon="0.52422">
        <ele>133.2</ele>
        <time>2011-04-10T06:56:19Z</time>
      </trkpt>
      <trkpt lat="44.07485" lon="0.52478">
        <ele>137.1</ele>
        <time>2011-04-10T06:56:13Z</time>
      </trkpt>
      <trkpt lat="44.07492" lon="0.52526">
        <ele>138.3</ele>
        <time>2011-04-10T06:56:08Z</time>
      </trkpt>
      <trkpt lat="44.07505" lon="0.52632">
        <ele>139.2</ele>
        <time>2011-04-10T06:55:58Z</time>
      </trkpt>
      <trkpt lat="44.07509" lon="0.52684">
        <ele>140</ele>
        <time>2011-04-10T06:55:53Z</time>
      </trkpt>
      <trkpt lat="44.07525" lon="0.52768">
        <ele>139.2</ele>
        <time>2011-04-10T06:55:47Z</time>
      </trkpt>
      <trkpt lat="44.07547" lon="0.52866">
        <ele>142.8</ele>
        <time>2011-04-10T06:55:41Z</time>
      </trkpt>
      <trkpt lat="44.07575" lon="0.52969">
        <ele>151.2</ele>
        <time>2011-04-10T06:55:35Z</time>
      </trkpt>
      <trkpt lat="44.07597" lon="0.53057">
        <ele>159.9</ele>
        <time>2011-04-10T06:55:29Z</time>
      </trkpt>
      <trkpt lat="44.07591" lon="0.5313">
        <ele>165</ele>
        <time>2011-04-10T06:55:23Z</time>
      </trkpt>
      <trkpt lat="44.07577" lon="0.53193">
        <ele>169.5</ele>
        <time>2011-04-10T06:55:17Z</time>
      </trkpt>
      <trkpt lat="44.07555" lon="0.53328">
        <ele>172.6</ele>
        <time>2011-04-10T06:55:02Z</time>
      </trkpt>
      <trkpt lat="44.07549" lon="0.53423">
        <ele>174</ele>
        <time>2011-04-10T06:54:50Z</time>
      </trkpt>
      <trkpt lat="44.07544" lon="0.53466">
        <ele>174.3</ele>
        <time>2011-04-10T06:54:45Z</time>
      </trkpt>
      <trkpt lat="44.07532" lon="0.53531">
        <ele>174.9</ele>
        <time>2011-04-10T06:54:38Z</time>
      </trkpt>
      <trkpt lat="44.07518" lon="0.53642">
        <ele>176.7</ele>
        <time>2011-04-10T06:54:26Z</time>
      </trkpt>
      <trkpt lat="44.07509" lon="0.53694">
        <ele>177.8</ele>
        <time>2011-04-10T06:54:20Z</time>
      </trkpt>
      <trkpt lat="44.07493" lon="0.53743">
        <ele>179</ele>
        <time>2011-04-10T06:54:14Z</time>
      </trkpt>
      <trkpt lat="44.07472" lon="0.53785">
        <ele>180</ele>
        <time>2011-04-10T06:54:08Z</time>
      </trkpt>
      <trkpt lat="44.07447" lon="0.53825">
        <ele>180.7</ele>
        <time>2011-04-10T06:54:02Z</time>
      </trkpt>
      <trkpt lat="44.07429" lon="0.53873">
        <ele>181.2</ele>
        <time>2011-04-10T06:53:56Z</time>
      </trkpt>
      <trkpt lat="44.07403" lon="0.53963">
        <ele>182</ele>
        <time>2011-04-10T06:53:44Z</time>
      </trkpt>
      <trkpt lat="44.07375" lon="0.54049">
        <ele>182.4</ele>
        <time>2011-04-10T06:53:32Z</time>
      </trkpt>
      <trkpt lat="44.07367" lon="0.54096">
        <ele>182.5</ele>
        <time>2011-04-10T06:53:26Z</time>
      </trkpt>
      <trkpt lat="44.07365" lon="0.54176">
        <ele>182</ele>
        <time>2011-04-10T06:53:12Z</time>
      </trkpt>
      <trkpt lat="44.07368" lon="0.54199">
        <ele>181.7</ele>
        <time>2011-04-10T06:53:06Z</time>
      </trkpt>
      <trkpt lat="44.0737" lon="0.54233">
        <ele>181</ele>
        <time>2011-04-10T06:52:56Z</time>
      </trkpt>
      <trkpt lat="44.07371" lon="0.54274">
        <ele>179.9</ele>
        <time>2011-04-10T06:52:41Z</time>
      </trkpt>
      <trkpt lat="44.07376" lon="0.54304">
        <ele>178.8</ele>
        <time>2011-04-10T06:52:31Z</time>
      </trkpt>
      <trkpt lat="44.07378" lon="0.54325">
        <ele>178.1</ele>
        <time>2011-04-10T06:52:26Z</time>
      </trkpt>
      <trkpt lat="44.0738" lon="0.54404">
        <ele>176.2</ele>
        <time>2011-04-10T06:52:09Z</time>
      </trkpt>
      <trkpt lat="44.07376" lon="0.54447">
        <ele>175.6</ele>
        <time>2011-04-10T06:52:01Z</time>
      </trkpt>
      <trkpt lat="44.07369" lon="0.54485">
        <ele>175.2</ele>
        <time>2011-04-10T06:51:55Z</time>
      </trkpt>
      <trkpt lat="44.07368" lon="0.54505">
        <ele>175</ele>
        <time>2011-04-10T06:51:51Z</time>
      </trkpt>
      <trkpt lat="44.07372" lon="0.54611">
        <ele>171.2</ele>
        <time>2011-04-10T06:51:28Z</time>
      </trkpt>
      <trkpt lat="44.07379" lon="0.5467">
        <ele>169.5</ele>
        <time>2011-04-10T06:51:07Z</time>
      </trkpt>
      <trkpt lat="44.0738" lon="0.5469">
        <ele>168.5</ele>
        <time>2011-04-10T06:51:03Z</time>
      </trkpt>
      <trkpt lat="44.07376" lon="0.54761">
        <ele>160.4</ele>
        <time>2011-04-10T06:50:40Z</time>
      </trkpt>
      <trkpt lat="44.07369" lon="0.54908">
        <ele>150.3</ele>
        <time>2011-04-10T06:49:44Z</time>
      </trkpt>
      <trkpt lat="44.07379" lon="0.54996">
        <ele>144.6</ele>
        <time>2011-04-10T06:49:31Z</time>
      </trkpt>
      <trkpt lat="44.07385" lon="0.5504">
        <ele>144.9</ele>
        <time>2011-04-10T06:49:25Z</time>
      </trkpt>
      <trkpt lat="44.07412" lon="0.55128">
        <ele>149.5</ele>
        <time>2011-04-10T06:49:13Z</time>
      </trkpt>
      <trkpt lat="44.07432" lon="0.55225">
        <ele>151.5</ele>
        <time>2011-04-10T06:49:01Z</time>
      </trkpt>
      <trkpt lat="44.0746" lon="0.55323">
        <ele>151.9</ele>
        <time>2011-04-10T06:48:49Z</time>
      </trkpt>
      <trkpt lat="44.07499" lon="0.55479">
        <ele>158</ele>
        <time>2011-04-10T06:48:33Z</time>
      </trkpt>
      <trkpt lat="44.07502" lon="0.55517">
        <ele>157.3</ele>
        <time>2011-04-10T06:48:19Z</time>
      </trkpt>
      <trkpt lat="44.07507" lon="0.55559">
        <ele>157.1</ele>
        <time>2011-04-10T06:48:02Z</time>
      </trkpt>
      <trkpt lat="44.07514" lon="0.55598">
        <ele>154.3</ele>
        <time>2011-04-10T06:47:53Z</time>
      </trkpt>
      <trkpt lat="44.07517" lon="0.55639">
        <ele>152.7</ele>
        <time>2011-04-10T06:47:44Z</time>
      </trkpt>
      <trkpt lat="44.07486" lon="0.55713">
        <ele>146.2</ele>
        <time>2011-04-10T06:47:31Z</time>
      </trkpt>
      <trkpt lat="44.07478" lon="0.55757">
        <ele>145</ele>
        <time>2011-04-10T06:47:26Z</time>
      </trkpt>
      <trkpt lat="44.07479" lon="0.55825">
        <ele>148.3</ele>
        <time>2011-04-10T06:47:20Z</time>
      </trkpt>
      <trkpt lat="44.07486" lon="0.55895">
        <ele>149.2</ele>
        <time>2011-04-10T06:47:14Z</time>
      </trkpt>
      <trkpt lat="44.07498" lon="0.55967">
        <ele>152</ele>
        <time>2011-04-10T06:47:08Z</time>
      </trkpt>
      <trkpt lat="44.07524" lon="0.56094">
        <ele>156.1</ele>
        <time>2011-04-10T06:46:58Z</time>
      </trkpt>
      <trkpt lat="44.07545" lon="0.56167">
        <ele>160.3</ele>
        <time>2011-04-10T06:46:52Z</time>
      </trkpt>
      <trkpt lat="44.0759" lon="0.56306">
        <ele>169.1</ele>
        <time>2011-04-10T06:46:42Z</time>
      </trkpt>
      <trkpt lat="44.07606" lon="0.56366">
        <ele>176.8</ele>
        <time>2011-04-10T06:46:38Z</time>
      </trkpt>
      <trkpt lat="44.07628" lon="0.56472">
        <ele>187.7</ele>
        <time>2011-04-10T06:46:27Z</time>
      </trkpt>
      <trkpt lat="44.07623" lon="0.56499">
        <ele>187</ele>
        <time>2011-04-10T06:46:22Z</time>
      </trkpt>
      <trkpt lat="44.07615" lon="0.56513">
        <ele>186.2</ele>
        <time>2011-04-10T06:46:18Z</time>
      </trkpt>
      <trkpt lat="44.07603" lon="0.56526">
        <ele>185.5</ele>
        <time>2011-04-10T06:46:13Z</time>
      </trkpt>
      <trkpt lat="44.07587" lon="0.56529">
        <ele>185</ele>
        <time>2011-04-10T06:46:08Z</time>
      </trkpt>
      <trkpt lat="44.07522" lon="0.56534">
        <ele>183.4</ele>
        <time>2011-04-10T06:45:50Z</time>
      </trkpt>
      <trkpt lat="44.07448" lon="0.56529">
        <ele>180.5</ele>
        <time>2011-04-10T06:45:29Z</time>
      </trkpt>
      <trkpt lat="44.074" lon="0.56528">
        <ele>178.6</ele>
        <time>2011-04-10T06:45:17Z</time>
      </trkpt>
      <trkpt lat="44.07378" lon="0.56531">
        <ele>177.9</ele>
        <time>2011-04-10T06:45:12Z</time>
      </trkpt>
      <trkpt lat="44.07366" lon="0.56541">
        <ele>176.6</ele>
        <time>2011-04-10T06:45:06Z</time>
      </trkpt>
      <trkpt lat="44.07365" lon="0.56561">
        <ele>176.3</ele>
        <time>2011-04-10T06:44:59Z</time>
      </trkpt>
      <trkpt lat="44.07369" lon="0.56584">
        <ele>176</ele>
        <time>2011-04-10T06:44:48Z</time>
      </trkpt>
      <trkpt lat="44.07373" lon="0.56623">
        <ele>175.2</ele>
        <time>2011-04-10T06:44:37Z</time>
      </trkpt>
      <trkpt lat="44.07375" lon="0.56644">
        <ele>174.8</ele>
        <time>2011-04-10T06:44:32Z</time>
      </trkpt>
      <trkpt lat="44.07379" lon="0.56667">
        <ele>174.3</ele>
        <time>2011-04-10T06:44:26Z</time>
      </trkpt>
      <trkpt lat="44.07384" lon="0.56686">
        <ele>173.7</ele>
        <time>2011-04-10T06:44:21Z</time>
      </trkpt>
      <trkpt lat="44.0743" lon="0.56787">
        <ele>170</ele>
        <time>2011-04-10T06:43:54Z</time>
      </trkpt>
      <trkpt lat="44.07457" lon="0.56878">
        <ele>166.8</ele>
        <time>2011-04-10T06:43:26Z</time>
      </trkpt>
      <trkpt lat="44.07464" lon="0.56897">
        <ele>165.9</ele>
        <time>2011-04-10T06:43:21Z</time>
      </trkpt>
      <trkpt lat="44.07485" lon="0.5692">
        <ele>164.6</ele>
        <time>2011-04-10T06:43:01Z</time>
      </trkpt>
      <trkpt lat="44.07492" lon="0.56957">
        <ele>160.5</ele>
        <time>2011-04-10T06:42:36Z</time>
      </trkpt>
      <trkpt lat="44.07495" lon="0.56994">
        <ele>156.5</ele>
        <time>2011-04-10T06:42:18Z</time>
      </trkpt>
      <trkpt lat="44.07498" lon="0.57034">
        <ele>155.7</ele>
        <time>2011-04-10T06:42:04Z</time>
      </trkpt>
      <trkpt lat="44.07509" lon="0.57141">
        <ele>145.5</ele>
        <time>2011-04-10T06:41:07Z</time>
      </trkpt>
      <trkpt lat="44.07511" lon="0.57179">
        <ele>143</ele>
        <time>2011-04-10T06:40:52Z</time>
      </trkpt>
      <trkpt lat="44.07522" lon="0.57254">
        <ele>140.1</ele>
        <time>2011-04-10T06:40:22Z</time>
      </trkpt>
      <trkpt lat="44.07531" lon="0.5729">
        <ele>138.6</ele>
        <time>2011-04-10T06:40:09Z</time>
      </trkpt>
      <trkpt lat="44.07544" lon="0.57328">
        <ele>135.8</ele>
        <time>2011-04-10T06:39:54Z</time>
      </trkpt>
      <trkpt lat="44.07568" lon="0.574">
        <ele>131.5</ele>
        <time>2011-04-10T06:39:24Z</time>
      </trkpt>
      <trkpt lat="44.07594" lon="0.57516">
        <ele>122.7</ele>
        <time>2011-04-10T06:38:49Z</time>
      </trkpt>
      <trkpt lat="44.07607" lon="0.57554">
        <ele>119.8</ele>
        <time>2011-04-10T06:38:40Z</time>
      </trkpt>
      <trkpt lat="44.07617" lon="0.576">
        <ele>119.3</ele>
        <time>2011-04-10T06:38:28Z</time>
      </trkpt>
      <trkpt lat="44.07617" lon="0.57652">
        <ele>120.8</ele>
        <time>2011-04-10T06:38:22Z</time>
      </trkpt>
      <trkpt lat="44.07622" lon="0.5769">
        <ele>120.5</ele>
        <time>2011-04-10T06:38:18Z</time>
      </trkpt>
      <trkpt lat="44.07648" lon="0.57823">
        <ele>126</ele>
        <time>2011-04-10T06:38:01Z</time>
      </trkpt>
      <trkpt lat="44.07675" lon="0.5806">
        <ele>132.2</ele>
        <time>2011-04-10T06:37:26Z</time>
      </trkpt>
      <trkpt lat="44.07673" lon="0.58105">
        <ele>132.4</ele>
        <time>2011-04-10T06:37:19Z</time>
      </trkpt>
      <trkpt lat="44.07657" lon="0.58182">
        <ele>132.4</ele>
        <time>2011-04-10T06:37:05Z</time>
      </trkpt>
      <trkpt lat="44.07644" lon="0.58261">
        <ele>131.7</ele>
        <time>2011-04-10T06:36:45Z</time>
      </trkpt>
      <trkpt lat="44.07634" lon="0.58298">
        <ele>132.1</ele>
        <time>2011-04-10T06:36:28Z</time>
      </trkpt>
      <trkpt lat="44.07619" lon="0.58331">
        <ele>130.5</ele>
        <time>2011-04-10T06:36:16Z</time>
      </trkpt>
      <trkpt lat="44.07602" lon="0.58362">
        <ele>129.1</ele>
        <time>2011-04-10T06:36:03Z</time>
      </trkpt>
      <trkpt lat="44.07574" lon="0.58432">
        <ele>126.5</ele>
        <time>2011-04-10T06:35:34Z</time>
      </trkpt>
      <trkpt lat="44.07567" lon="0.58469">
        <ele>123.7</ele>
        <time>2011-04-10T06:35:19Z</time>
      </trkpt>
      <trkpt lat="44.07556" lon="0.58506">
        <ele>120.7</ele>
        <time>2011-04-10T06:35:02Z</time>
      </trkpt>
      <trkpt lat="44.07498" lon="0.58616">
        <ele>115.4</ele>
        <time>2011-04-10T06:34:41Z</time>
      </trkpt>
      <trkpt lat="44.0746" lon="0.58948">
        <ele>136.3</ele>
        <time>2011-04-10T06:34:17Z</time>
      </trkpt>
      <trkpt lat="44.07462" lon="0.58994">
        <ele>141.2</ele>
        <time>2011-04-10T06:34:13Z</time>
      </trkpt>
      <trkpt lat="44.07467" lon="0.59049">
        <ele>147.5</ele>
        <time>2011-04-10T06:34:08Z</time>
      </trkpt>
      <trkpt lat="44.07431" lon="0.59131">
        <ele>146.1</ele>
        <time>2011-04-10T06:33:56Z</time>
      </trkpt>
      <trkpt lat="44.07412" lon="0.5918">
        <ele>147</ele>
        <time>2011-04-10T06:33:49Z</time>
      </trkpt>
      <trkpt lat="44.0738" lon="0.59267">
        <ele>144.9</ele>
        <time>2011-04-10T06:33:38Z</time>
      </trkpt>
      <trkpt lat="44.07366" lon="0.593">
        <ele>144.5</ele>
        <time>2011-04-10T06:33:28Z</time>
      </trkpt>
      <trkpt lat="44.07351" lon="0.59319">
        <ele>141</ele>
        <time>2011-04-10T06:33:18Z</time>
      </trkpt>
      <trkpt lat="44.07324" lon="0.59305">
        <ele>135.9</ele>
        <time>2011-04-10T06:33:02Z</time>
      </trkpt>
      <trkpt lat="44.07283" lon="0.59253">
        <ele>129.1</ele>
        <time>2011-04-10T06:32:38Z</time>
      </trkpt>
      <trkpt lat="44.07251" lon="0.59219">
        <ele>125.1</ele>
        <time>2011-04-10T06:32:17Z</time>
      </trkpt>
      <trkpt lat="44.07202" lon="0.59176">
        <ele>119</ele>
        <time>2011-04-10T06:31:57Z</time>
      </trkpt>
      <trkpt lat="44.07141" lon="0.59113">
        <ele>113</ele>
        <time>2011-04-10T06:31:34Z</time>
      </trkpt>
      <trkpt lat="44.07098" lon="0.59062">
        <ele>108.3</ele>
        <time>2011-04-10T06:31:26Z</time>
      </trkpt>
      <trkpt lat="44.07057" lon="0.59004">
        <ele>103.5</ele>
        <time>2011-04-10T06:31:19Z</time>
      </trkpt>
      <trkpt lat="44.07013" lon="0.58935">
        <ele>102.7</ele>
        <time>2011-04-10T06:31:13Z</time>
      </trkpt>
      <trkpt lat="44.06949" lon="0.58884">
        <ele>107.4</ele>
        <time>2011-04-10T06:31:03Z</time>
      </trkpt>
      <trkpt lat="44.06903" lon="0.589">
        <ele>109.1</ele>
        <time>2011-04-10T06:30:53Z</time>
      </trkpt>
      <trkpt lat="44.0686" lon="0.58936">
        <ele>112.8</ele>
        <time>2011-04-10T06:30:42Z</time>
      </trkpt>
      <trkpt lat="44.06836" lon="0.5896">
        <ele>111.4</ele>
        <time>2011-04-10T06:30:36Z</time>
      </trkpt>
      <trkpt lat="44.06823" lon="0.58988">
        <ele>110.7</ele>
        <time>2011-04-10T06:30:30Z</time>
      </trkpt>
      <trkpt lat="44.06817" lon="0.59009">
        <ele>110.4</ele>
        <time>2011-04-10T06:30:26Z</time>
      </trkpt>
      <trkpt lat="44.06808" lon="0.59043">
        <ele>110</ele>
        <time>2011-04-10T06:30:20Z</time>
      </trkpt>
      <trkpt lat="44.06797" lon="0.59075">
        <ele>106.9</ele>
      </trkpt>
      <trkpt lat="44.06733" lon="0.59056">
        <ele>111.2</ele>
      </trkpt>
      <trkpt lat="44.0667" lon="0.58956">
        <ele>118.4</ele>
      </trkpt>
      <trkpt lat="44.06608" lon="0.58775">
        <ele>127.2</ele>
      </trkpt>
      <trkpt lat="44.06643" lon="0.58601">
        <ele>138.1</ele>
      </trkpt>
      <trkpt lat="44.06653" lon="0.58472">
        <ele>146</ele>
      </trkpt>
      <trkpt lat="44.06685" lon="0.58414">
        <ele>149.1</ele>
      </trkpt>
      <trkpt lat="44.06719" lon="0.5833">
        <ele>151.9</ele>
      </trkpt>
      <trkpt lat="44.067" lon="0.58207">
        <ele>150.8</ele>
      </trkpt>
      <trkpt lat="44.06694" lon="0.58143">
        <ele>151</ele>
      </trkpt>
      <trkpt lat="44.06666" lon="0.58032">
        <ele>155.7</ele>
      </trkpt>
      <trkpt lat="44.06657" lon="0.57863">
        <ele>158</ele>
      </trkpt>
      <trkpt lat="44.06669" lon="0.57783">
        <ele>160.2</ele>
      </trkpt>
      <trkpt lat="44.06639" lon="0.57468">
        <ele>167</ele>
      </trkpt>
      <trkpt lat="44.06632" lon="0.57298">
        <ele>171.3</ele>
      </trkpt>
      <trkpt lat="44.06622" lon="0.57223">
        <ele>173.7</ele>
      </trkpt>
      <trkpt lat="44.06603" lon="0.57178">
        <ele>175.8</ele>
      </trkpt>
      <trkpt lat="44.06526" lon="0.57092">
        <ele>179.2</ele>
      </trkpt>
      <trkpt lat="44.06498" lon="0.57079">
        <ele>182.3</ele>
      </trkpt>
      <trkpt lat="44.06523" lon="0.56985">
        <ele>183.7</ele>
      </trkpt>
      <trkpt lat="44.06564" lon="0.56872">
        <ele>183.8</ele>
      </trkpt>
      <trkpt lat="44.06505" lon="0.56874">
        <ele>183.1</ele>
      </trkpt>
      <trkpt lat="44.06435" lon="0.56901">
        <ele>179.9</ele>
      </trkpt>
      <trkpt lat="44.06342" lon="0.56919">
        <ele>177</ele>
      </trkpt>
      <trkpt lat="44.05997" lon="0.56644">
        <ele>175.2</ele>
      </trkpt>
      <trkpt lat="44.05898" lon="0.56421">
        <ele>179.3</ele>
      </trkpt>
      <trkpt lat="44.05877" lon="0.56125">
        <ele>180.8</ele>
      </trkpt>
      <trkpt lat="44.05816" lon="0.55859">
        <ele>180.1</ele>
      </trkpt>
      <trkpt lat="44.05946" lon="0.55775">
        <ele>176</ele>
      </trkpt>
      <trkpt lat="44.05964" lon="0.55661">
        <ele>176.2</ele>
      </trkpt>
      <trkpt lat="44.05939" lon="0.55485">
        <ele>180.2</ele>
      </trkpt>
      <trkpt lat="44.05998" lon="0.55331">
        <ele>176.1</ele>
      </trkpt>
      <trkpt lat="44.0599" lon="0.55251">
        <ele>175.4</ele>
      </trkpt>
      <trkpt lat="44.05984" lon="0.54942">
        <ele>174.5</ele>
      </trkpt>
      <trkpt lat="44.05987" lon="0.54816">
        <ele>173.7</ele>
      </trkpt>
      <trkpt lat="44.05987" lon="0.54706">
        <ele>170.8</ele>
      </trkpt>
      <trkpt lat="44.05942" lon="0.54455">
        <ele>169.5</ele>
      </trkpt>
      <trkpt lat="44.05901" lon="0.54331">
        <ele>170.4</ele>
      </trkpt>
      <trkpt lat="44.05909" lon="0.54063">
        <ele>173.9</ele>
      </trkpt>
      <trkpt lat="44.05804" lon="0.53983">
        <ele>172.3</ele>
      </trkpt>
      <trkpt lat="44.0574" lon="0.53805">
        <ele>171</ele>
      </trkpt>
      <trkpt lat="44.05646" lon="0.53668">
        <ele>168</ele>
      </trkpt>
      <trkpt lat="44.05538" lon="0.53488">
        <ele>166.8</ele>
      </trkpt>
      <trkpt lat="44.05483" lon="0.5341">
        <ele>167.6</ele>
      </trkpt>
      <trkpt lat="44.05448" lon="0.53371">
        <ele>168</ele>
      </trkpt>
      <trkpt lat="44.05406" lon="0.53304">
        <ele>165.5</ele>
      </trkpt>
      <trkpt lat="44.0537" lon="0.53198">
        <ele>165</ele>
      </trkpt>
      <trkpt lat="44.05348" lon="0.53073">
        <ele>163.8</ele>
      </trkpt>
      <trkpt lat="44.05316" lon="0.52933">
        <ele>160.6</ele>
      </trkpt>
      <trkpt lat="44.0528" lon="0.52783">
        <ele>157.9</ele>
      </trkpt>
      <trkpt lat="44.05167" lon="0.52361">
        <ele>144</ele>
      </trkpt>
      <trkpt lat="44.05124" lon="0.52164">
        <ele>143.3</ele>
      </trkpt>
      <trkpt lat="44.05111" lon="0.51988">
        <ele>142</ele>
      </trkpt>
      <trkpt lat="44.05235" lon="0.51966">
        <ele>158.9</ele>
      </trkpt>
      <trkpt lat="44.05451" lon="0.51494">
        <ele>164.5</ele>
      </trkpt>
      <trkpt lat="44.05525" lon="0.51314">
        <ele>167</ele>
      </trkpt>
      <trkpt lat="44.05729" lon="0.51138">
        <ele>145.9</ele>
      </trkpt>
      <trkpt lat="44.05698" lon="0.50902">
        <ele>130.8</ele>
      </trkpt>
      <trkpt lat="44.0579" lon="0.50743">
        <ele>118.1</ele>
      </trkpt>
      <trkpt lat="44.05815" lon="0.50623">
        <ele>112.4</ele>
      </trkpt>
      <trkpt lat="44.05793" lon="0.50241">
        <ele>90.6</ele>
      </trkpt>
      <trkpt lat="44.05741" lon="0.50138">
        <ele>92</ele>
      </trkpt>
      <trkpt lat="44.05775" lon="0.49893">
        <ele>95.9</ele>
      </trkpt>
      <trkpt lat="44.0588" lon="0.49653">
        <ele>102.3</ele>
      </trkpt>
      <trkpt lat="44.05985" lon="0.49584">
        <ele>106</ele>
      </trkpt>
      <trkpt lat="44.0617" lon="0.49563">
        <ele>102.6</ele>
      </trkpt>
      <trkpt lat="44.06284" lon="0.49657">
        <ele>94.9</ele>
      </trkpt>
      <trkpt lat="44.06401" lon="0.4964">
        <ele>92.9</ele>
      </trkpt>
      <trkpt lat="44.0645" lon="0.49722">
        <ele>89</ele>
      </trkpt>
      <trkpt lat="44.06558" lon="0.49554">
        <ele>88.9</ele>
      </trkpt>
      <trkpt lat="44.06598" lon="0.49456">
        <ele>88</ele>
      </trkpt>
      <trkpt lat="44.06672" lon="0.49233">
        <ele>95.4</ele>
      </trkpt>
      <trkpt lat="44.0653" lon="0.49095">
        <ele>102.4</ele>
      </trkpt>
      <trkpt lat="44.06352" lon="0.48881">
        <ele>111.3</ele>
      </trkpt>
      <trkpt lat="44.06271" lon="0.48743">
        <ele>114.4</ele>
      </trkpt>
      <trkpt lat="44.06093" lon="0.48688">
        <ele>124.3</ele>
      </trkpt>
      <trkpt lat="44.05932" lon="0.4855">
        <ele>131.6</ele>
      </trkpt>
      <trkpt lat="44.05773" lon="0.48443">
        <ele>130.9</ele>
      </trkpt>
      <trkpt lat="44.05599" lon="0.48331">
        <ele>131.5</ele>
      </trkpt>
      <trkpt lat="44.05463" lon="0.4825">
        <ele>140.3</ele>
      </trkpt>
      <trkpt lat="44.05369" lon="0.48177">
        <ele>135.6</ele>
      </trkpt>
      <trkpt lat="44.05346" lon="0.48185">
        <ele>135.3</ele>
      </trkpt>
      <trkpt lat="44.05275" lon="0.48396">
        <ele>140.9</ele>
      </trkpt>
      <trkpt lat="44.05221" lon="0.48632">
        <ele>133.9</ele>
      </trkpt>
      <trkpt lat="44.05181" lon="0.48844">
        <ele>131.7</ele>
      </trkpt>
      <trkpt lat="44.05191" lon="0.49059">
        <ele>131.8</ele>
      </trkpt>
      <trkpt lat="44.05159" lon="0.49194">
        <ele>132.4</ele>
      </trkpt>
      <trkpt lat="44.05094" lon="0.49572">
        <ele>123.4</ele>
      </trkpt>
      <trkpt lat="44.05045" lon="0.49788">
        <ele>113.9</ele>
      </trkpt>
      <trkpt lat="44.05037" lon="0.49908">
        <ele>108.6</ele>
      </trkpt>
      <trkpt lat="44.05056" lon="0.50026">
        <ele>106.1</ele>
      </trkpt>
      <trkpt lat="44.05054" lon="0.50177">
        <ele>103</ele>
      </trkpt>
      <trkpt lat="44.05036" lon="0.50258">
        <ele>100.6</ele>
      </trkpt>
      <trkpt lat="44.04991" lon="0.50325">
        <ele>97.2</ele>
      </trkpt>
      <trkpt lat="44.04939" lon="0.50293">
        <ele>98.3</ele>
      </trkpt>
      <trkpt lat="44.04885" lon="0.50198">
        <ele>102.9</ele>
      </trkpt>
      <trkpt lat="44.04823" lon="0.50224">
        <ele>105.4</ele>
      </trkpt>
      <trkpt lat="44.04707" lon="0.50222">
        <ele>107</ele>
      </trkpt>
      <trkpt lat="44.04713" lon="0.50361">
        <ele>103</ele>
      </trkpt>
      <trkpt lat="44.04684" lon="0.50441">
        <ele>100.2</ele>
      </trkpt>
      <trkpt lat="44.04629" lon="0.50488">
        <ele>96.6</ele>
      </trkpt>
      <trkpt lat="44.04596" lon="0.50595">
        <ele>96.2</ele>
      </trkpt>
      <trkpt lat="44.04514" lon="0.50805">
        <ele>111</ele>
      </trkpt>
      <trkpt lat="44.04443" lon="0.50941">
        <ele>120</ele>
      </trkpt>
      <trkpt lat="44.04302" lon="0.51149">
        <ele>134.4</ele>
      </trkpt>
      <trkpt lat="44.04229" lon="0.5123">
        <ele>136.5</ele>
      </trkpt>
      <trkpt lat="44.04178" lon="0.51408">
        <ele>138.1</ele>
      </trkpt>
      <trkpt lat="44.04084" lon="0.51623">
        <ele>144.9</ele>
      </trkpt>
      <trkpt lat="44.03965" lon="0.51627">
        <ele>161.2</ele>
      </trkpt>
      <trkpt lat="44.03924" lon="0.51625">
        <ele>166.1</ele>
      </trkpt>
      <trkpt lat="44.03897" lon="0.5158">
        <ele>163.5</ele>
      </trkpt>
      <trkpt lat="44.03796" lon="0.51496">
        <ele>149.4</ele>
      </trkpt>
      <trkpt lat="44.03726" lon="0.51505">
        <ele>148.5</ele>
      </trkpt>
      <trkpt lat="44.03691" lon="0.51496">
        <ele>146.5</ele>
      </trkpt>
      <trkpt lat="44.03674" lon="0.51487">
        <ele>144.8</ele>
      </trkpt>
      <trkpt lat="44.03686" lon="0.51364">
        <ele>135.9</ele>
      </trkpt>
      <trkpt lat="44.03684" lon="0.51342">
        <ele>134.5</ele>
      </trkpt>
      <trkpt lat="44.03672" lon="0.51334">
        <ele>134</ele>
      </trkpt>
      <trkpt lat="44.03566" lon="0.5128">
        <ele>125.5</ele>
      </trkpt>
      <trkpt lat="44.03504" lon="0.51251">
        <ele>127.6</ele>
      </trkpt>
      <trkpt lat="44.03312" lon="0.51157">
        <ele>138.8</ele>
      </trkpt>
      <trkpt lat="44.03205" lon="0.5111">
        <ele>132.3</ele>
      </trkpt>
      <trkpt lat="44.03182" lon="0.5109">
        <ele>129.2</ele>
      </trkpt>
      <trkpt lat="44.03114" lon="0.51051">
        <ele>122.9</ele>
      </trkpt>
      <trkpt lat="44.0308" lon="0.5104">
        <ele>119.7</ele>
      </trkpt>
      <trkpt lat="44.03043" lon="0.51035">
        <ele>118.2</ele>
      </trkpt>
      <trkpt lat="44.03026" lon="0.51032">
        <ele>117.4</ele>
      </trkpt>
      <trkpt lat="44.02987" lon="0.51003">
        <ele>114.8</ele>
      </trkpt>
      <trkpt lat="44.02944" lon="0.5097">
        <ele>111.8</ele>
      </trkpt>
      <trkpt lat="44.02899" lon="0.50948">
        <ele>110</ele>
      </trkpt>
      <trkpt lat="44.02878" lon="0.50945">
        <ele>109.6</ele>
      </trkpt>
      <trkpt lat="44.02832" lon="0.50959">
        <ele>108.5</ele>
      </trkpt>
      <trkpt lat="44.02817" lon="0.5096">
        <ele>108.6</ele>
      </trkpt>
      <trkpt lat="44.02798" lon="0.5096">
        <ele>108.6</ele>
      </trkpt>
      <trkpt lat="44.02707" lon="0.50972">
        <ele>109</ele>
      </trkpt>
      <trkpt lat="44.027" lon="0.50977">
        <ele>109.2</ele>
      </trkpt>
      <trkpt lat="44.02655" lon="0.5098">
        <ele>109.3</ele>
      </trkpt>
      <trkpt lat="44.02616" lon="0.50979">
        <ele>109.2</ele>
      </trkpt>
      <trkpt lat="44.0259" lon="0.50974">
        <ele>109.8</ele>
      </trkpt>
      <trkpt lat="44.02565" lon="0.50966">
        <ele>109.8</ele>
      </trkpt>
      <trkpt lat="44.02502" lon="0.50989">
        <ele>111.5</ele>
      </trkpt>
      <trkpt lat="44.02462" lon="0.50998">
        <ele>112.4</ele>
      </trkpt>
      <trkpt lat="44.02418" lon="0.51">
        <ele>114</ele>
      </trkpt>
      <trkpt lat="44.02357" lon="0.50989">
        <ele>116.6</ele>
      </trkpt>
      <trkpt lat="44.02314" lon="0.5099">
        <ele>116.6</ele>
      </trkpt>
      <trkpt lat="44.02287" lon="0.50994">
        <ele>116.5</ele>
      </trkpt>
      <trkpt lat="44.02218" lon="0.50999">
        <ele>116.9</ele>
      </trkpt>
      <trkpt lat="44.0215" lon="0.50992">
        <ele>117</ele>
      </trkpt>
      <trkpt lat="44.02095" lon="0.50982">
        <ele>118</ele>
      </trkpt>
      <trkpt lat="44.02024" lon="0.50974">
        <ele>117.3</ele>
      </trkpt>
      <trkpt lat="44.01988" lon="0.50971">
        <ele>117.4</ele>
      </trkpt>
      <trkpt lat="44.01972" lon="0.50973">
        <ele>117.1</ele>
      </trkpt>
      <trkpt lat="44.01931" lon="0.50989">
        <ele>118.3</ele>
      </trkpt>
      <trkpt lat="44.0188" lon="0.50999">
        <ele>118.9</ele>
      </trkpt>
      <trkpt lat="44.01864" lon="0.50999">
        <ele>118.9</ele>
      </trkpt>
      <trkpt lat="44.01812" lon="0.50983">
        <ele>119.4</ele>
      </trkpt>
      <trkpt lat="44.01793" lon="0.50983">
        <ele>119.7</ele>
      </trkpt>
      <trkpt lat="44.01754" lon="0.50963">
        <ele>118.6</ele>
      </trkpt>
      <trkpt lat="44.01721" lon="0.50951">
        <ele>117.8</ele>
      </trkpt>
      <trkpt lat="44.0169" lon="0.50947">
        <ele>118.2</ele>
      </trkpt>
      <trkpt lat="44.0168" lon="0.50939">
        <ele>117.6</ele>
      </trkpt>
      <trkpt lat="44.01677" lon="0.50928">
        <ele>116.8</ele>
      </trkpt>
      <trkpt lat="44.01676" lon="0.50884">
        <ele>115.7</ele>
      </trkpt>
      <trkpt lat="44.01669" lon="0.50869">
        <ele>115.9</ele>
      </trkpt>
      <trkpt lat="44.01658" lon="0.50865">
        <ele>116</ele>
      </trkpt>
      <trkpt lat="44.01638" lon="0.50862">
        <ele>116</ele>
      </trkpt>
      <trkpt lat="44.01617" lon="0.50857">
        <ele>116</ele>
      </trkpt>
      <trkpt lat="44.01591" lon="0.50837">
        <ele>116</ele>
      </trkpt>
      <trkpt lat="44.01562" lon="0.50833">
        <ele>116</ele>
      </trkpt>
      <trkpt lat="44.01536" lon="0.50822">
        <ele>116.8</ele>
      </trkpt>
      <trkpt lat="44.0148" lon="0.5079">
        <ele>117</ele>
      </trkpt>
      <trkpt lat="44.01427" lon="0.5081">
        <ele>117.6</ele>
      </trkpt>
      <trkpt lat="44.0138" lon="0.5082">
        <ele>118</ele>
      </trkpt>
      <trkpt lat="44.01335" lon="0.50834">
        <ele>118</ele>
      </trkpt>
      <trkpt lat="44.0131" lon="0.50845">
        <ele>118</ele>
      </trkpt>
      <trkpt lat="44.01293" lon="0.50861">
        <ele>118</ele>
      </trkpt>
      <trkpt lat="44.01273" lon="0.50878">
        <ele>118.1</ele>
      </trkpt>
      <trkpt lat="44.01263" lon="0.50883">
        <ele>118.4</ele>
      </trkpt>
      <trkpt lat="44.01251" lon="0.50882">
        <ele>118.7</ele>
      </trkpt>
      <trkpt lat="44.0124" lon="0.50876">
        <ele>118.7</ele>
      </trkpt>
      <trkpt lat="44.01125" lon="0.50799">
        <ele>119.4</ele>
      </trkpt>
      <trkpt lat="44.01058" lon="0.50742">
        <ele>120</ele>
      </trkpt>
      <trkpt lat="44.00969" lon="0.50681">
        <ele>120.1</ele>
      </trkpt>
      <trkpt lat="44.00929" lon="0.5066">
        <ele>120.9</ele>
      </trkpt>
      <trkpt lat="44.00873" lon="0.50648">
        <ele>121.9</ele>
      </trkpt>
      <trkpt lat="44.00827" lon="0.50648">
        <ele>122.3</ele>
      </trkpt>
      <trkpt lat="44.008" lon="0.50648">
        <ele>122.5</ele>
      </trkpt>
      <trkpt lat="44.00786" lon="0.5065">
        <ele>123.1</ele>
      </trkpt>
      <trkpt lat="44.00765" lon="0.50635">
        <ele>122.9</ele>
      </trkpt>
      <trkpt lat="44.0074" lon="0.50617">
        <ele>123.1</ele>
      </trkpt>
      <trkpt lat="44.00726" lon="0.50615">
        <ele>123.1</ele>
      </trkpt>
      <trkpt lat="44.00676" lon="0.50621">
        <ele>124</ele>
      </trkpt>
      <trkpt lat="44.00645" lon="0.50627">
        <ele>124.6</ele>
      </trkpt>
      <trkpt lat="44.00627" lon="0.50626">
        <ele>124.8</ele>
      </trkpt>
      <trkpt lat="44.00585" lon="0.50622">
        <ele>125.3</ele>
      </trkpt>
      <trkpt lat="44.00456" lon="0.50607">
        <ele>126.8</ele>
      </trkpt>
      <trkpt lat="44.00437" lon="0.50605">
        <ele>127.3</ele>
      </trkpt>
      <trkpt lat="44.00411" lon="0.50603">
        <ele>129</ele>
      </trkpt>
      <trkpt lat="44.00391" lon="0.50612">
        <ele>129.9</ele>
      </trkpt>
      <trkpt lat="44.00368" lon="0.50586">
        <ele>130</ele>
      </trkpt>
      <trkpt lat="44.00346" lon="0.50575">
        <ele>129.9</ele>
      </trkpt>
      <trkpt lat="44.00296" lon="0.50564">
        <ele>130</ele>
      </trkpt>
      <trkpt lat="44.00241" lon="0.50554">
        <ele>130.3</ele>
      </trkpt>
      <trkpt lat="44.00211" lon="0.50549">
        <ele>130.9</ele>
      </trkpt>
      <trkpt lat="44.00024" lon="0.50506">
        <ele>132.6</ele>
      </trkpt>
      <trkpt lat="43.9998" lon="0.50492">
        <ele>133.5</ele>
      </trkpt>
      <trkpt lat="43.99915" lon="0.50459">
        <ele>134</ele>
      </trkpt>
      <trkpt lat="43.99904" lon="0.50459">
        <ele>134.2</ele>
      </trkpt>
      <trkpt lat="43.9985" lon="0.50443">
        <ele>134.4</ele>
      </trkpt>
      <trkpt lat="43.99836" lon="0.50435">
        <ele>134.6</ele>
      </trkpt>
      <trkpt lat="43.99785" lon="0.50396">
        <ele>135.7</ele>
      </trkpt>
      <trkpt lat="43.99774" lon="0.50396">
        <ele>136.1</ele>
      </trkpt>
      <trkpt lat="43.99768" lon="0.5041">
        <ele>136.5</ele>
      </trkpt>
      <trkpt lat="43.99752" lon="0.50452">
        <ele>140.7</ele>
      </trkpt>
      <trkpt lat="43.9974" lon="0.50457">
        <ele>142.1</ele>
      </trkpt>
      <trkpt lat="43.99717" lon="0.50446">
        <ele>142.9</ele>
      </trkpt>
      <trkpt lat="43.99626" lon="0.50382">
        <ele>142.2</ele>
      </trkpt>
      <trkpt lat="43.99589" lon="0.5036">
        <ele>142.5</ele>
      </trkpt>
      <trkpt lat="43.99571" lon="0.50353">
        <ele>142.6</ele>
      </trkpt>
      <trkpt lat="43.99554" lon="0.50351">
        <ele>142.9</ele>
      </trkpt>
      <trkpt lat="43.99486" lon="0.50359">
        <ele>147.3</ele>
      </trkpt>
      <trkpt lat="43.99432" lon="0.50369">
        <ele>146.2</ele>
      </trkpt>
      <trkpt lat="43.99409" lon="0.50361">
        <ele>143.7</ele>
      </trkpt>
      <trkpt lat="43.99389" lon="0.50349">
        <ele>142.6</ele>
      </trkpt>
      <trkpt lat="43.99363" lon="0.50339">
        <ele>142.2</ele>
      </trkpt>
      <trkpt lat="43.99327" lon="0.50327">
        <ele>145.6</ele>
      </trkpt>
      <trkpt lat="43.99263" lon="0.50302">
        <ele>149.6</ele>
      </trkpt>
      <trkpt lat="43.99232" lon="0.50269">
        <ele>147.5</ele>
      </trkpt>
      <trkpt lat="43.99213" lon="0.50246">
        <ele>145.4</ele>
      </trkpt>
      <trkpt lat="43.99177" lon="0.50211">
        <ele>144.8</ele>
      </trkpt>
      <trkpt lat="43.99151" lon="0.50183">
        <ele>144.7</ele>
      </trkpt>
      <trkpt lat="43.99109" lon="0.50146">
        <ele>144.5</ele>
      </trkpt>
      <trkpt lat="43.99086" lon="0.50122">
        <ele>144.9</ele>
      </trkpt>
      <trkpt lat="43.99071" lon="0.50119">
        <ele>145.4</ele>
      </trkpt>
      <trkpt lat="43.99051" lon="0.50117">
        <ele>146.3</ele>
      </trkpt>
      <trkpt lat="43.99027" lon="0.50119">
        <ele>148.1</ele>
      </trkpt>
      <trkpt lat="43.99007" lon="0.50122">
        <ele>150.5</ele>
      </trkpt>
      <trkpt lat="43.98987" lon="0.50122">
        <ele>152.6</ele>
      </trkpt>
      <trkpt lat="43.98949" lon="0.5012">
        <ele>156.7</ele>
      </trkpt>
      <trkpt lat="43.9891" lon="0.50115">
        <ele>162.9</ele>
      </trkpt>
      <trkpt lat="43.98866" lon="0.50111">
        <ele>168.2</ele>
      </trkpt>
      <trkpt lat="43.98818" lon="0.50104">
        <ele>170.9</ele>
      </trkpt>
      <trkpt lat="43.98801" lon="0.50102">
        <ele>171.1</ele>
      </trkpt>
      <trkpt lat="43.9873" lon="0.50121">
        <ele>173.4</ele>
      </trkpt>
      <trkpt lat="43.98686" lon="0.50131">
        <ele>175.8</ele>
      </trkpt>
      <trkpt lat="43.98665" lon="0.50134">
        <ele>176.9</ele>
      </trkpt>
      <trkpt lat="43.98647" lon="0.50133">
        <ele>177.5</ele>
      </trkpt>
      <trkpt lat="43.98634" lon="0.50128">
        <ele>177.8</ele>
      </trkpt>
      <trkpt lat="43.98606" lon="0.50105">
        <ele>179</ele>
      </trkpt>
      <trkpt lat="43.98584" lon="0.50093">
        <ele>179.3</ele>
      </trkpt>
      <trkpt lat="43.98566" lon="0.50093">
        <ele>179.6</ele>
      </trkpt>
      <trkpt lat="43.98543" lon="0.5009">
        <ele>179.5</ele>
      </trkpt>
      <trkpt lat="43.98522" lon="0.50084">
        <ele>179</ele>
      </trkpt>
      <trkpt lat="43.98506" lon="0.50069">
        <ele>178.5</ele>
      </trkpt>
      <trkpt lat="43.98492" lon="0.50054">
        <ele>178.3</ele>
      </trkpt>
      <trkpt lat="43.98473" lon="0.50029">
        <ele>178</ele>
      </trkpt>
      <trkpt lat="43.98457" lon="0.49995">
        <ele>179</ele>
      </trkpt>
      <trkpt lat="43.98444" lon="0.49966">
        <ele>179</ele>
      </trkpt>
      <trkpt lat="43.98434" lon="0.49945">
        <ele>179.8</ele>
      </trkpt>
      <trkpt lat="43.98424" lon="0.49926">
        <ele>180.2</ele>
      </trkpt>
      <trkpt lat="43.98415" lon="0.49913">
        <ele>179.9</ele>
      </trkpt>
      <trkpt lat="43.98399" lon="0.49906">
        <ele>180</ele>
      </trkpt>
      <trkpt lat="43.98372" lon="0.49893">
        <ele>179.9</ele>
      </trkpt>
      <trkpt lat="43.98327" lon="0.49858">
        <ele>179.3</ele>
      </trkpt>
      <trkpt lat="43.98261" lon="0.49804">
        <ele>183.7</ele>
      </trkpt>
    </trkseg>
  </trk>
  <trk>
    <name><![CDATA[Sortie Caussens 2_2]]></name>
    <extensions>
      <line xmlns="http://www.topografix.com/GPX/gpx_style/0/2">
        <color>de12b8</color>
        <width>4</width>
      </line>
    </extensions>
    <trkseg>
      <trkpt lat="43.9476" lon="0.46121">
        <ele>152</ele>
        <time>2018-01-05T08:35:58Z</time>
      </trkpt>
      <trkpt lat="43.94758" lon="0.46119">
        <ele>152.1</ele>
        <time>2018-01-05T08:35:57Z</time>
      </trkpt>
      <trkpt lat="43.94756" lon="0.46116">
        <ele>152.2</ele>
        <time>2018-01-05T08:35:56Z</time>
      </trkpt>
      <trkpt lat="43.94754" lon="0.46114">
        <ele>152.3</ele>
        <time>2018-01-05T08:35:55Z</time>
      </trkpt>
      <trkpt lat="43.94735" lon="0.46111">
        <ele>152.7</ele>
        <time>2018-01-05T08:35:47Z</time>
      </trkpt>
      <trkpt lat="43.94717" lon="0.46095">
        <ele>152.9</ele>
        <time>2018-01-05T08:35:40Z</time>
      </trkpt>
      <trkpt lat="43.947" lon="0.46078">
        <ele>152.8</ele>
        <time>2018-01-05T08:35:33Z</time>
      </trkpt>
      <trkpt lat="43.94698" lon="0.46075">
        <ele>152.8</ele>
        <time>2018-01-05T08:35:32Z</time>
      </trkpt>
      <trkpt lat="43.94696" lon="0.46073">
        <ele>152.8</ele>
        <time>2018-01-05T08:35:31Z</time>
      </trkpt>
      <trkpt lat="43.94693" lon="0.4607">
        <ele>152.8</ele>
        <time>2018-01-05T08:35:30Z</time>
      </trkpt>
      <trkpt lat="43.9469" lon="0.46068">
        <ele>152.8</ele>
        <time>2018-01-05T08:35:29Z</time>
      </trkpt>
      <trkpt lat="43.94687" lon="0.46067">
        <ele>152.8</ele>
        <time>2018-01-05T08:35:28Z</time>
      </trkpt>
      <trkpt lat="43.94684" lon="0.46067">
        <ele>152.7</ele>
        <time>2018-01-05T08:35:27Z</time>
      </trkpt>
      <trkpt lat="43.94674" lon="0.4608">
        <ele>152.5</ele>
        <time>2018-01-05T08:35:22Z</time>
      </trkpt>
      <trkpt lat="43.94668" lon="0.46109">
        <ele>151.7</ele>
        <time>2018-01-05T08:35:14Z</time>
      </trkpt>
      <trkpt lat="43.94665" lon="0.46134">
        <ele>150.8</ele>
        <time>2018-01-05T08:35:07Z</time>
      </trkpt>
      <trkpt lat="43.94665" lon="0.46138">
        <ele>150.7</ele>
        <time>2018-01-05T08:35:06Z</time>
      </trkpt>
      <trkpt lat="43.94663" lon="0.46167">
        <ele>149.3</ele>
        <time>2018-01-05T08:34:58Z</time>
      </trkpt>
      <trkpt lat="43.94661" lon="0.46196">
        <ele>147.7</ele>
        <time>2018-01-05T08:34:50Z</time>
      </trkpt>
      <trkpt lat="43.94659" lon="0.46225">
        <ele>146.3</ele>
        <time>2018-01-05T08:34:41Z</time>
      </trkpt>
      <trkpt lat="43.94655" lon="0.46253">
        <ele>145</ele>
        <time>2018-01-05T08:34:32Z</time>
      </trkpt>
      <trkpt lat="43.94651" lon="0.46279">
        <ele>143.6</ele>
        <time>2018-01-05T08:34:24Z</time>
      </trkpt>
      <trkpt lat="43.94647" lon="0.46307">
        <ele>142.3</ele>
        <time>2018-01-05T08:34:15Z</time>
      </trkpt>
      <trkpt lat="43.94644" lon="0.46332">
        <ele>141.1</ele>
        <time>2018-01-05T08:34:07Z</time>
      </trkpt>
      <trkpt lat="43.94639" lon="0.46355">
        <ele>140</ele>
        <time>2018-01-05T08:33:59Z</time>
      </trkpt>
      <trkpt lat="43.94634" lon="0.4638">
        <ele>139.6</ele>
        <time>2018-01-05T08:33:51Z</time>
      </trkpt>
      <trkpt lat="43.94627" lon="0.46406">
        <ele>139</ele>
        <time>2018-01-05T08:33:42Z</time>
      </trkpt>
      <trkpt lat="43.94622" lon="0.46434">
        <ele>138.4</ele>
        <time>2018-01-05T08:33:33Z</time>
      </trkpt>
      <trkpt lat="43.94622" lon="0.46463">
        <ele>137.6</ele>
        <time>2018-01-05T08:33:24Z</time>
      </trkpt>
      <trkpt lat="43.94629" lon="0.46488">
        <ele>136.9</ele>
        <time>2018-01-05T08:33:16Z</time>
      </trkpt>
      <trkpt lat="43.94637" lon="0.46511">
        <ele>136.5</ele>
        <time>2018-01-05T08:33:08Z</time>
      </trkpt>
      <trkpt lat="43.94645" lon="0.46533">
        <ele>136</ele>
        <time>2018-01-05T08:33:00Z</time>
      </trkpt>
      <trkpt lat="43.94653" lon="0.46555">
        <ele>135.6</ele>
        <time>2018-01-05T08:32:52Z</time>
      </trkpt>
      <trkpt lat="43.94662" lon="0.46578">
        <ele>135.2</ele>
        <time>2018-01-05T08:32:44Z</time>
      </trkpt>
      <trkpt lat="43.94673" lon="0.46601">
        <ele>134.7</ele>
        <time>2018-01-05T08:32:36Z</time>
      </trkpt>
      <trkpt lat="43.94685" lon="0.46621">
        <ele>134.4</ele>
        <time>2018-01-05T08:32:28Z</time>
      </trkpt>
      <trkpt lat="43.94699" lon="0.46639">
        <ele>134</ele>
        <time>2018-01-05T08:32:20Z</time>
      </trkpt>
      <trkpt lat="43.94714" lon="0.46659">
        <ele>132.8</ele>
        <time>2018-01-05T08:32:11Z</time>
      </trkpt>
      <trkpt lat="43.94729" lon="0.46679">
        <ele>131</ele>
        <time>2018-01-05T08:32:02Z</time>
      </trkpt>
      <trkpt lat="43.94741" lon="0.46699">
        <ele>129.7</ele>
        <time>2018-01-05T08:31:53Z</time>
      </trkpt>
      <trkpt lat="43.94756" lon="0.46716">
        <ele>128.1</ele>
        <time>2018-01-05T08:31:44Z</time>
      </trkpt>
      <trkpt lat="43.94769" lon="0.46736">
        <ele>127.4</ele>
        <time>2018-01-05T08:31:35Z</time>
      </trkpt>
      <trkpt lat="43.94781" lon="0.46758">
        <ele>125.9</ele>
        <time>2018-01-05T08:31:27Z</time>
      </trkpt>
      <trkpt lat="43.94795" lon="0.46778">
        <ele>123.9</ele>
        <time>2018-01-05T08:31:19Z</time>
      </trkpt>
      <trkpt lat="43.94808" lon="0.46795">
        <ele>122.4</ele>
        <time>2018-01-05T08:31:11Z</time>
      </trkpt>
      <trkpt lat="43.94821" lon="0.46813">
        <ele>121.1</ele>
        <time>2018-01-05T08:31:03Z</time>
      </trkpt>
      <trkpt lat="43.94831" lon="0.46833">
        <ele>119.4</ele>
        <time>2018-01-05T08:30:55Z</time>
      </trkpt>
      <trkpt lat="43.94839" lon="0.46857">
        <ele>117.8</ele>
        <time>2018-01-05T08:30:47Z</time>
      </trkpt>
      <trkpt lat="43.94845" lon="0.46884">
        <ele>117</ele>
        <time>2018-01-05T08:30:39Z</time>
      </trkpt>
      <trkpt lat="43.94851" lon="0.46909">
        <ele>116.3</ele>
        <time>2018-01-05T08:30:31Z</time>
      </trkpt>
      <trkpt lat="43.94856" lon="0.46937">
        <ele>115.4</ele>
        <time>2018-01-05T08:30:23Z</time>
      </trkpt>
      <trkpt lat="43.94859" lon="0.46966">
        <ele>115.1</ele>
        <time>2018-01-05T08:30:15Z</time>
      </trkpt>
      <trkpt lat="43.94862" lon="0.46993">
        <ele>114.9</ele>
        <time>2018-01-05T08:30:07Z</time>
      </trkpt>
      <trkpt lat="43.94866" lon="0.47021">
        <ele>114.7</ele>
        <time>2018-01-05T08:29:59Z</time>
      </trkpt>
      <trkpt lat="43.94869" lon="0.4705">
        <ele>114.5</ele>
        <time>2018-01-05T08:29:51Z</time>
      </trkpt>
      <trkpt lat="43.94877" lon="0.47075">
        <ele>114.4</ele>
        <time>2018-01-05T08:29:43Z</time>
      </trkpt>
      <trkpt lat="43.94886" lon="0.471">
        <ele>114.3</ele>
        <time>2018-01-05T08:29:36Z</time>
      </trkpt>
      <trkpt lat="43.94895" lon="0.47127">
        <ele>114.1</ele>
        <time>2018-01-05T08:29:28Z</time>
      </trkpt>
      <trkpt lat="43.94909" lon="0.47146">
        <ele>113.9</ele>
        <time>2018-01-05T08:29:21Z</time>
      </trkpt>
      <trkpt lat="43.94909" lon="0.47148">
        <ele>114.098</ele>
        <time>2016-08-11T11:24:09Z</time>
      </trkpt>
      <trkpt lat="43.94921" lon="0.4721">
        <ele>115.017</ele>
        <time>2016-08-11T11:24:09Z</time>
      </trkpt>
      <trkpt lat="43.94808" lon="0.47516">
        <ele>119.008</ele>
        <time>2016-08-11T11:24:09Z</time>
      </trkpt>
      <trkpt lat="43.94863" lon="0.4761">
        <ele>125.092</ele>
        <time>2016-08-11T11:24:09Z</time>
      </trkpt>
      <trkpt lat="43.9488" lon="0.47714">
        <ele>142.095</ele>
        <time>2016-08-11T11:24:09Z</time>
      </trkpt>
      <trkpt lat="43.94875" lon="0.47764">
        <ele>134.024</ele>
        <time>2016-08-11T11:24:09Z</time>
      </trkpt>
      <trkpt lat="43.94824" lon="0.47872">
        <ele>141.062</ele>
        <time>2016-08-11T11:24:09Z</time>
      </trkpt>
      <trkpt lat="43.94942" lon="0.47957">
        <ele>150.049</ele>
        <time>2016-08-11T11:24:09Z</time>
      </trkpt>
      <trkpt lat="43.94941" lon="0.47972">
        <ele>151.075</ele>
        <time>2016-08-11T11:24:09Z</time>
      </trkpt>
      <trkpt lat="43.94904" lon="0.48048">
        <ele>153.028</ele>
        <time>2016-08-11T11:24:09Z</time>
      </trkpt>
      <trkpt lat="43.94839" lon="0.48319">
        <ele>158.016</ele>
        <time>2016-08-11T11:24:09Z</time>
      </trkpt>
      <trkpt lat="43.94821" lon="0.48542">
        <ele>165.085</ele>
        <time>2016-08-11T11:24:09Z</time>
      </trkpt>
      <trkpt lat="43.94723" lon="0.48778">
        <ele>167.089</ele>
        <time>2016-08-11T11:24:09Z</time>
      </trkpt>
      <trkpt lat="43.94702" lon="0.48944">
        <ele>168.017</ele>
        <time>2016-08-11T11:24:09Z</time>
      </trkpt>
      <trkpt lat="43.94828" lon="0.48952">
        <ele>161.008</ele>
        <time>2016-08-11T11:24:09Z</time>
      </trkpt>
      <trkpt lat="43.94868" lon="0.48931">
        <ele>161.079</ele>
        <time>2016-08-11T11:24:09Z</time>
      </trkpt>
      <trkpt lat="43.94892" lon="0.48936">
        <ele>155.012</ele>
        <time>2016-08-11T11:24:09Z</time>
      </trkpt>
      <trkpt lat="43.95041" lon="0.48993">
        <ele>150.021</ele>
        <time>2016-08-11T11:24:09Z</time>
      </trkpt>
      <trkpt lat="43.95112" lon="0.49039">
        <ele>142.049</ele>
        <time>2016-08-11T11:24:09Z</time>
      </trkpt>
      <trkpt lat="43.95399" lon="0.48989">
        <ele>153.066</ele>
        <time>2016-08-11T11:24:09Z</time>
      </trkpt>
      <trkpt lat="43.95617" lon="0.49126">
        <ele>174.012</ele>
        <time>2016-08-11T11:24:09Z</time>
      </trkpt>
      <trkpt lat="43.95919" lon="0.49106">
        <ele>151.045</ele>
        <time>2016-08-11T11:24:09Z</time>
      </trkpt>
      <trkpt lat="43.96007" lon="0.49146">
        <ele>163.043</ele>
        <time>2016-08-11T11:24:09Z</time>
      </trkpt>
      <trkpt lat="43.96095" lon="0.49279">
        <ele>168.081</ele>
        <time>2016-08-11T11:24:09Z</time>
      </trkpt>
      <trkpt lat="43.96129" lon="0.49361">
        <ele>174.061</ele>
        <time>2016-08-11T11:24:09Z</time>
      </trkpt>
      <trkpt lat="43.96268" lon="0.49425">
        <ele>189.017</ele>
        <time>2016-08-11T11:24:09Z</time>
      </trkpt>
      <trkpt lat="43.96285" lon="0.49406">
        <ele>189.008</ele>
        <time>2016-08-11T11:24:09Z</time>
      </trkpt>
      <trkpt lat="43.96303" lon="0.49436">
        <ele>201.039</ele>
        <time>2016-08-11T11:24:09Z</time>
      </trkpt>
      <trkpt lat="43.96419" lon="0.49471">
        <ele>216.062</ele>
        <time>2016-08-11T11:24:09Z</time>
      </trkpt>
      <trkpt lat="43.9638" lon="0.4963">
        <ele>215.081</ele>
        <time>2016-08-11T11:24:09Z</time>
      </trkpt>
      <trkpt lat="43.96275" lon="0.49773">
        <ele>214.089</ele>
        <time>2016-08-11T11:24:09Z</time>
      </trkpt>
      <trkpt lat="43.96183" lon="0.50021">
        <ele>222.046</ele>
        <time>2016-08-11T11:24:09Z</time>
      </trkpt>
      <trkpt lat="43.9608" lon="0.50248">
        <ele>220.092</ele>
        <time>2016-08-11T11:24:09Z</time>
      </trkpt>
      <trkpt lat="43.95945" lon="0.50325">
        <ele>213.015</ele>
        <time>2016-08-11T11:24:09Z</time>
      </trkpt>
      <trkpt lat="43.95872" lon="0.50456">
        <ele>211.083</ele>
        <time>2016-08-11T11:24:09Z</time>
      </trkpt>
      <trkpt lat="43.95747" lon="0.5057">
        <ele>220.098</ele>
        <time>2016-08-11T11:24:09Z</time>
      </trkpt>
      <trkpt lat="43.95538" lon="0.50691">
        <ele>204.015</ele>
        <time>2016-08-11T11:24:09Z</time>
      </trkpt>
      <trkpt lat="43.95402" lon="0.50723">
        <ele>201.026</ele>
        <time>2016-08-11T11:24:09Z</time>
      </trkpt>
      <trkpt lat="43.95335" lon="0.50758">
        <ele>205.008</ele>
        <time>2016-08-11T11:24:09Z</time>
      </trkpt>
      <trkpt lat="43.95254" lon="0.50817">
        <ele>210.07</ele>
        <time>2016-08-11T11:24:09Z</time>
      </trkpt>
      <trkpt lat="43.95163" lon="0.50931">
        <ele>217.053</ele>
        <time>2016-08-11T11:24:09Z</time>
      </trkpt>
      <trkpt lat="43.9504" lon="0.50985">
        <ele>201.042</ele>
        <time>2016-08-11T11:24:09Z</time>
      </trkpt>
      <trkpt lat="43.9495" lon="0.50857">
        <ele>201.09</ele>
        <time>2016-08-11T11:24:09Z</time>
      </trkpt>
      <trkpt lat="43.94925" lon="0.50949">
        <ele>193.027</ele>
        <time>2016-08-11T11:24:09Z</time>
      </trkpt>
      <trkpt lat="43.9489" lon="0.51012">
        <ele>192.083</ele>
        <time>2016-08-11T11:24:09Z</time>
      </trkpt>
      <trkpt lat="43.9483" lon="0.51062">
        <ele>190.016</ele>
        <time>2016-08-11T11:24:09Z</time>
      </trkpt>
      <trkpt lat="43.94752" lon="0.51211">
        <ele>191.094</ele>
        <time>2016-08-11T11:24:09Z</time>
      </trkpt>
      <trkpt lat="43.94839" lon="0.51288">
        <ele>197.043</ele>
        <time>2016-08-11T11:24:09Z</time>
      </trkpt>
      <trkpt lat="43.94885" lon="0.51358">
        <ele>191.064</ele>
        <time>2016-08-11T11:24:09Z</time>
      </trkpt>
      <trkpt lat="43.94901" lon="0.5145">
        <ele>184.01</ele>
        <time>2016-08-11T11:24:09Z</time>
      </trkpt>
      <trkpt lat="43.95002" lon="0.51621">
        <ele>182.008</ele>
        <time>2016-08-11T11:24:09Z</time>
      </trkpt>
      <trkpt lat="43.95012" lon="0.51707">
        <ele>180.015</ele>
        <time>2016-08-11T11:24:09Z</time>
      </trkpt>
      <trkpt lat="43.95096" lon="0.51743">
        <ele>185.098</ele>
        <time>2016-08-11T11:24:09Z</time>
      </trkpt>
      <trkpt lat="43.95169" lon="0.51618">
        <ele>186.087</ele>
        <time>2016-08-11T11:24:09Z</time>
      </trkpt>
      <trkpt lat="43.95347" lon="0.52106">
        <ele>187.085</ele>
        <time>2016-08-11T11:24:09Z</time>
      </trkpt>
      <trkpt lat="43.95544" lon="0.52458">
        <ele>179.032</ele>
        <time>2016-08-11T11:24:09Z</time>
      </trkpt>
      <trkpt lat="43.95618" lon="0.52518">
        <ele>177.028</ele>
        <time>2016-08-11T11:24:09Z</time>
      </trkpt>
      <trkpt lat="43.95722" lon="0.52395">
        <ele>171.011</ele>
        <time>2016-08-11T11:24:09Z</time>
      </trkpt>
      <trkpt lat="43.95709" lon="0.52498">
        <ele>168.049</ele>
        <time>2016-08-11T11:24:09Z</time>
      </trkpt>
      <trkpt lat="43.9568" lon="0.5256">
        <ele>170.091</ele>
        <time>2016-08-11T11:24:09Z</time>
      </trkpt>
      <trkpt lat="43.95743" lon="0.52747">
        <ele>144.081</ele>
        <time>2016-08-11T11:24:09Z</time>
      </trkpt>
      <trkpt lat="43.95744" lon="0.52812">
        <ele>135.019</ele>
        <time>2016-08-11T11:24:09Z</time>
      </trkpt>
      <trkpt lat="43.95799" lon="0.52819">
        <ele>130.008</ele>
        <time>2016-08-11T11:24:09Z</time>
      </trkpt>
      <trkpt lat="43.95818" lon="0.52861">
        <ele>130.09</ele>
        <time>2016-08-11T11:24:09Z</time>
      </trkpt>
      <trkpt lat="43.95845" lon="0.5309">
        <ele>111.073</ele>
        <time>2016-08-11T11:24:09Z</time>
      </trkpt>
      <trkpt lat="43.95882" lon="0.53212">
        <ele>98.082</ele>
        <time>2016-08-11T11:24:09Z</time>
      </trkpt>
      <trkpt lat="43.95963" lon="0.53196">
        <ele>98.03</ele>
        <time>2016-08-11T11:24:09Z</time>
      </trkpt>
      <trkpt lat="43.96012" lon="0.53159">
        <ele>98.027</ele>
        <time>2016-08-11T11:24:09Z</time>
      </trkpt>
      <trkpt lat="43.96073" lon="0.53204">
        <ele>100.023</ele>
        <time>2016-08-11T11:24:09Z</time>
      </trkpt>
      <trkpt lat="43.96184" lon="0.5321">
        <ele>110.086</ele>
        <time>2016-08-11T11:24:09Z</time>
      </trkpt>
      <trkpt lat="43.9626" lon="0.53181">
        <ele>123.064</ele>
        <time>2016-08-11T11:24:09Z</time>
      </trkpt>
      <trkpt lat="43.96339" lon="0.53239">
        <ele>136.064</ele>
        <time>2016-08-11T11:24:09Z</time>
      </trkpt>
      <trkpt lat="43.96457" lon="0.53134">
        <ele>149.006</ele>
        <time>2016-08-11T11:24:09Z</time>
      </trkpt>
      <trkpt lat="43.96489" lon="0.53045">
        <ele>163.016</ele>
        <time>2016-08-11T11:24:09Z</time>
      </trkpt>
      <trkpt lat="43.96536" lon="0.53042">
        <ele>163.008</ele>
        <time>2016-08-11T11:24:09Z</time>
      </trkpt>
      <trkpt lat="43.96578" lon="0.53073">
        <ele>170.027</ele>
        <time>2016-08-11T11:24:09Z</time>
      </trkpt>
      <trkpt lat="43.96635" lon="0.53036">
        <ele>167.05</ele>
        <time>2016-08-11T11:24:09Z</time>
      </trkpt>
      <trkpt lat="43.96699" lon="0.53027">
        <ele>167.069</ele>
        <time>2016-08-11T11:24:09Z</time>
      </trkpt>
      <trkpt lat="43.96729" lon="0.52956">
        <ele>172.017</ele>
        <time>2016-08-11T11:24:09Z</time>
      </trkpt>
      <trkpt lat="43.96915" lon="0.52709">
        <ele>177.044</ele>
        <time>2016-08-11T11:24:09Z</time>
      </trkpt>
      <trkpt lat="43.96971" lon="0.52598">
        <ele>178.02</ele>
        <time>2016-08-11T11:24:09Z</time>
      </trkpt>
      <trkpt lat="43.97107" lon="0.52069">
        <ele>170.093</ele>
        <time>2016-08-11T11:24:09Z</time>
      </trkpt>
      <trkpt lat="43.97185" lon="0.51954">
        <ele>161.091</ele>
        <time>2016-08-11T11:24:09Z</time>
      </trkpt>
      <trkpt lat="43.97277" lon="0.51905">
        <ele>178.024</ele>
        <time>2016-08-11T11:24:09Z</time>
      </trkpt>
      <trkpt lat="43.9734" lon="0.51847">
        <ele>180.004</ele>
        <time>2016-08-11T11:24:09Z</time>
      </trkpt>
      <trkpt lat="43.97463" lon="0.51517">
        <ele>183.014</ele>
        <time>2016-08-11T11:24:09Z</time>
      </trkpt>
      <trkpt lat="43.97652" lon="0.51335">
        <ele>188.008</ele>
        <time>2016-08-11T11:24:09Z</time>
      </trkpt>
      <trkpt lat="43.97692" lon="0.51185">
        <ele>190.063</ele>
        <time>2016-08-11T11:24:09Z</time>
      </trkpt>
      <trkpt lat="43.97792" lon="0.51024">
        <ele>188.016</ele>
        <time>2016-08-11T11:24:09Z</time>
      </trkpt>
      <trkpt lat="43.97834" lon="0.50782">
        <ele>191.095</ele>
        <time>2016-08-11T11:24:09Z</time>
      </trkpt>
      <trkpt lat="43.97889" lon="0.50659">
        <ele>194.043</ele>
        <time>2016-08-11T11:24:09Z</time>
      </trkpt>
      <trkpt lat="43.97941" lon="0.50487">
        <ele>195.06</ele>
        <time>2016-08-11T11:24:09Z</time>
      </trkpt>
      <trkpt lat="43.98065" lon="0.50349">
        <ele>196.076</ele>
        <time>2016-08-11T11:24:09Z</time>
      </trkpt>
      <trkpt lat="43.98099" lon="0.50256">
        <ele>194.059</ele>
        <time>2016-08-11T11:24:09Z</time>
      </trkpt>
      <trkpt lat="43.98086" lon="0.49993">
        <ele>189.067</ele>
        <time>2016-08-11T11:24:09Z</time>
      </trkpt>
      <trkpt lat="43.98131" lon="0.49928">
        <ele>191.063</ele>
        <time>2016-08-11T11:24:09Z</time>
      </trkpt>
      <trkpt lat="43.98147" lon="0.49901">
        <ele>187</ele>
      </trkpt>
      <trkpt lat="43.98172" lon="0.49844">
        <ele>187</ele>
        <time>2016-08-11T11:24:09Z</time>
      </trkpt>
      <trkpt lat="43.98191" lon="0.49796">
        <ele>187.9</ele>
        <time>2016-08-11T11:24:09Z</time>
      </trkpt>
      <trkpt lat="43.98201" lon="0.49743">
        <ele>186.7</ele>
      </trkpt>
      <trkpt lat="43.98224" lon="0.49634">
        <ele>185.9</ele>
        <time>2016-08-11T11:24:09Z</time>
      </trkpt>
      <trkpt lat="43.98229" lon="0.49599">
        <ele>185</ele>
      </trkpt>
      <trkpt lat="43.98256" lon="0.49664">
        <ele>183.1</ele>
      </trkpt>
      <trkpt lat="43.98266" lon="0.4973">
        <ele>183.5</ele>
      </trkpt>
      <trkpt lat="43.98268" lon="0.498">
        <ele>183.4</ele>
        <time>2016-08-11T11:24:09Z</time>
      </trkpt>
      <trkpt lat="43.98428" lon="0.49909">
        <ele>180.026</ele>
        <time>2016-08-11T11:24:09Z</time>
      </trkpt>
      <trkpt lat="43.98481" lon="0.50023">
        <ele>178.008</ele>
        <time>2016-08-11T11:24:09Z</time>
      </trkpt>
      <trkpt lat="43.98517" lon="0.50065">
        <ele>181.008</ele>
        <time>2016-08-11T11:24:09Z</time>
      </trkpt>
      <trkpt lat="43.98601" lon="0.50088">
        <ele>179.043</ele>
        <time>2016-08-11T11:24:09Z</time>
      </trkpt>
      <trkpt lat="43.98651" lon="0.50124">
        <ele>177.026</ele>
        <time>2016-08-11T11:24:09Z</time>
      </trkpt>
      <trkpt lat="43.98825" lon="0.5009">
        <ele>168.095</ele>
        <time>2016-08-11T11:24:09Z</time>
      </trkpt>
      <trkpt lat="43.98961" lon="0.50105">
        <ele>151.063</ele>
        <time>2016-08-11T11:24:09Z</time>
      </trkpt>
      <trkpt lat="43.99073" lon="0.50095">
        <ele>148.05</ele>
        <time>2016-08-11T11:24:09Z</time>
      </trkpt>
      <trkpt lat="43.99216" lon="0.5023">
        <ele>147.056</ele>
        <time>2016-08-11T11:24:09Z</time>
      </trkpt>
      <trkpt lat="43.99252" lon="0.50134">
        <ele>142.059</ele>
        <time>2016-08-11T11:24:09Z</time>
      </trkpt>
      <trkpt lat="43.99532" lon="0.50162">
        <ele>141.077</ele>
        <time>2016-08-11T11:24:09Z</time>
      </trkpt>
      <trkpt lat="43.99622" lon="0.50205">
        <ele>142.052</ele>
        <time>2016-08-11T11:24:09Z</time>
      </trkpt>
      <trkpt lat="43.99644" lon="0.50136">
        <ele>143.053</ele>
        <time>2016-08-11T11:24:09Z</time>
      </trkpt>
      <trkpt lat="43.99699" lon="0.50124">
        <ele>146.008</ele>
        <time>2016-08-11T11:24:09Z</time>
      </trkpt>
      <trkpt lat="43.9978" lon="0.5004">
        <ele>153.008</ele>
        <time>2016-08-11T11:24:09Z</time>
      </trkpt>
      <trkpt lat="43.99885" lon="0.50034">
        <ele>178.086</ele>
        <time>2016-08-11T11:24:09Z</time>
      </trkpt>
      <trkpt lat="43.99964" lon="0.5007">
        <ele>181.049</ele>
        <time>2016-08-11T11:24:09Z</time>
      </trkpt>
      <trkpt lat="43.99994" lon="0.49996">
        <ele>187.028</ele>
        <time>2016-08-11T11:24:09Z</time>
      </trkpt>
      <trkpt lat="44.00045" lon="0.49923">
        <ele>191.076</ele>
        <time>2016-08-11T11:24:09Z</time>
      </trkpt>
      <trkpt lat="44.00066" lon="0.49854">
        <ele>190.043</ele>
        <time>2016-08-11T11:24:09Z</time>
      </trkpt>
      <trkpt lat="44.00238" lon="0.49742">
        <ele>183.089</ele>
        <time>2016-08-11T11:24:09Z</time>
      </trkpt>
      <trkpt lat="44.00302" lon="0.49684">
        <ele>186.032</ele>
        <time>2016-08-11T11:24:09Z</time>
      </trkpt>
      <trkpt lat="44.00377" lon="0.49691">
        <ele>184.09</ele>
        <time>2016-08-11T11:24:09Z</time>
      </trkpt>
      <trkpt lat="44.00588" lon="0.49651">
        <ele>184.055</ele>
        <time>2016-08-11T11:24:09Z</time>
      </trkpt>
      <trkpt lat="44.00575" lon="0.49531">
        <ele>190.007</ele>
        <time>2016-08-11T11:24:09Z</time>
      </trkpt>
      <trkpt lat="44.00587" lon="0.49309">
        <ele>198.017</ele>
        <time>2016-08-11T11:24:09Z</time>
      </trkpt>
      <trkpt lat="44.00573" lon="0.49296">
        <ele>198.008</ele>
        <time>2016-08-11T11:24:09Z</time>
      </trkpt>
      <trkpt lat="44.00536" lon="0.493">
        <ele>200.076</ele>
        <time>2016-08-11T11:24:09Z</time>
      </trkpt>
      <trkpt lat="44.00508" lon="0.4928">
        <ele>202.039</ele>
        <time>2016-08-11T11:24:09Z</time>
      </trkpt>
      <trkpt lat="44.00315" lon="0.4901">
        <ele>212.068</ele>
        <time>2016-08-11T11:24:09Z</time>
      </trkpt>
      <trkpt lat="44.00242" lon="0.4887">
        <ele>223.036</ele>
        <time>2016-08-11T11:24:09Z</time>
      </trkpt>
      <trkpt lat="44.00196" lon="0.48685">
        <ele>225.033</ele>
        <time>2016-08-11T11:24:09Z</time>
      </trkpt>
      <trkpt lat="44.00316" lon="0.48517">
        <ele>211.039</ele>
        <time>2016-08-11T11:24:09Z</time>
      </trkpt>
      <trkpt lat="44.00311" lon="0.48488">
        <ele>211.022</ele>
        <time>2016-08-11T11:24:09Z</time>
      </trkpt>
      <trkpt lat="44.0041" lon="0.48295">
        <ele>200.09</ele>
        <time>2016-08-11T11:24:09Z</time>
      </trkpt>
      <trkpt lat="44.00503" lon="0.48197">
        <ele>190.099</ele>
        <time>2016-08-11T11:24:09Z</time>
      </trkpt>
      <trkpt lat="44.00582" lon="0.48179">
        <ele>184.007</ele>
        <time>2016-08-11T11:24:09Z</time>
      </trkpt>
      <trkpt lat="44.00664" lon="0.4819">
        <ele>180.027</ele>
        <time>2016-08-11T11:24:09Z</time>
      </trkpt>
      <trkpt lat="44.00749" lon="0.47979">
        <ele>173.008</ele>
        <time>2016-08-11T11:24:09Z</time>
      </trkpt>
      <trkpt lat="44.00785" lon="0.47948">
        <ele>168.02</ele>
        <time>2016-08-11T11:24:09Z</time>
      </trkpt>
      <trkpt lat="44.00811" lon="0.47843">
        <ele>158.083</ele>
        <time>2016-08-11T11:24:09Z</time>
      </trkpt>
      <trkpt lat="44.00872" lon="0.4788">
        <ele>161.052</ele>
        <time>2016-08-11T11:24:09Z</time>
      </trkpt>
      <trkpt lat="44.0088" lon="0.47707">
        <ele>140.01</ele>
        <time>2016-08-11T11:24:09Z</time>
      </trkpt>
      <trkpt lat="44.00853" lon="0.47615">
        <ele>146.057</ele>
        <time>2016-08-11T11:24:09Z</time>
      </trkpt>
      <trkpt lat="44.00853" lon="0.47538">
        <ele>153.013</ele>
        <time>2016-08-11T11:24:09Z</time>
      </trkpt>
      <trkpt lat="44.00831" lon="0.47492">
        <ele>153.086</ele>
        <time>2016-08-11T11:24:09Z</time>
      </trkpt>
      <trkpt lat="44.00827" lon="0.47387">
        <ele>156.024</ele>
        <time>2016-08-11T11:24:09Z</time>
      </trkpt>
      <trkpt lat="44.00839" lon="0.47139">
        <ele>161.019</ele>
        <time>2016-08-11T11:24:09Z</time>
      </trkpt>
      <trkpt lat="44.00904" lon="0.47">
        <ele>150.009</ele>
        <time>2016-08-11T11:24:09Z</time>
      </trkpt>
      <trkpt lat="44.00882" lon="0.46919">
        <ele>151.019</ele>
        <time>2016-08-11T11:24:09Z</time>
      </trkpt>
      <trkpt lat="44.00895" lon="0.46836">
        <ele>156.008</ele>
        <time>2016-08-11T11:24:09Z</time>
      </trkpt>
      <trkpt lat="44.00929" lon="0.46708">
        <ele>164.062</ele>
        <time>2016-08-11T11:24:09Z</time>
      </trkpt>
      <trkpt lat="44.00956" lon="0.46674">
        <ele>164.065</ele>
        <time>2016-08-11T11:24:09Z</time>
      </trkpt>
      <trkpt lat="44.0098" lon="0.46676">
        <ele>157.084</ele>
        <time>2016-08-11T11:24:09Z</time>
      </trkpt>
      <trkpt lat="44.01024" lon="0.46637">
        <ele>157.092</ele>
        <time>2016-08-11T11:24:09Z</time>
      </trkpt>
      <trkpt lat="44.01089" lon="0.46409">
        <ele>161.019</ele>
        <time>2016-08-11T11:24:09Z</time>
      </trkpt>
      <trkpt lat="44.01187" lon="0.46421">
        <ele>159.035</ele>
        <time>2016-08-11T11:24:09Z</time>
      </trkpt>
      <trkpt lat="44.01097" lon="0.46238">
        <ele>176.098</ele>
        <time>2016-08-11T11:24:09Z</time>
      </trkpt>
      <trkpt lat="44.01093" lon="0.46185">
        <ele>176.046</ele>
        <time>2016-08-11T11:24:09Z</time>
      </trkpt>
      <trkpt lat="44.01014" lon="0.46052">
        <ele>179.054</ele>
        <time>2016-08-11T11:24:09Z</time>
      </trkpt>
      <trkpt lat="44.00966" lon="0.45936">
        <ele>169.056</ele>
        <time>2016-08-11T11:24:09Z</time>
      </trkpt>
      <trkpt lat="44.00882" lon="0.45784">
        <ele>166.011</ele>
        <time>2016-08-11T11:24:09Z</time>
      </trkpt>
      <trkpt lat="44.00799" lon="0.45674">
        <ele>169.008</ele>
        <time>2016-08-11T11:24:09Z</time>
      </trkpt>
      <trkpt lat="44.0079" lon="0.4567">
        <ele>171.6</ele>
      </trkpt>
      <trkpt lat="44.00785" lon="0.45624">
        <ele>171.7</ele>
      </trkpt>
      <trkpt lat="44.00781" lon="0.45583">
        <ele>171.9</ele>
      </trkpt>
      <trkpt lat="44.00775" lon="0.45542">
        <ele>172.8</ele>
      </trkpt>
      <trkpt lat="44.00772" lon="0.45516">
        <ele>172.5</ele>
      </trkpt>
      <trkpt lat="44.00771" lon="0.45507">
        <ele>172.5</ele>
      </trkpt>
      <trkpt lat="44.00771" lon="0.45492">
        <ele>172.5</ele>
      </trkpt>
      <trkpt lat="44.00774" lon="0.45471">
        <ele>172.7</ele>
      </trkpt>
      <trkpt lat="44.00778" lon="0.45447">
        <ele>172.1</ele>
      </trkpt>
      <trkpt lat="44.00795" lon="0.4538">
        <ele>172.2</ele>
      </trkpt>
      <trkpt lat="44.00808" lon="0.45329">
        <ele>173.1</ele>
      </trkpt>
      <trkpt lat="44.00816" lon="0.45299">
        <ele>173.9</ele>
      </trkpt>
      <trkpt lat="44.00822" lon="0.45269">
        <ele>174.7</ele>
      </trkpt>
      <trkpt lat="44.00825" lon="0.45253">
        <ele>175.2</ele>
      </trkpt>
      <trkpt lat="44.00828" lon="0.45239">
        <ele>175.3</ele>
      </trkpt>
      <trkpt lat="44.00828" lon="0.45234">
        <ele>175.3</ele>
      </trkpt>
      <trkpt lat="44.00827" lon="0.45166">
        <ele>176.2</ele>
      </trkpt>
      <trkpt lat="44.00827" lon="0.45136">
        <ele>176.2</ele>
      </trkpt>
      <trkpt lat="44.00827" lon="0.45118">
        <ele>176.2</ele>
      </trkpt>
      <trkpt lat="44.00826" lon="0.45113">
        <ele>176.3</ele>
      </trkpt>
      <trkpt lat="44.00825" lon="0.45112">
        <ele>176.3</ele>
      </trkpt>
      <trkpt lat="44.0082" lon="0.45107">
        <ele>176.7</ele>
      </trkpt>
      <trkpt lat="44.00816" lon="0.45104">
        <ele>177</ele>
      </trkpt>
      <trkpt lat="44.0081" lon="0.451">
        <ele>177.3</ele>
      </trkpt>
      <trkpt lat="44.00787" lon="0.45085">
        <ele>177.4</ele>
      </trkpt>
      <trkpt lat="44.00782" lon="0.45081">
        <ele>177.2</ele>
      </trkpt>
      <trkpt lat="44.00779" lon="0.45076">
        <ele>177.3</ele>
      </trkpt>
      <trkpt lat="44.00777" lon="0.45071">
        <ele>177.5</ele>
      </trkpt>
      <trkpt lat="44.00775" lon="0.45064">
        <ele>177.7</ele>
      </trkpt>
      <trkpt lat="44.00775" lon="0.45057">
        <ele>177.9</ele>
      </trkpt>
      <trkpt lat="44.00774" lon="0.45052">
        <ele>178</ele>
      </trkpt>
      <trkpt lat="44.00777" lon="0.45028">
        <ele>178</ele>
      </trkpt>
      <trkpt lat="44.0075" lon="0.45017">
        <ele>177</ele>
      </trkpt>
      <trkpt lat="44.00746" lon="0.45015">
        <ele>176.9</ele>
      </trkpt>
      <trkpt lat="44.00737" lon="0.45012">
        <ele>176.7</ele>
      </trkpt>
      <trkpt lat="44.00723" lon="0.45007">
        <ele>176.3</ele>
      </trkpt>
      <trkpt lat="44.00704" lon="0.44999">
        <ele>174.7</ele>
      </trkpt>
      <trkpt lat="44.00686" lon="0.44989">
        <ele>171.7</ele>
      </trkpt>
      <trkpt lat="44.00669" lon="0.44998">
        <ele>168.4</ele>
      </trkpt>
      <trkpt lat="44.00625" lon="0.44991">
        <ele>157.2</ele>
      </trkpt>
      <trkpt lat="44.00611" lon="0.44987">
        <ele>153.5</ele>
      </trkpt>
      <trkpt lat="44.00589" lon="0.44981">
        <ele>150.1</ele>
      </trkpt>
      <trkpt lat="44.00569" lon="0.44976">
        <ele>147.1</ele>
      </trkpt>
      <trkpt lat="44.00543" lon="0.44962">
        <ele>142.7</ele>
      </trkpt>
      <trkpt lat="44.00542" lon="0.44961">
        <ele>142.4</ele>
      </trkpt>
      <trkpt lat="44.00528" lon="0.44958">
        <ele>140</ele>
      </trkpt>
      <trkpt lat="44.00521" lon="0.44956">
        <ele>138.5</ele>
      </trkpt>
      <trkpt lat="44.00508" lon="0.4495">
        <ele>135.7</ele>
      </trkpt>
      <trkpt lat="44.00499" lon="0.44945">
        <ele>133.9</ele>
      </trkpt>
      <trkpt lat="44.00489" lon="0.44939">
        <ele>131.5</ele>
      </trkpt>
      <trkpt lat="44.00438" lon="0.44906">
        <ele>120.4</ele>
      </trkpt>
      <trkpt lat="44.00422" lon="0.44895">
        <ele>117.9</ele>
      </trkpt>
      <trkpt lat="44.0041" lon="0.44886">
        <ele>115.9</ele>
      </trkpt>
      <trkpt lat="44.00386" lon="0.44868">
        <ele>112</ele>
      </trkpt>
      <trkpt lat="44.00379" lon="0.44863">
        <ele>111</ele>
      </trkpt>
      <trkpt lat="44.00371" lon="0.44859">
        <ele>109.9</ele>
      </trkpt>
      <trkpt lat="44.00343" lon="0.44847">
        <ele>106.9</ele>
      </trkpt>
      <trkpt lat="44.00321" lon="0.44837">
        <ele>106</ele>
      </trkpt>
      <trkpt lat="44.00318" lon="0.44836">
        <ele>106</ele>
      </trkpt>
      <trkpt lat="44.00304" lon="0.44829">
        <ele>106.1</ele>
      </trkpt>
      <trkpt lat="44.00297" lon="0.44826">
        <ele>106.7</ele>
      </trkpt>
      <trkpt lat="44.0029" lon="0.44821">
        <ele>107.4</ele>
      </trkpt>
      <trkpt lat="44.00284" lon="0.44809">
        <ele>108.3</ele>
      </trkpt>
      <trkpt lat="44.00277" lon="0.44791">
        <ele>109.1</ele>
      </trkpt>
      <trkpt lat="44.00261" lon="0.44753">
        <ele>110.2</ele>
      </trkpt>
      <trkpt lat="44.00242" lon="0.44711">
        <ele>109.3</ele>
      </trkpt>
      <trkpt lat="44.00238" lon="0.44696">
        <ele>109.4</ele>
      </trkpt>
      <trkpt lat="44.00233" lon="0.4468">
        <ele>109.8</ele>
      </trkpt>
      <trkpt lat="44.00223" lon="0.44657">
        <ele>110.9</ele>
      </trkpt>
      <trkpt lat="44.00215" lon="0.44641">
        <ele>111.8</ele>
      </trkpt>
      <trkpt lat="44.00206" lon="0.44624">
        <ele>112.8</ele>
      </trkpt>
      <trkpt lat="44.002" lon="0.44611">
        <ele>113.4</ele>
      </trkpt>
      <trkpt lat="44.00197" lon="0.44602">
        <ele>113.5</ele>
      </trkpt>
      <trkpt lat="44.0019" lon="0.44578">
        <ele>113.2</ele>
      </trkpt>
      <trkpt lat="44.00182" lon="0.44554">
        <ele>113.4</ele>
      </trkpt>
      <trkpt lat="44.00173" lon="0.44531">
        <ele>114.3</ele>
      </trkpt>
      <trkpt lat="44.00171" lon="0.44518">
        <ele>114.6</ele>
      </trkpt>
      <trkpt lat="44.0017" lon="0.44506">
        <ele>114.7</ele>
      </trkpt>
      <trkpt lat="44.00169" lon="0.44492">
        <ele>114.5</ele>
      </trkpt>
      <trkpt lat="44.00167" lon="0.44473">
        <ele>114</ele>
      </trkpt>
      <trkpt lat="44.00165" lon="0.44468">
        <ele>114</ele>
      </trkpt>
      <trkpt lat="44.00162" lon="0.44464">
        <ele>114.2</ele>
      </trkpt>
      <trkpt lat="44.00156" lon="0.44459">
        <ele>114.7</ele>
      </trkpt>
      <trkpt lat="44.00144" lon="0.44453">
        <ele>115.7</ele>
      </trkpt>
      <trkpt lat="44.00133" lon="0.44449">
        <ele>116.4</ele>
      </trkpt>
      <trkpt lat="44.00119" lon="0.44444">
        <ele>116.7</ele>
      </trkpt>
      <trkpt lat="44.00108" lon="0.4444">
        <ele>117.2</ele>
      </trkpt>
      <trkpt lat="44.00102" lon="0.44434">
        <ele>117.7</ele>
      </trkpt>
      <trkpt lat="44.00096" lon="0.44428">
        <ele>118</ele>
      </trkpt>
      <trkpt lat="44.00093" lon="0.44417">
        <ele>118</ele>
      </trkpt>
      <trkpt lat="44.00086" lon="0.44386">
        <ele>117.7</ele>
      </trkpt>
      <trkpt lat="44.00083" lon="0.44363">
        <ele>117.1</ele>
      </trkpt>
      <trkpt lat="44.00081" lon="0.44351">
        <ele>116.8</ele>
      </trkpt>
      <trkpt lat="44.00078" lon="0.44341">
        <ele>116.6</ele>
      </trkpt>
      <trkpt lat="44.00075" lon="0.44333">
        <ele>116.6</ele>
      </trkpt>
      <trkpt lat="44.00071" lon="0.44327">
        <ele>116.8</ele>
      </trkpt>
      <trkpt lat="44.0006" lon="0.44313">
        <ele>117.5</ele>
      </trkpt>
      <trkpt lat="44.00046" lon="0.44296">
        <ele>118.9</ele>
      </trkpt>
      <trkpt lat="44.00031" lon="0.44279">
        <ele>119.8</ele>
      </trkpt>
      <trkpt lat="44.00015" lon="0.44263">
        <ele>121.1</ele>
      </trkpt>
      <trkpt lat="43.99994" lon="0.44235">
        <ele>122.5</ele>
      </trkpt>
      <trkpt lat="43.99985" lon="0.44228">
        <ele>123.2</ele>
      </trkpt>
      <trkpt lat="43.99975" lon="0.44226">
        <ele>123.9</ele>
      </trkpt>
      <trkpt lat="43.99955" lon="0.44221">
        <ele>126.4</ele>
      </trkpt>
      <trkpt lat="43.99943" lon="0.44213">
        <ele>127.8</ele>
      </trkpt>
      <trkpt lat="43.99936" lon="0.44203">
        <ele>128.7</ele>
      </trkpt>
      <trkpt lat="43.99925" lon="0.44184">
        <ele>130.3</ele>
      </trkpt>
      <trkpt lat="43.99901" lon="0.44141">
        <ele>131.9</ele>
      </trkpt>
      <trkpt lat="43.99889" lon="0.44117">
        <ele>132.4</ele>
      </trkpt>
      <trkpt lat="43.99856" lon="0.44059">
        <ele>126.9</ele>
      </trkpt>
      <trkpt lat="43.99839" lon="0.4403">
        <ele>121.4</ele>
      </trkpt>
      <trkpt lat="43.99829" lon="0.44017">
        <ele>118.6</ele>
      </trkpt>
      <trkpt lat="43.99815" lon="0.44004">
        <ele>116.2</ele>
      </trkpt>
      <trkpt lat="43.99783" lon="0.43978">
        <ele>111</ele>
      </trkpt>
      <trkpt lat="43.99773" lon="0.4397">
        <ele>109.5</ele>
      </trkpt>
      <trkpt lat="43.99761" lon="0.43962">
        <ele>107.9</ele>
      </trkpt>
      <trkpt lat="43.99749" lon="0.43954">
        <ele>106</ele>
      </trkpt>
      <trkpt lat="43.99717" lon="0.43932">
        <ele>100.4</ele>
      </trkpt>
      <trkpt lat="43.99705" lon="0.43921">
        <ele>98.7</ele>
      </trkpt>
      <trkpt lat="43.99696" lon="0.43909">
        <ele>97.5</ele>
      </trkpt>
      <trkpt lat="43.99688" lon="0.43897">
        <ele>96.3</ele>
      </trkpt>
      <trkpt lat="43.99684" lon="0.43886">
        <ele>95.6</ele>
      </trkpt>
      <trkpt lat="43.99684" lon="0.43872">
        <ele>95.6</ele>
      </trkpt>
      <trkpt lat="43.99688" lon="0.43849">
        <ele>95.3</ele>
      </trkpt>
      <trkpt lat="43.99691" lon="0.43826">
        <ele>94.6</ele>
      </trkpt>
      <trkpt lat="43.99691" lon="0.4381">
        <ele>94.1</ele>
      </trkpt>
      <trkpt lat="43.99685" lon="0.43799">
        <ele>94</ele>
      </trkpt>
      <trkpt lat="43.9967" lon="0.43782">
        <ele>94</ele>
      </trkpt>
      <trkpt lat="43.99657" lon="0.43769">
        <ele>94</ele>
      </trkpt>
      <trkpt lat="43.99645" lon="0.43748">
        <ele>94</ele>
      </trkpt>
      <trkpt lat="43.99634" lon="0.43726">
        <ele>94.2</ele>
      </trkpt>
      <trkpt lat="43.99623" lon="0.4371">
        <ele>95.2</ele>
      </trkpt>
      <trkpt lat="43.99606" lon="0.4369">
        <ele>97.3</ele>
      </trkpt>
      <trkpt lat="43.99592" lon="0.43672">
        <ele>97.9</ele>
      </trkpt>
      <trkpt lat="43.99586" lon="0.43657">
        <ele>98.3</ele>
      </trkpt>
      <trkpt lat="43.99584" lon="0.43642">
        <ele>98.9</ele>
      </trkpt>
      <trkpt lat="43.99584" lon="0.43623">
        <ele>99</ele>
      </trkpt>
      <trkpt lat="43.99589" lon="0.43589">
        <ele>99.2</ele>
      </trkpt>
      <trkpt lat="43.99592" lon="0.43576">
        <ele>99.1</ele>
      </trkpt>
      <trkpt lat="43.99595" lon="0.43557">
        <ele>98.9</ele>
      </trkpt>
      <trkpt lat="43.99603" lon="0.43505">
        <ele>98.4</ele>
      </trkpt>
      <trkpt lat="43.99606" lon="0.43476">
        <ele>97.9</ele>
      </trkpt>
      <trkpt lat="43.99605" lon="0.43447">
        <ele>97.8</ele>
      </trkpt>
      <trkpt lat="43.99602" lon="0.43405">
        <ele>98.3</ele>
      </trkpt>
      <trkpt lat="43.99596" lon="0.43336">
        <ele>99.4</ele>
      </trkpt>
      <trkpt lat="43.99591" lon="0.43268">
        <ele>100.3</ele>
      </trkpt>
      <trkpt lat="43.99589" lon="0.43245">
        <ele>100.8</ele>
      </trkpt>
      <trkpt lat="43.99592" lon="0.43228">
        <ele>101.5</ele>
      </trkpt>
      <trkpt lat="43.99598" lon="0.43212">
        <ele>102.2</ele>
      </trkpt>
      <trkpt lat="43.99625" lon="0.4317">
        <ele>104.5</ele>
      </trkpt>
      <trkpt lat="43.99629" lon="0.43165">
        <ele>104.6</ele>
      </trkpt>
      <trkpt lat="43.99635" lon="0.43165">
        <ele>104.8</ele>
      </trkpt>
      <trkpt lat="43.99646" lon="0.43169">
        <ele>105.7</ele>
      </trkpt>
      <trkpt lat="43.99682" lon="0.43186">
        <ele>107.4</ele>
      </trkpt>
      <trkpt lat="43.99688" lon="0.43183">
        <ele>108.6</ele>
      </trkpt>
      <trkpt lat="43.99695" lon="0.43176">
        <ele>109.7</ele>
      </trkpt>
      <trkpt lat="43.99724" lon="0.43092">
        <ele>115.7</ele>
      </trkpt>
      <trkpt lat="43.99754" lon="0.42976">
        <ele>122</ele>
      </trkpt>
      <trkpt lat="43.99792" lon="0.42848">
        <ele>128.2</ele>
      </trkpt>
      <trkpt lat="43.9983" lon="0.42729">
        <ele>133.4</ele>
      </trkpt>
      <trkpt lat="43.99865" lon="0.42643">
        <ele>135.7</ele>
      </trkpt>
      <trkpt lat="43.99871" lon="0.42635">
        <ele>135.7</ele>
      </trkpt>
      <trkpt lat="43.99881" lon="0.42626">
        <ele>135.6</ele>
      </trkpt>
      <trkpt lat="43.99884" lon="0.4262">
        <ele>135.7</ele>
      </trkpt>
      <trkpt lat="43.99913" lon="0.42503">
        <ele>139.9</ele>
      </trkpt>
      <trkpt lat="43.99913" lon="0.42492">
        <ele>140.6</ele>
      </trkpt>
      <trkpt lat="43.99914" lon="0.4248">
        <ele>141.4</ele>
      </trkpt>
      <trkpt lat="43.99919" lon="0.42458">
        <ele>143</ele>
      </trkpt>
      <trkpt lat="43.99946" lon="0.42379">
        <ele>147.9</ele>
      </trkpt>
      <trkpt lat="43.99953" lon="0.42349">
        <ele>148.1</ele>
      </trkpt>
      <trkpt lat="43.99955" lon="0.42332">
        <ele>148.6</ele>
      </trkpt>
      <trkpt lat="43.9996" lon="0.4231">
        <ele>148.9</ele>
      </trkpt>
      <trkpt lat="43.99975" lon="0.42264">
        <ele>149</ele>
      </trkpt>
      <trkpt lat="43.99986" lon="0.42239">
        <ele>149.4</ele>
      </trkpt>
      <trkpt lat="44" lon="0.42201">
        <ele>150.7</ele>
      </trkpt>
      <trkpt lat="44.00009" lon="0.42156">
        <ele>151.1</ele>
      </trkpt>
      <trkpt lat="44.00017" lon="0.42121">
        <ele>152.4</ele>
      </trkpt>
      <trkpt lat="44.00021" lon="0.42107">
        <ele>153.2</ele>
      </trkpt>
      <trkpt lat="44.00033" lon="0.42072">
        <ele>155.1</ele>
      </trkpt>
      <trkpt lat="44.00043" lon="0.42045">
        <ele>156</ele>
      </trkpt>
      <trkpt lat="44.00049" lon="0.42022">
        <ele>157.2</ele>
      </trkpt>
      <trkpt lat="44.00054" lon="0.41993">
        <ele>158.2</ele>
      </trkpt>
      <trkpt lat="44.0006" lon="0.41952">
        <ele>158.8</ele>
      </trkpt>
      <trkpt lat="44.00065" lon="0.41919">
        <ele>158.7</ele>
      </trkpt>
      <trkpt lat="44.00075" lon="0.41837">
        <ele>159.3</ele>
      </trkpt>
      <trkpt lat="44.0008" lon="0.41793">
        <ele>160.2</ele>
      </trkpt>
      <trkpt lat="44.00085" lon="0.41756">
        <ele>161</ele>
      </trkpt>
      <trkpt lat="44.00089" lon="0.41727">
        <ele>162</ele>
      </trkpt>
      <trkpt lat="44.00091" lon="0.41707">
        <ele>162.4</ele>
      </trkpt>
      <trkpt lat="44.00091" lon="0.41666">
        <ele>163.6</ele>
      </trkpt>
      <trkpt lat="44.0009" lon="0.41605">
        <ele>165.8</ele>
      </trkpt>
      <trkpt lat="44.00088" lon="0.41584">
        <ele>167.1</ele>
      </trkpt>
      <trkpt lat="44.00088" lon="0.41566">
        <ele>167.8</ele>
      </trkpt>
      <trkpt lat="44.00087" lon="0.41534">
        <ele>168.9</ele>
      </trkpt>
      <trkpt lat="44.00086" lon="0.41461">
        <ele>170.5</ele>
      </trkpt>
      <trkpt lat="44.00086" lon="0.41453">
        <ele>170.8</ele>
      </trkpt>
      <trkpt lat="44.00087" lon="0.41448">
        <ele>171</ele>
      </trkpt>
      <trkpt lat="44.00088" lon="0.41442">
        <ele>171.2</ele>
      </trkpt>
      <trkpt lat="44.0009" lon="0.4143">
        <ele>171.2</ele>
      </trkpt>
      <trkpt lat="44.00094" lon="0.41396">
        <ele>171.6</ele>
      </trkpt>
      <trkpt lat="44.00097" lon="0.41365">
        <ele>172</ele>
      </trkpt>
      <trkpt lat="44.00098" lon="0.41348">
        <ele>172.3</ele>
      </trkpt>
      <trkpt lat="44.00099" lon="0.41335">
        <ele>172.5</ele>
      </trkpt>
      <trkpt lat="44.00099" lon="0.41321">
        <ele>172.6</ele>
      </trkpt>
      <trkpt lat="44.00098" lon="0.41305">
        <ele>172.5</ele>
      </trkpt>
      <trkpt lat="44.00095" lon="0.4127">
        <ele>171.5</ele>
      </trkpt>
      <trkpt lat="44.0009" lon="0.41262">
        <ele>171.5</ele>
      </trkpt>
      <trkpt lat="44.00085" lon="0.41257">
        <ele>171.3</ele>
      </trkpt>
      <trkpt lat="44.00042" lon="0.41215">
        <ele>170.3</ele>
      </trkpt>
      <trkpt lat="43.99995" lon="0.41168">
        <ele>170.2</ele>
      </trkpt>
      <trkpt lat="43.99955" lon="0.41129">
        <ele>170.9</ele>
      </trkpt>
      <trkpt lat="43.99924" lon="0.41106">
        <ele>172.4</ele>
      </trkpt>
      <trkpt lat="43.99899" lon="0.41092">
        <ele>174.3</ele>
      </trkpt>
      <trkpt lat="43.99866" lon="0.41078">
        <ele>176.8</ele>
      </trkpt>
      <trkpt lat="43.99839" lon="0.41068">
        <ele>177.1</ele>
      </trkpt>
      <trkpt lat="43.99814" lon="0.41063">
        <ele>176.3</ele>
      </trkpt>
      <trkpt lat="43.99797" lon="0.41061">
        <ele>175.2</ele>
      </trkpt>
      <trkpt lat="43.99749" lon="0.41058">
        <ele>172.1</ele>
      </trkpt>
      <trkpt lat="43.9974" lon="0.41057">
        <ele>171.7</ele>
      </trkpt>
      <trkpt lat="43.99731" lon="0.41056">
        <ele>171.3</ele>
      </trkpt>
      <trkpt lat="43.99724" lon="0.41053">
        <ele>171.1</ele>
      </trkpt>
      <trkpt lat="43.9971" lon="0.41046">
        <ele>171</ele>
      </trkpt>
      <trkpt lat="43.99685" lon="0.41031">
        <ele>170.1</ele>
      </trkpt>
      <trkpt lat="43.99676" lon="0.41025">
        <ele>170</ele>
      </trkpt>
      <trkpt lat="43.99646" lon="0.41006">
        <ele>170</ele>
      </trkpt>
      <trkpt lat="43.99636" lon="0.41002">
        <ele>169.9</ele>
      </trkpt>
      <trkpt lat="43.99626" lon="0.41002">
        <ele>169.5</ele>
      </trkpt>
      <trkpt lat="43.99612" lon="0.41">
        <ele>169</ele>
      </trkpt>
      <trkpt lat="43.99587" lon="0.40986">
        <ele>167.7</ele>
      </trkpt>
      <trkpt lat="43.99554" lon="0.4097">
        <ele>165.8</ele>
      </trkpt>
      <trkpt lat="43.99522" lon="0.40955">
        <ele>163</ele>
      </trkpt>
      <trkpt lat="43.99486" lon="0.40938">
        <ele>160</ele>
      </trkpt>
      <trkpt lat="43.99472" lon="0.40935">
        <ele>159</ele>
      </trkpt>
      <trkpt lat="43.99454" lon="0.40928">
        <ele>157.3</ele>
      </trkpt>
      <trkpt lat="43.99434" lon="0.40917">
        <ele>155.2</ele>
      </trkpt>
      <trkpt lat="43.99396" lon="0.4091">
        <ele>152.3</ele>
      </trkpt>
      <trkpt lat="43.99367" lon="0.40903">
        <ele>149.9</ele>
      </trkpt>
      <trkpt lat="43.99343" lon="0.40896">
        <ele>148.6</ele>
      </trkpt>
      <trkpt lat="43.99321" lon="0.40902">
        <ele>147.6</ele>
      </trkpt>
      <trkpt lat="43.99308" lon="0.40905">
        <ele>146.8</ele>
      </trkpt>
      <trkpt lat="43.99297" lon="0.40906">
        <ele>146.7</ele>
      </trkpt>
      <trkpt lat="43.99291" lon="0.40905">
        <ele>146.8</ele>
      </trkpt>
      <trkpt lat="43.99277" lon="0.40902">
        <ele>147.1</ele>
      </trkpt>
      <trkpt lat="43.9927" lon="0.40896">
        <ele>147.4</ele>
      </trkpt>
      <trkpt lat="43.99264" lon="0.4089">
        <ele>147.5</ele>
      </trkpt>
      <trkpt lat="43.99257" lon="0.40873">
        <ele>147.2</ele>
      </trkpt>
      <trkpt lat="43.99249" lon="0.40853">
        <ele>147.1</ele>
      </trkpt>
      <trkpt lat="43.99248" lon="0.40849">
        <ele>147.2</ele>
      </trkpt>
      <trkpt lat="43.99244" lon="0.40839">
        <ele>147.5</ele>
      </trkpt>
      <trkpt lat="43.99236" lon="0.40826">
        <ele>147.9</ele>
      </trkpt>
      <trkpt lat="43.99225" lon="0.40814">
        <ele>148.7</ele>
      </trkpt>
      <trkpt lat="43.99212" lon="0.40802">
        <ele>149.3</ele>
      </trkpt>
      <trkpt lat="43.99181" lon="0.40776">
        <ele>150</ele>
      </trkpt>
      <trkpt lat="43.99174" lon="0.4077">
        <ele>149.9</ele>
      </trkpt>
      <trkpt lat="43.99149" lon="0.40748">
        <ele>149.3</ele>
      </trkpt>
      <trkpt lat="43.99133" lon="0.4073">
        <ele>148.6</ele>
      </trkpt>
      <trkpt lat="43.99123" lon="0.40711">
        <ele>147.6</ele>
      </trkpt>
      <trkpt lat="43.99117" lon="0.40695">
        <ele>146.7</ele>
      </trkpt>
      <trkpt lat="43.99111" lon="0.40678">
        <ele>145.4</ele>
      </trkpt>
      <trkpt lat="43.99104" lon="0.40658">
        <ele>143.9</ele>
      </trkpt>
      <trkpt lat="43.99096" lon="0.40648">
        <ele>142.6</ele>
      </trkpt>
      <trkpt lat="43.99082" lon="0.40634">
        <ele>140.4</ele>
      </trkpt>
      <trkpt lat="43.99061" lon="0.40619">
        <ele>138.6</ele>
      </trkpt>
      <trkpt lat="43.99048" lon="0.40613">
        <ele>138.9</ele>
      </trkpt>
      <trkpt lat="43.9904" lon="0.40612">
        <ele>139.7</ele>
      </trkpt>
      <trkpt lat="43.99032" lon="0.40608">
        <ele>140.6</ele>
      </trkpt>
      <trkpt lat="43.99022" lon="0.406">
        <ele>142</ele>
      </trkpt>
      <trkpt lat="43.99" lon="0.40577">
        <ele>146.2</ele>
      </trkpt>
      <trkpt lat="43.98974" lon="0.40547">
        <ele>150.1</ele>
      </trkpt>
      <trkpt lat="43.98964" lon="0.40525">
        <ele>151.9</ele>
      </trkpt>
      <trkpt lat="43.98957" lon="0.40507">
        <ele>153.1</ele>
      </trkpt>
      <trkpt lat="43.98939" lon="0.40489">
        <ele>155.8</ele>
      </trkpt>
      <trkpt lat="43.98925" lon="0.40472">
        <ele>157.4</ele>
      </trkpt>
      <trkpt lat="43.98912" lon="0.40445">
        <ele>159.3</ele>
      </trkpt>
      <trkpt lat="43.98901" lon="0.40419">
        <ele>160.7</ele>
      </trkpt>
      <trkpt lat="43.98882" lon="0.40377">
        <ele>163.2</ele>
      </trkpt>
      <trkpt lat="43.98864" lon="0.40349">
        <ele>165.7</ele>
      </trkpt>
      <trkpt lat="43.98856" lon="0.40339">
        <ele>166.4</ele>
      </trkpt>
      <trkpt lat="43.98836" lon="0.40319">
        <ele>167.4</ele>
      </trkpt>
      <trkpt lat="43.98811" lon="0.40299">
        <ele>166.8</ele>
      </trkpt>
      <trkpt lat="43.98797" lon="0.40287">
        <ele>166</ele>
      </trkpt>
      <trkpt lat="43.98777" lon="0.40275">
        <ele>164.8</ele>
      </trkpt>
      <trkpt lat="43.98751" lon="0.40259">
        <ele>161.4</ele>
      </trkpt>
      <trkpt lat="43.98744" lon="0.40255">
        <ele>160.5</ele>
      </trkpt>
      <trkpt lat="43.9873" lon="0.40247">
        <ele>158.7</ele>
      </trkpt>
      <trkpt lat="43.98695" lon="0.40226">
        <ele>155.2</ele>
      </trkpt>
      <trkpt lat="43.98689" lon="0.40222">
        <ele>154.6</ele>
      </trkpt>
      <trkpt lat="43.98673" lon="0.40208">
        <ele>152.9</ele>
      </trkpt>
      <trkpt lat="43.98652" lon="0.40188">
        <ele>151.6</ele>
      </trkpt>
      <trkpt lat="43.98651" lon="0.40187">
        <ele>151.6</ele>
      </trkpt>
      <trkpt lat="43.98632" lon="0.40174">
        <ele>150.7</ele>
      </trkpt>
      <trkpt lat="43.98623" lon="0.40169">
        <ele>150.7</ele>
      </trkpt>
      <trkpt lat="43.98607" lon="0.40165">
        <ele>151</ele>
      </trkpt>
      <trkpt lat="43.98565" lon="0.40159">
        <ele>154.1</ele>
      </trkpt>
      <trkpt lat="43.98524" lon="0.40142">
        <ele>155.1</ele>
      </trkpt>
      <trkpt lat="43.9851" lon="0.40135">
        <ele>154.8</ele>
      </trkpt>
      <trkpt lat="43.985" lon="0.40129">
        <ele>154.7</ele>
      </trkpt>
      <trkpt lat="43.98483" lon="0.40118">
        <ele>154.9</ele>
      </trkpt>
      <trkpt lat="43.98434" lon="0.40085">
        <ele>155.4</ele>
      </trkpt>
      <trkpt lat="43.98416" lon="0.40073">
        <ele>155.3</ele>
      </trkpt>
      <trkpt lat="43.98401" lon="0.40061">
        <ele>155.3</ele>
      </trkpt>
      <trkpt lat="43.98393" lon="0.40055">
        <ele>155.6</ele>
      </trkpt>
      <trkpt lat="43.98386" lon="0.40045">
        <ele>155.7</ele>
      </trkpt>
      <trkpt lat="43.98381" lon="0.40033">
        <ele>155.4</ele>
      </trkpt>
      <trkpt lat="43.98377" lon="0.40023">
        <ele>155.3</ele>
      </trkpt>
      <trkpt lat="43.98372" lon="0.40017">
        <ele>155.5</ele>
      </trkpt>
      <trkpt lat="43.98363" lon="0.40014">
        <ele>155.9</ele>
      </trkpt>
      <trkpt lat="43.98346" lon="0.40011">
        <ele>156</ele>
      </trkpt>
      <trkpt lat="43.98337" lon="0.4001">
        <ele>156</ele>
      </trkpt>
      <trkpt lat="43.98332" lon="0.40007">
        <ele>155.9</ele>
      </trkpt>
      <trkpt lat="43.9832" lon="0.39996">
        <ele>155</ele>
      </trkpt>
      <trkpt lat="43.98285" lon="0.39956">
        <ele>153.5</ele>
      </trkpt>
      <trkpt lat="43.98262" lon="0.39928">
        <ele>151.8</ele>
      </trkpt>
      <trkpt lat="43.9824" lon="0.399">
        <ele>150.3</ele>
      </trkpt>
      <trkpt lat="43.98216" lon="0.3987">
        <ele>149</ele>
      </trkpt>
      <trkpt lat="43.98209" lon="0.39863">
        <ele>148.6</ele>
      </trkpt>
      <trkpt lat="43.98195" lon="0.3985">
        <ele>147.5</ele>
      </trkpt>
      <trkpt lat="43.98178" lon="0.3984">
        <ele>145.4</ele>
      </trkpt>
      <trkpt lat="43.9815" lon="0.39816">
        <ele>143</ele>
      </trkpt>
      <trkpt lat="43.98127" lon="0.39795">
        <ele>139.6</ele>
      </trkpt>
      <trkpt lat="43.98122" lon="0.39789">
        <ele>138.6</ele>
      </trkpt>
      <trkpt lat="43.98119" lon="0.39785">
        <ele>138.3</ele>
      </trkpt>
      <trkpt lat="43.98116" lon="0.39777">
        <ele>138</ele>
      </trkpt>
      <trkpt lat="43.98108" lon="0.39757">
        <ele>136.1</ele>
      </trkpt>
      <trkpt lat="43.98102" lon="0.39743">
        <ele>134.3</ele>
      </trkpt>
      <trkpt lat="43.98087" lon="0.3971">
        <ele>130</ele>
      </trkpt>
      <trkpt lat="43.98079" lon="0.39695">
        <ele>127.6</ele>
      </trkpt>
      <trkpt lat="43.98069" lon="0.39678">
        <ele>124.7</ele>
      </trkpt>
      <trkpt lat="43.9806" lon="0.3966">
        <ele>122.2</ele>
      </trkpt>
      <trkpt lat="43.98055" lon="0.39648">
        <ele>120.9</ele>
      </trkpt>
      <trkpt lat="43.98047" lon="0.39632">
        <ele>119.6</ele>
      </trkpt>
      <trkpt lat="43.98037" lon="0.39603">
        <ele>117.9</ele>
      </trkpt>
      <trkpt lat="43.98034" lon="0.39596">
        <ele>117.6</ele>
      </trkpt>
      <trkpt lat="43.98031" lon="0.3959">
        <ele>117.2</ele>
      </trkpt>
      <trkpt lat="43.98024" lon="0.39583">
        <ele>116.7</ele>
      </trkpt>
      <trkpt lat="43.98014" lon="0.39575">
        <ele>115.8</ele>
      </trkpt>
      <trkpt lat="43.97994" lon="0.39565">
        <ele>115.2</ele>
      </trkpt>
      <trkpt lat="43.97979" lon="0.39558">
        <ele>115.8</ele>
      </trkpt>
      <trkpt lat="43.97961" lon="0.39553">
        <ele>116.8</ele>
      </trkpt>
      <trkpt lat="43.97946" lon="0.39545">
        <ele>117.5</ele>
      </trkpt>
      <trkpt lat="43.97926" lon="0.39529">
        <ele>117.7</ele>
      </trkpt>
      <trkpt lat="43.97917" lon="0.3952">
        <ele>117.7</ele>
      </trkpt>
      <trkpt lat="43.97912" lon="0.39514">
        <ele>117.5</ele>
      </trkpt>
      <trkpt lat="43.97906" lon="0.395">
        <ele>117</ele>
      </trkpt>
      <trkpt lat="43.97899" lon="0.39481">
        <ele>116.8</ele>
      </trkpt>
      <trkpt lat="43.97891" lon="0.39458">
        <ele>116.9</ele>
      </trkpt>
      <trkpt lat="43.9788" lon="0.39421">
        <ele>118.2</ele>
      </trkpt>
      <trkpt lat="43.97874" lon="0.39402">
        <ele>119.6</ele>
      </trkpt>
      <trkpt lat="43.97868" lon="0.39381">
        <ele>121.4</ele>
      </trkpt>
      <trkpt lat="43.97858" lon="0.3935">
        <ele>124</ele>
      </trkpt>
      <trkpt lat="43.97849" lon="0.39324">
        <ele>126.5</ele>
      </trkpt>
      <trkpt lat="43.97841" lon="0.39305">
        <ele>128.5</ele>
      </trkpt>
      <trkpt lat="43.97828" lon="0.39278">
        <ele>130.4</ele>
      </trkpt>
      <trkpt lat="43.97805" lon="0.39232">
        <ele>134.7</ele>
      </trkpt>
      <trkpt lat="43.97793" lon="0.39213">
        <ele>137.1</ele>
      </trkpt>
      <trkpt lat="43.9779" lon="0.39211">
        <ele>137.5</ele>
      </trkpt>
      <trkpt lat="43.97727" lon="0.39232">
        <ele>142.8</ele>
      </trkpt>
      <trkpt lat="43.97713" lon="0.39238">
        <ele>143.4</ele>
      </trkpt>
      <trkpt lat="43.97702" lon="0.39239">
        <ele>143.8</ele>
      </trkpt>
      <trkpt lat="43.97691" lon="0.39239">
        <ele>144.3</ele>
      </trkpt>
      <trkpt lat="43.97678" lon="0.39237">
        <ele>144.7</ele>
      </trkpt>
      <trkpt lat="43.97594" lon="0.39207">
        <ele>146.4</ele>
      </trkpt>
      <trkpt lat="43.9759" lon="0.39204">
        <ele>146.6</ele>
      </trkpt>
      <trkpt lat="43.97582" lon="0.39198">
        <ele>146.9</ele>
      </trkpt>
      <trkpt lat="43.97564" lon="0.39188">
        <ele>147.1</ele>
      </trkpt>
      <trkpt lat="43.97545" lon="0.3918">
        <ele>147</ele>
      </trkpt>
      <trkpt lat="43.97534" lon="0.39176">
        <ele>147</ele>
      </trkpt>
      <trkpt lat="43.97483" lon="0.39161">
        <ele>146.9</ele>
      </trkpt>
      <trkpt lat="43.97419" lon="0.39166">
        <ele>147</ele>
      </trkpt>
      <trkpt lat="43.97401" lon="0.39165">
        <ele>147</ele>
      </trkpt>
      <trkpt lat="43.97386" lon="0.39163">
        <ele>147.1</ele>
      </trkpt>
      <trkpt lat="43.97372" lon="0.39159">
        <ele>147.6</ele>
      </trkpt>
      <trkpt lat="43.97326" lon="0.39151">
        <ele>150.8</ele>
      </trkpt>
      <trkpt lat="43.97303" lon="0.39148">
        <ele>153.1</ele>
      </trkpt>
      <trkpt lat="43.97281" lon="0.39143">
        <ele>154.6</ele>
      </trkpt>
      <trkpt lat="43.97275" lon="0.39139">
        <ele>154.9</ele>
      </trkpt>
      <trkpt lat="43.97266" lon="0.39132">
        <ele>154.5</ele>
      </trkpt>
      <trkpt lat="43.97264" lon="0.39132">
        <ele>154.4</ele>
      </trkpt>
      <trkpt lat="43.97262" lon="0.39132">
        <ele>154.3</ele>
      </trkpt>
      <trkpt lat="43.9726" lon="0.39135">
        <ele>154.3</ele>
      </trkpt>
      <trkpt lat="43.97257" lon="0.3914">
        <ele>154.2</ele>
      </trkpt>
      <trkpt lat="43.97253" lon="0.39149">
        <ele>154.1</ele>
      </trkpt>
      <trkpt lat="43.97234" lon="0.39178">
        <ele>153.6</ele>
      </trkpt>
      <trkpt lat="43.97216" lon="0.39186">
        <ele>153.5</ele>
      </trkpt>
      <trkpt lat="43.97212" lon="0.39197">
        <ele>153.6</ele>
      </trkpt>
      <trkpt lat="43.97188" lon="0.39253">
        <ele>153.7</ele>
      </trkpt>
      <trkpt lat="43.97185" lon="0.39256">
        <ele>153.6</ele>
      </trkpt>
      <trkpt lat="43.9718" lon="0.39256">
        <ele>153.5</ele>
      </trkpt>
      <trkpt lat="43.97167" lon="0.39253">
        <ele>153.1</ele>
      </trkpt>
      <trkpt lat="43.97152" lon="0.39245">
        <ele>153.3</ele>
      </trkpt>
      <trkpt lat="43.97136" lon="0.39233">
        <ele>152.9</ele>
      </trkpt>
      <trkpt lat="43.97121" lon="0.3922">
        <ele>152.6</ele>
      </trkpt>
      <trkpt lat="43.97109" lon="0.39201">
        <ele>152.2</ele>
      </trkpt>
      <trkpt lat="43.97092" lon="0.39181">
        <ele>151</ele>
      </trkpt>
      <trkpt lat="43.97057" lon="0.39143">
        <ele>148.3</ele>
      </trkpt>
      <trkpt lat="43.97022" lon="0.39111">
        <ele>144.8</ele>
      </trkpt>
      <trkpt lat="43.96999" lon="0.39091">
        <ele>142.6</ele>
      </trkpt>
      <trkpt lat="43.96974" lon="0.39067">
        <ele>141.8</ele>
      </trkpt>
      <trkpt lat="43.96967" lon="0.39055">
        <ele>141.5</ele>
      </trkpt>
      <trkpt lat="43.96961" lon="0.39037">
        <ele>141.1</ele>
      </trkpt>
      <trkpt lat="43.96958" lon="0.39026">
        <ele>141</ele>
      </trkpt>
      <trkpt lat="43.96947" lon="0.38992">
        <ele>139.8</ele>
      </trkpt>
      <trkpt lat="43.96945" lon="0.38984">
        <ele>139.2</ele>
      </trkpt>
      <trkpt lat="43.9694" lon="0.38974">
        <ele>139</ele>
      </trkpt>
      <trkpt lat="43.96931" lon="0.3896">
        <ele>139.6</ele>
      </trkpt>
      <trkpt lat="43.96922" lon="0.38951">
        <ele>140</ele>
      </trkpt>
      <trkpt lat="43.96918" lon="0.38948">
        <ele>140.2</ele>
      </trkpt>
      <trkpt lat="43.96914" lon="0.38946">
        <ele>140.4</ele>
      </trkpt>
      <trkpt lat="43.96909" lon="0.38945">
        <ele>140.8</ele>
      </trkpt>
      <trkpt lat="43.96909" lon="0.38944">
        <ele>140.8</ele>
      </trkpt>
      <trkpt lat="43.96904" lon="0.38945">
        <ele>141.4</ele>
      </trkpt>
      <trkpt lat="43.96894" lon="0.38947">
        <ele>142.8</ele>
      </trkpt>
      <trkpt lat="43.96871" lon="0.38956">
        <ele>144.6</ele>
      </trkpt>
      <trkpt lat="43.96863" lon="0.38959">
        <ele>145</ele>
      </trkpt>
      <trkpt lat="43.96845" lon="0.38961">
        <ele>144.6</ele>
      </trkpt>
      <trkpt lat="43.96836" lon="0.3896">
        <ele>144.2</ele>
      </trkpt>
      <trkpt lat="43.96831" lon="0.38959">
        <ele>143.7</ele>
      </trkpt>
      <trkpt lat="43.96826" lon="0.38956">
        <ele>142.8</ele>
      </trkpt>
      <trkpt lat="43.96818" lon="0.38951">
        <ele>141.5</ele>
      </trkpt>
      <trkpt lat="43.96806" lon="0.38941">
        <ele>139.9</ele>
      </trkpt>
      <trkpt lat="43.96803" lon="0.38939">
        <ele>139.5</ele>
      </trkpt>
      <trkpt lat="43.96802" lon="0.38934">
        <ele>139.1</ele>
      </trkpt>
      <trkpt lat="43.96794" lon="0.38928">
        <ele>137.7</ele>
      </trkpt>
      <trkpt lat="43.96764" lon="0.38909">
        <ele>133.4</ele>
      </trkpt>
      <trkpt lat="43.96748" lon="0.38899">
        <ele>131.1</ele>
      </trkpt>
      <trkpt lat="43.96737" lon="0.38893">
        <ele>129.3</ele>
      </trkpt>
      <trkpt lat="43.96713" lon="0.38876">
        <ele>125.7</ele>
      </trkpt>
      <trkpt lat="43.96693" lon="0.38861">
        <ele>122.9</ele>
      </trkpt>
      <trkpt lat="43.96643" lon="0.38822">
        <ele>118.4</ele>
      </trkpt>
      <trkpt lat="43.96625" lon="0.38805">
        <ele>116.5</ele>
      </trkpt>
      <trkpt lat="43.96601" lon="0.38778">
        <ele>112.9</ele>
      </trkpt>
      <trkpt lat="43.96558" lon="0.38726">
        <ele>107.4</ele>
      </trkpt>
      <trkpt lat="43.96554" lon="0.38721">
        <ele>106.8</ele>
      </trkpt>
      <trkpt lat="43.96535" lon="0.3869">
        <ele>101.8</ele>
      </trkpt>
      <trkpt lat="43.96526" lon="0.38665">
        <ele>98.6</ele>
      </trkpt>
      <trkpt lat="43.96518" lon="0.3865">
        <ele>96.6</ele>
      </trkpt>
      <trkpt lat="43.9651" lon="0.38636">
        <ele>94.6</ele>
      </trkpt>
      <trkpt lat="43.96471" lon="0.38585">
        <ele>91.2</ele>
      </trkpt>
      <trkpt lat="43.96456" lon="0.38552">
        <ele>92.9</ele>
      </trkpt>
      <trkpt lat="43.96443" lon="0.38521">
        <ele>94.3</ele>
      </trkpt>
      <trkpt lat="43.96425" lon="0.3848">
        <ele>97</ele>
      </trkpt>
      <trkpt lat="43.96416" lon="0.3846">
        <ele>98.5</ele>
      </trkpt>
      <trkpt lat="43.96401" lon="0.38429">
        <ele>100.9</ele>
      </trkpt>
      <trkpt lat="43.96398" lon="0.38425">
        <ele>101.2</ele>
      </trkpt>
      <trkpt lat="43.96396" lon="0.38423">
        <ele>101.4</ele>
      </trkpt>
      <trkpt lat="43.96393" lon="0.3842">
        <ele>101.7</ele>
      </trkpt>
      <trkpt lat="43.96392" lon="0.3842">
        <ele>101.7</ele>
      </trkpt>
      <trkpt lat="43.96388" lon="0.38417">
        <ele>102.1</ele>
      </trkpt>
      <trkpt lat="43.96382" lon="0.38415">
        <ele>102.5</ele>
      </trkpt>
      <trkpt lat="43.96375" lon="0.38412">
        <ele>103.1</ele>
      </trkpt>
      <trkpt lat="43.96332" lon="0.38397">
        <ele>107.1</ele>
      </trkpt>
      <trkpt lat="43.96317" lon="0.38392">
        <ele>108.2</ele>
      </trkpt>
      <trkpt lat="43.96301" lon="0.38388">
        <ele>109.2</ele>
      </trkpt>
      <trkpt lat="43.96238" lon="0.38364">
        <ele>111</ele>
      </trkpt>
      <trkpt lat="43.96226" lon="0.38358">
        <ele>110.9</ele>
      </trkpt>
      <trkpt lat="43.96179" lon="0.38329">
        <ele>108.6</ele>
      </trkpt>
      <trkpt lat="43.9615" lon="0.38311">
        <ele>105.1</ele>
      </trkpt>
      <trkpt lat="43.96132" lon="0.38299">
        <ele>103.8</ele>
      </trkpt>
      <trkpt lat="43.96098" lon="0.38274">
        <ele>105.3</ele>
      </trkpt>
      <trkpt lat="43.96084" lon="0.38265">
        <ele>106.4</ele>
      </trkpt>
      <trkpt lat="43.9608" lon="0.38283">
        <ele>107.3</ele>
      </trkpt>
      <trkpt lat="43.9608" lon="0.38298">
        <ele>107.9</ele>
      </trkpt>
      <trkpt lat="43.96081" lon="0.38327">
        <ele>108.9</ele>
      </trkpt>
      <trkpt lat="43.96079" lon="0.38345">
        <ele>109.4</ele>
      </trkpt>
      <trkpt lat="43.96074" lon="0.38366">
        <ele>109.6</ele>
      </trkpt>
      <trkpt lat="43.96066" lon="0.38377">
        <ele>110.1</ele>
      </trkpt>
      <trkpt lat="43.95989" lon="0.38221">
        <ele>102.6</ele>
      </trkpt>
      <trkpt lat="43.95968" lon="0.38237">
        <ele>104.7</ele>
      </trkpt>
      <trkpt lat="43.95941" lon="0.38245">
        <ele>106.2</ele>
      </trkpt>
      <trkpt lat="43.9593" lon="0.38252">
        <ele>107.1</ele>
      </trkpt>
      <trkpt lat="43.95918" lon="0.38259">
        <ele>108.2</ele>
      </trkpt>
      <trkpt lat="43.95894" lon="0.38244">
        <ele>107.4</ele>
      </trkpt>
      <trkpt lat="43.95886" lon="0.38233">
        <ele>105.9</ele>
      </trkpt>
      <trkpt lat="43.95841" lon="0.3816">
        <ele>98.3</ele>
      </trkpt>
      <trkpt lat="43.95758" lon="0.38055">
        <ele>87.1</ele>
      </trkpt>
      <trkpt lat="43.95716" lon="0.38044">
        <ele>82.3</ele>
      </trkpt>
      <trkpt lat="43.9569" lon="0.38033">
        <ele>80.8</ele>
      </trkpt>
      <trkpt lat="43.95671" lon="0.3802">
        <ele>78.9</ele>
      </trkpt>
      <trkpt lat="43.95643" lon="0.38002">
        <ele>75.7</ele>
      </trkpt>
      <trkpt lat="43.9549" lon="0.37798">
        <ele>81.2</ele>
      </trkpt>
      <trkpt lat="43.95483" lon="0.37669">
        <ele>85.3</ele>
      </trkpt>
      <trkpt lat="43.95523" lon="0.37577">
        <ele>87.6</ele>
      </trkpt>
      <trkpt lat="43.95334" lon="0.37313">
        <ele>100.2</ele>
      </trkpt>
      <trkpt lat="43.95438" lon="0.37034">
        <ele>89.5</ele>
      </trkpt>
      <trkpt lat="43.95527" lon="0.36975">
        <ele>83.2</ele>
      </trkpt>
      <trkpt lat="43.95592" lon="0.36927">
        <ele>78.3</ele>
      </trkpt>
      <trkpt lat="43.95671" lon="0.3691">
        <ele>73.7</ele>
      </trkpt>
      <trkpt lat="43.95684" lon="0.36826">
        <ele>71.7</ele>
      </trkpt>
      <trkpt lat="43.9576" lon="0.36844">
        <ele>70.2</ele>
      </trkpt>
      <trkpt lat="43.9581" lon="0.36814">
        <ele>71</ele>
      </trkpt>
      <trkpt lat="43.95912" lon="0.36788">
        <ele>71.7</ele>
      </trkpt>
      <trkpt lat="43.9589" lon="0.36925">
        <ele>72.6</ele>
      </trkpt>
      <trkpt lat="43.95972" lon="0.36965">
        <ele>71.7</ele>
      </trkpt>
      <trkpt lat="43.96097" lon="0.37052">
        <ele>70.5</ele>
      </trkpt>
      <trkpt lat="43.9606" lon="0.372">
        <ele>72.1</ele>
      </trkpt>
      <trkpt lat="43.96066" lon="0.37289">
        <ele>78.8</ele>
      </trkpt>
      <trkpt lat="43.96016" lon="0.37267">
        <ele>80.7</ele>
      </trkpt>
      <trkpt lat="43.95999" lon="0.37305">
        <ele>81</ele>
      </trkpt>
      <trkpt lat="43.95901" lon="0.37329">
        <ele>80</ele>
      </trkpt>
      <trkpt lat="43.95881" lon="0.3736">
        <ele>76.8</ele>
      </trkpt>
      <trkpt lat="43.95909" lon="0.37403">
        <ele>74.3</ele>
      </trkpt>
      <trkpt lat="43.95859" lon="0.37474">
        <ele>74.9</ele>
      </trkpt>
      <trkpt lat="43.95824" lon="0.37517">
        <ele>75</ele>
      </trkpt>
      <trkpt lat="43.95755" lon="0.376">
        <ele>76.7</ele>
      </trkpt>
      <trkpt lat="43.95724" lon="0.37663">
        <ele>78.9</ele>
      </trkpt>
      <trkpt lat="43.95661" lon="0.38014">
        <ele>77.1</ele>
      </trkpt>
      <trkpt lat="43.9568" lon="0.3802">
        <ele>78.8</ele>
      </trkpt>
      <trkpt lat="43.95714" lon="0.38036">
        <ele>81.2</ele>
      </trkpt>
      <trkpt lat="43.95746" lon="0.38048">
        <ele>84.7</ele>
      </trkpt>
      <trkpt lat="43.95773" lon="0.38065">
        <ele>89</ele>
      </trkpt>
      <trkpt lat="43.95842" lon="0.38167">
        <ele>98.6</ele>
      </trkpt>
      <trkpt lat="43.95906" lon="0.38243">
        <ele>107.6</ele>
      </trkpt>
      <trkpt lat="43.95918" lon="0.38254">
        <ele>108.1</ele>
      </trkpt>
      <trkpt lat="43.95918" lon="0.38259">
        <ele>108.2</ele>
      </trkpt>
      <trkpt lat="43.9592" lon="0.3828">
        <ele>109</ele>
      </trkpt>
      <trkpt lat="43.95927" lon="0.38361">
        <ele>111.6</ele>
      </trkpt>
      <trkpt lat="43.95928" lon="0.3845">
        <ele>113.8</ele>
      </trkpt>
      <trkpt lat="43.95926" lon="0.38507">
        <ele>115.8</ele>
      </trkpt>
      <trkpt lat="43.95916" lon="0.38571">
        <ele>117.6</ele>
      </trkpt>
      <trkpt lat="43.95912" lon="0.3859">
        <ele>118.4</ele>
      </trkpt>
      <trkpt lat="43.95914" lon="0.38626">
        <ele>119.5</ele>
      </trkpt>
      <trkpt lat="43.95921" lon="0.38708">
        <ele>121.6</ele>
      </trkpt>
      <trkpt lat="43.95926" lon="0.38784">
        <ele>123.6</ele>
      </trkpt>
      <trkpt lat="43.95933" lon="0.38845">
        <ele>126.4</ele>
      </trkpt>
      <trkpt lat="43.95939" lon="0.38933">
        <ele>133</ele>
      </trkpt>
      <trkpt lat="43.95951" lon="0.39036">
        <ele>142.1</ele>
      </trkpt>
      <trkpt lat="43.95969" lon="0.3918">
        <ele>140.2</ele>
      </trkpt>
      <trkpt lat="43.95969" lon="0.39246">
        <ele>141.5</ele>
      </trkpt>
      <trkpt lat="43.95964" lon="0.39326">
        <ele>144.2</ele>
      </trkpt>
      <trkpt lat="43.95964" lon="0.39364">
        <ele>144.4</ele>
      </trkpt>
      <trkpt lat="43.95967" lon="0.39385">
        <ele>143.7</ele>
      </trkpt>
      <trkpt lat="43.95979" lon="0.39468">
        <ele>143.2</ele>
      </trkpt>
      <trkpt lat="43.95984" lon="0.39499">
        <ele>143.3</ele>
      </trkpt>
      <trkpt lat="43.95994" lon="0.39595">
        <ele>143.7</ele>
      </trkpt>
      <trkpt lat="43.96002" lon="0.39684">
        <ele>144.7</ele>
      </trkpt>
      <trkpt lat="43.96011" lon="0.39777">
        <ele>145.2</ele>
      </trkpt>
      <trkpt lat="43.96035" lon="0.39895">
        <ele>144.8</ele>
      </trkpt>
      <trkpt lat="43.96053" lon="0.39981">
        <ele>145.5</ele>
      </trkpt>
      <trkpt lat="43.96068" lon="0.40076">
        <ele>145.5</ele>
      </trkpt>
      <trkpt lat="43.9608" lon="0.40131">
        <ele>146.5</ele>
      </trkpt>
      <trkpt lat="43.96099" lon="0.4022">
        <ele>148.1</ele>
      </trkpt>
      <trkpt lat="43.96125" lon="0.40316">
        <ele>149.8</ele>
      </trkpt>
      <trkpt lat="43.96142" lon="0.4041">
        <ele>152.1</ele>
      </trkpt>
      <trkpt lat="43.96153" lon="0.40491">
        <ele>155.2</ele>
      </trkpt>
      <trkpt lat="43.96168" lon="0.40553">
        <ele>159.1</ele>
      </trkpt>
      <trkpt lat="43.96189" lon="0.40624">
        <ele>165.4</ele>
      </trkpt>
      <trkpt lat="43.962" lon="0.40664">
        <ele>169.4</ele>
      </trkpt>
      <trkpt lat="43.9621" lon="0.40722">
        <ele>173.6</ele>
      </trkpt>
      <trkpt lat="43.96229" lon="0.40786">
        <ele>176.3</ele>
      </trkpt>
      <trkpt lat="43.96233" lon="0.40802">
        <ele>176.4</ele>
      </trkpt>
      <trkpt lat="43.96262" lon="0.40929">
        <ele>175.6</ele>
      </trkpt>
      <trkpt lat="43.96301" lon="0.41071">
        <ele>168.7</ele>
      </trkpt>
      <trkpt lat="43.96307" lon="0.41105">
        <ele>166.5</ele>
      </trkpt>
      <trkpt lat="43.96309" lon="0.4115">
        <ele>163.4</ele>
      </trkpt>
      <trkpt lat="43.96311" lon="0.41171">
        <ele>162.1</ele>
      </trkpt>
      <trkpt lat="43.96326" lon="0.41238">
        <ele>156.7</ele>
      </trkpt>
      <trkpt lat="43.96345" lon="0.41347">
        <ele>149.2</ele>
      </trkpt>
      <trkpt lat="43.96351" lon="0.41366">
        <ele>148.3</ele>
      </trkpt>
      <trkpt lat="43.96369" lon="0.41425">
        <ele>145.3</ele>
      </trkpt>
      <trkpt lat="43.9637" lon="0.41442">
        <ele>145</ele>
      </trkpt>
      <trkpt lat="43.9637" lon="0.41455">
        <ele>145</ele>
      </trkpt>
      <trkpt lat="43.96365" lon="0.41469">
        <ele>144.4</ele>
      </trkpt>
      <trkpt lat="43.96349" lon="0.41506">
        <ele>143.2</ele>
      </trkpt>
      <trkpt lat="43.96334" lon="0.41547">
        <ele>142.1</ele>
      </trkpt>
      <trkpt lat="43.96332" lon="0.41569">
        <ele>142.3</ele>
      </trkpt>
      <trkpt lat="43.96325" lon="0.41613">
        <ele>141</ele>
      </trkpt>
      <trkpt lat="43.96317" lon="0.41647">
        <ele>139.4</ele>
      </trkpt>
      <trkpt lat="43.96321" lon="0.41723">
        <ele>137.2</ele>
      </trkpt>
      <trkpt lat="43.96329" lon="0.41851">
        <ele>136.9</ele>
      </trkpt>
      <trkpt lat="43.96332" lon="0.41938">
        <ele>132.3</ele>
      </trkpt>
      <trkpt lat="43.96334" lon="0.41957">
        <ele>131.2</ele>
      </trkpt>
      <trkpt lat="43.96352" lon="0.42008">
        <ele>128.2</ele>
      </trkpt>
      <trkpt lat="43.96353" lon="0.4204">
        <ele>126.8</ele>
      </trkpt>
      <trkpt lat="43.96355" lon="0.42079">
        <ele>126.3</ele>
      </trkpt>
      <trkpt lat="43.9641" lon="0.42215">
        <ele>128.8</ele>
      </trkpt>
      <trkpt lat="43.96421" lon="0.42252">
        <ele>129.6</ele>
      </trkpt>
      <trkpt lat="43.96433" lon="0.423">
        <ele>132.1</ele>
      </trkpt>
      <trkpt lat="43.96445" lon="0.4234">
        <ele>133.5</ele>
      </trkpt>
      <trkpt lat="43.96455" lon="0.42386">
        <ele>135.3</ele>
      </trkpt>
      <trkpt lat="43.96467" lon="0.42433">
        <ele>137</ele>
      </trkpt>
      <trkpt lat="43.96476" lon="0.42484">
        <ele>137.7</ele>
      </trkpt>
      <trkpt lat="43.96483" lon="0.42514">
        <ele>137.6</ele>
      </trkpt>
      <trkpt lat="43.96487" lon="0.42533">
        <ele>137.3</ele>
      </trkpt>
      <trkpt lat="43.96486" lon="0.42561">
        <ele>136.9</ele>
      </trkpt>
      <trkpt lat="43.96478" lon="0.42599">
        <ele>136.1</ele>
      </trkpt>
      <trkpt lat="43.96465" lon="0.42662">
        <ele>134.4</ele>
      </trkpt>
      <trkpt lat="43.96448" lon="0.42722">
        <ele>131.8</ele>
      </trkpt>
      <trkpt lat="43.96425" lon="0.42776">
        <ele>128.6</ele>
      </trkpt>
      <trkpt lat="43.96402" lon="0.42834">
        <ele>124.6</ele>
      </trkpt>
      <trkpt lat="43.96397" lon="0.42842">
        <ele>124.7</ele>
      </trkpt>
      <trkpt lat="43.96379" lon="0.42855">
        <ele>125</ele>
      </trkpt>
      <trkpt lat="43.9635" lon="0.42881">
        <ele>124.5</ele>
      </trkpt>
      <trkpt lat="43.96324" lon="0.42905">
        <ele>124.8</ele>
      </trkpt>
      <trkpt lat="43.96299" lon="0.42933">
        <ele>125.2</ele>
      </trkpt>
      <trkpt lat="43.96279" lon="0.42979">
        <ele>124.7</ele>
      </trkpt>
      <trkpt lat="43.96258" lon="0.43018">
        <ele>125.1</ele>
      </trkpt>
      <trkpt lat="43.96242" lon="0.43036">
        <ele>125</ele>
      </trkpt>
      <trkpt lat="43.96189" lon="0.43077">
        <ele>124.8</ele>
      </trkpt>
      <trkpt lat="43.96157" lon="0.43103">
        <ele>125.3</ele>
      </trkpt>
      <trkpt lat="43.96138" lon="0.43133">
        <ele>124.6</ele>
      </trkpt>
      <trkpt lat="43.96093" lon="0.43193">
        <ele>124.5</ele>
      </trkpt>
      <trkpt lat="43.96007" lon="0.43243">
        <ele>125.2</ele>
      </trkpt>
      <trkpt lat="43.95937" lon="0.43294">
        <ele>124.7</ele>
      </trkpt>
      <trkpt lat="43.95893" lon="0.43344">
        <ele>123.5</ele>
      </trkpt>
      <trkpt lat="43.95878" lon="0.4335">
        <ele>123.8</ele>
      </trkpt>
      <trkpt lat="43.95835" lon="0.43358">
        <ele>124.1</ele>
      </trkpt>
      <trkpt lat="43.95825" lon="0.43364">
        <ele>124.4</ele>
      </trkpt>
      <trkpt lat="43.95812" lon="0.43383">
        <ele>124.9</ele>
      </trkpt>
      <trkpt lat="43.95814" lon="0.4339">
        <ele>125.1</ele>
      </trkpt>
      <trkpt lat="43.95817" lon="0.43398">
        <ele>125.6</ele>
      </trkpt>
      <trkpt lat="43.95824" lon="0.434">
        <ele>125.8</ele>
      </trkpt>
      <trkpt lat="43.95873" lon="0.43401">
        <ele>125</ele>
      </trkpt>
      <trkpt lat="43.95942" lon="0.43392">
        <ele>126.3</ele>
      </trkpt>
      <trkpt lat="43.95953" lon="0.43399">
        <ele>126.8</ele>
      </trkpt>
      <trkpt lat="43.9595" lon="0.43408">
        <ele>127.9</ele>
      </trkpt>
      <trkpt lat="43.95948" lon="0.43424">
        <ele>129.9</ele>
      </trkpt>
      <trkpt lat="43.95948" lon="0.4348">
        <ele>137</ele>
      </trkpt>
      <trkpt lat="43.95939" lon="0.43537">
        <ele>141.3</ele>
      </trkpt>
      <trkpt lat="43.95923" lon="0.43615">
        <ele>144.7</ele>
      </trkpt>
      <trkpt lat="43.95908" lon="0.43634">
        <ele>146.3</ele>
      </trkpt>
      <trkpt lat="43.95909" lon="0.43655">
        <ele>146.1</ele>
      </trkpt>
      <trkpt lat="43.95906" lon="0.43738">
        <ele>147.8</ele>
      </trkpt>
      <trkpt lat="43.95912" lon="0.43824">
        <ele>150.8</ele>
      </trkpt>
      <trkpt lat="43.95926" lon="0.4402">
        <ele>161.4</ele>
      </trkpt>
      <trkpt lat="43.95926" lon="0.44071">
        <ele>164.6</ele>
      </trkpt>
      <trkpt lat="43.9599" lon="0.44037">
        <ele>164.1</ele>
      </trkpt>
      <trkpt lat="43.96024" lon="0.44028">
        <ele>164</ele>
      </trkpt>
      <trkpt lat="43.96057" lon="0.44021">
        <ele>164.7</ele>
      </trkpt>
      <trkpt lat="43.96144" lon="0.4403">
        <ele>160.9</ele>
      </trkpt>
      <trkpt lat="43.96209" lon="0.44048">
        <ele>160.7</ele>
      </trkpt>
      <trkpt lat="43.96324" lon="0.44081">
        <ele>167.2</ele>
      </trkpt>
      <trkpt lat="43.9635" lon="0.44095">
        <ele>168.8</ele>
      </trkpt>
      <trkpt lat="43.96379" lon="0.44114">
        <ele>168.3</ele>
      </trkpt>
      <trkpt lat="43.9639" lon="0.44116">
        <ele>167.9</ele>
      </trkpt>
      <trkpt lat="43.96392" lon="0.44129">
        <ele>167.8</ele>
      </trkpt>
      <trkpt lat="43.96385" lon="0.44155">
        <ele>167.1</ele>
      </trkpt>
      <trkpt lat="43.96376" lon="0.44175">
        <ele>166.3</ele>
      </trkpt>
      <trkpt lat="43.96348" lon="0.44219">
        <ele>164.7</ele>
      </trkpt>
      <trkpt lat="43.96343" lon="0.44229">
        <ele>164.1</ele>
      </trkpt>
      <trkpt lat="43.96344" lon="0.44245">
        <ele>163.6</ele>
      </trkpt>
      <trkpt lat="43.96348" lon="0.44257">
        <ele>163.3</ele>
      </trkpt>
      <trkpt lat="43.96356" lon="0.44276">
        <ele>163.5</ele>
      </trkpt>
      <trkpt lat="43.96382" lon="0.44317">
        <ele>161.2</ele>
      </trkpt>
      <trkpt lat="43.96395" lon="0.44331">
        <ele>159.9</ele>
      </trkpt>
      <trkpt lat="43.9645" lon="0.44381">
        <ele>155.4</ele>
      </trkpt>
      <trkpt lat="43.96458" lon="0.44395">
        <ele>154.4</ele>
      </trkpt>
      <trkpt lat="43.96458" lon="0.44406">
        <ele>154.2</ele>
      </trkpt>
      <trkpt lat="43.96457" lon="0.44418">
        <ele>154.1</ele>
      </trkpt>
      <trkpt lat="43.96452" lon="0.44456">
        <ele>152.9</ele>
      </trkpt>
      <trkpt lat="43.96449" lon="0.44476">
        <ele>152.5</ele>
      </trkpt>
      <trkpt lat="43.96448" lon="0.44527">
        <ele>151.6</ele>
      </trkpt>
      <trkpt lat="43.96441" lon="0.4457">
        <ele>151.4</ele>
      </trkpt>
      <trkpt lat="43.96436" lon="0.446">
        <ele>151.2</ele>
      </trkpt>
      <trkpt lat="43.96439" lon="0.44614">
        <ele>150.5</ele>
      </trkpt>
      <trkpt lat="43.96448" lon="0.44624">
        <ele>149.1</ele>
      </trkpt>
      <trkpt lat="43.96477" lon="0.44644">
        <ele>145.2</ele>
      </trkpt>
      <trkpt lat="43.96487" lon="0.44648">
        <ele>144</ele>
      </trkpt>
      <trkpt lat="43.96496" lon="0.44642">
        <ele>143.3</ele>
      </trkpt>
      <trkpt lat="43.96502" lon="0.44637">
        <ele>142.9</ele>
      </trkpt>
      <trkpt lat="43.96524" lon="0.44648">
        <ele>140.3</ele>
      </trkpt>
      <trkpt lat="43.96541" lon="0.44684">
        <ele>137.8</ele>
      </trkpt>
      <trkpt lat="43.96563" lon="0.4472">
        <ele>133.6</ele>
      </trkpt>
      <trkpt lat="43.96605" lon="0.44763">
        <ele>126.9</ele>
      </trkpt>
      <trkpt lat="43.96632" lon="0.4479">
        <ele>123.1</ele>
      </trkpt>
      <trkpt lat="43.96656" lon="0.44821">
        <ele>119.6</ele>
      </trkpt>
      <trkpt lat="43.96674" lon="0.44851">
        <ele>117.2</ele>
      </trkpt>
      <trkpt lat="43.96716" lon="0.44915">
        <ele>113.8</ele>
      </trkpt>
      <trkpt lat="43.96772" lon="0.45003">
        <ele>110.8</ele>
      </trkpt>
      <trkpt lat="43.96816" lon="0.45031">
        <ele>104.6</ele>
      </trkpt>
      <trkpt lat="43.96834" lon="0.45037">
        <ele>103.7</ele>
      </trkpt>
      <trkpt lat="43.96864" lon="0.45039">
        <ele>103.7</ele>
      </trkpt>
      <trkpt lat="43.96928" lon="0.45053">
        <ele>104.6</ele>
      </trkpt>
      <trkpt lat="43.9697" lon="0.45077">
        <ele>104.4</ele>
      </trkpt>
      <trkpt lat="43.96979" lon="0.4509">
        <ele>103.8</ele>
      </trkpt>
      <trkpt lat="43.9704" lon="0.45237">
        <ele>101</ele>
      </trkpt>
      <trkpt lat="43.97057" lon="0.45347">
        <ele>106.5</ele>
      </trkpt>
      <trkpt lat="43.97206" lon="0.45248">
        <ele>106.7</ele>
      </trkpt>
      <trkpt lat="43.97389" lon="0.45141">
        <ele>107.1</ele>
      </trkpt>
      <trkpt lat="43.97605" lon="0.45252">
        <ele>107.7</ele>
      </trkpt>
      <trkpt lat="43.97534" lon="0.45336">
        <ele>120.5</ele>
      </trkpt>
      <trkpt lat="43.9743" lon="0.45407">
        <ele>138</ele>
      </trkpt>
      <trkpt lat="43.97399" lon="0.4552">
        <ele>141.3</ele>
      </trkpt>
      <trkpt lat="43.97358" lon="0.45527">
        <ele>146.4</ele>
      </trkpt>
      <trkpt lat="43.97335" lon="0.45555">
        <ele>149.8</ele>
      </trkpt>
      <trkpt lat="43.97219" lon="0.4561">
        <ele>162.4</ele>
      </trkpt>
      <trkpt lat="43.97213" lon="0.45664">
        <ele>164.5</ele>
      </trkpt>
      <trkpt lat="43.97172" lon="0.4575">
        <ele>166.8</ele>
      </trkpt>
      <trkpt lat="43.97118" lon="0.45836">
        <ele>165.6</ele>
      </trkpt>
      <trkpt lat="43.97117" lon="0.45776">
        <ele>161.7</ele>
      </trkpt>
      <trkpt lat="43.97074" lon="0.45675">
        <ele>149.4</ele>
      </trkpt>
      <trkpt lat="43.97075" lon="0.45578">
        <ele>137.7</ele>
      </trkpt>
      <trkpt lat="43.97055" lon="0.45392">
        <ele>112.4</ele>
      </trkpt>
      <trkpt lat="43.97048" lon="0.45315">
        <ele>103.8</ele>
      </trkpt>
      <trkpt lat="43.97026" lon="0.4526">
        <ele>107.048</ele>
        <time>2016-08-11T11:24:09Z</time>
      </trkpt>
      <trkpt lat="43.96978" lon="0.45249">
        <ele>107.097</ele>
        <time>2016-08-11T11:24:09Z</time>
      </trkpt>
      <trkpt lat="43.96905" lon="0.45268">
        <ele>107.095</ele>
        <time>2016-08-11T11:24:09Z</time>
      </trkpt>
      <trkpt lat="43.96868" lon="0.45353">
        <ele>107.012</ele>
        <time>2016-08-11T11:24:09Z</time>
      </trkpt>
      <trkpt lat="43.96748" lon="0.45495">
        <ele>108.088</ele>
        <time>2016-08-11T11:24:09Z</time>
      </trkpt>
      <trkpt lat="43.96686" lon="0.45628">
        <ele>111.051</ele>
        <time>2016-08-11T11:24:09Z</time>
      </trkpt>
      <trkpt lat="43.96523" lon="0.45674">
        <ele>110.059</ele>
        <time>2016-08-11T11:24:09Z</time>
      </trkpt>
      <trkpt lat="43.96365" lon="0.45813">
        <ele>108.088</ele>
        <time>2016-08-11T11:24:09Z</time>
      </trkpt>
      <trkpt lat="43.96302" lon="0.45914">
        <ele>115.024</ele>
        <time>2016-08-11T11:24:09Z</time>
      </trkpt>
      <trkpt lat="43.96232" lon="0.45924">
        <ele>114.026</ele>
        <time>2016-08-11T11:24:09Z</time>
      </trkpt>
      <trkpt lat="43.96195" lon="0.45944">
        <ele>112.008</ele>
        <time>2016-08-11T11:24:09Z</time>
      </trkpt>
      <trkpt lat="43.96097" lon="0.46043">
        <ele>120.089</ele>
        <time>2016-08-11T11:24:09Z</time>
      </trkpt>
      <trkpt lat="43.96044" lon="0.46065">
        <ele>120.052</ele>
        <time>2016-08-11T11:24:09Z</time>
      </trkpt>
      <trkpt lat="43.95968" lon="0.46144">
        <ele>114.091</ele>
        <time>2016-08-11T11:24:09Z</time>
      </trkpt>
      <trkpt lat="43.95752" lon="0.46263">
        <ele>111.089</ele>
        <time>2016-08-11T11:24:09Z</time>
      </trkpt>
      <trkpt lat="43.9559" lon="0.4646">
        <ele>114.036</ele>
        <time>2016-08-11T11:24:09Z</time>
      </trkpt>
      <trkpt lat="43.95421" lon="0.46618">
        <ele>111.022</ele>
        <time>2016-08-11T11:24:09Z</time>
      </trkpt>
      <trkpt lat="43.95238" lon="0.46736">
        <ele>112.095</ele>
        <time>2016-08-11T11:24:09Z</time>
      </trkpt>
      <trkpt lat="43.95138" lon="0.46877">
        <ele>116.083</ele>
        <time>2016-08-11T11:24:09Z</time>
      </trkpt>
      <trkpt lat="43.95041" lon="0.47047">
        <ele>112.018</ele>
        <time>2016-08-11T11:24:09Z</time>
      </trkpt>
      <trkpt lat="43.94909" lon="0.47148">
        <ele>114.098</ele>
        <time>2016-08-11T11:24:09Z</time>
      </trkpt>
    </trkseg>
  </trk>
  <trk>
    <name><![CDATA[Sortie Caussens 2_3]]></name>
    <trkseg>
      <trkpt lat="43.94754" lon="0.46116">
        <ele>149.5</ele>
      </trkpt>
      <trkpt lat="43.94732" lon="0.46114">
        <ele>150.6</ele>
      </trkpt>
      <trkpt lat="43.94722" lon="0.46105">
        <ele>151</ele>
      </trkpt>
      <trkpt lat="43.94694" lon="0.46078">
        <ele>150.8</ele>
      </trkpt>
      <trkpt lat="43.94685" lon="0.46073">
        <ele>150.7</ele>
      </trkpt>
      <trkpt lat="43.94676" lon="0.46083">
        <ele>151</ele>
      </trkpt>
      <trkpt lat="43.94671" lon="0.46105">
        <ele>151</ele>
      </trkpt>
      <trkpt lat="43.94656" lon="0.46261">
        <ele>147.8</ele>
      </trkpt>
      <trkpt lat="43.9464" lon="0.46372">
        <ele>142.7</ele>
      </trkpt>
      <trkpt lat="43.94625" lon="0.46448">
        <ele>139.4</ele>
      </trkpt>
      <trkpt lat="43.94629" lon="0.46481">
        <ele>138.2</ele>
      </trkpt>
      <trkpt lat="43.9467" lon="0.4659">
        <ele>132</ele>
      </trkpt>
      <trkpt lat="43.94709" lon="0.4665">
        <ele>128.4</ele>
      </trkpt>
      <trkpt lat="43.94752" lon="0.46716">
        <ele>124.2</ele>
      </trkpt>
      <trkpt lat="43.948" lon="0.4678">
        <ele>120.2</ele>
      </trkpt>
      <trkpt lat="43.94834" lon="0.46836">
        <ele>117.8</ele>
      </trkpt>
      <trkpt lat="43.94845" lon="0.4687">
        <ele>115.5</ele>
      </trkpt>
      <trkpt lat="43.94854" lon="0.46934">
        <ele>112.3</ele>
      </trkpt>
      <trkpt lat="43.94862" lon="0.46996">
        <ele>111.1</ele>
      </trkpt>
      <trkpt lat="43.94869" lon="0.47056">
        <ele>111</ele>
      </trkpt>
      <trkpt lat="43.94873" lon="0.47077">
        <ele>111</ele>
      </trkpt>
      <trkpt lat="43.94884" lon="0.4711">
        <ele>111</ele>
      </trkpt>
      <trkpt lat="43.94895" lon="0.47134">
        <ele>111</ele>
      </trkpt>
      <trkpt lat="43.94901" lon="0.47144">
        <ele>111.1</ele>
      </trkpt>
      <trkpt lat="43.9491" lon="0.47152">
        <ele>114</ele>
        <time>2011-07-24T07:34:04Z</time>
      </trkpt>
      <trkpt lat="43.94917" lon="0.47193">
        <ele>114.5</ele>
        <time>2011-07-24T07:34:12Z</time>
      </trkpt>
      <trkpt lat="43.94917" lon="0.47213">
        <ele>115.3</ele>
        <time>2011-07-24T07:34:16Z</time>
      </trkpt>
      <trkpt lat="43.94898" lon="0.4725">
        <ele>115.7</ele>
        <time>2011-07-24T07:34:23Z</time>
      </trkpt>
      <trkpt lat="43.94886" lon="0.47289">
        <ele>115.7</ele>
        <time>2011-07-24T07:34:29Z</time>
      </trkpt>
      <trkpt lat="43.94874" lon="0.47329">
        <ele>115.6</ele>
        <time>2011-07-24T07:34:35Z</time>
      </trkpt>
      <trkpt lat="43.94862" lon="0.47367">
        <ele>115.6</ele>
        <time>2011-07-24T07:34:41Z</time>
      </trkpt>
      <trkpt lat="43.9485" lon="0.47403">
        <ele>115.5</ele>
        <time>2011-07-24T07:34:47Z</time>
      </trkpt>
      <trkpt lat="43.94838" lon="0.47438">
        <ele>115.5</ele>
        <time>2011-07-24T07:34:53Z</time>
      </trkpt>
      <trkpt lat="43.9483" lon="0.4746">
        <ele>115.5</ele>
        <time>2011-07-24T07:34:57Z</time>
      </trkpt>
      <trkpt lat="43.9482" lon="0.4748">
        <ele>115.5</ele>
        <time>2011-07-24T07:35:01Z</time>
      </trkpt>
      <trkpt lat="43.94803" lon="0.47517">
        <ele>115.5</ele>
        <time>2011-07-24T07:35:09Z</time>
      </trkpt>
      <trkpt lat="43.94822" lon="0.47553">
        <ele>116</ele>
        <time>2011-07-24T07:35:17Z</time>
      </trkpt>
      <trkpt lat="43.94833" lon="0.4757">
        <ele>117.2</ele>
        <time>2011-07-24T07:35:22Z</time>
      </trkpt>
      <trkpt lat="43.94844" lon="0.47584">
        <ele>118.5</ele>
        <time>2011-07-24T07:35:28Z</time>
      </trkpt>
      <trkpt lat="43.94855" lon="0.47596">
        <ele>120.6</ele>
        <time>2011-07-24T07:35:34Z</time>
      </trkpt>
      <trkpt lat="43.94865" lon="0.47609">
        <ele>123.3</ele>
        <time>2011-07-24T07:35:40Z</time>
      </trkpt>
      <trkpt lat="43.94872" lon="0.47628">
        <ele>126.2</ele>
        <time>2011-07-24T07:35:46Z</time>
      </trkpt>
      <trkpt lat="43.94874" lon="0.47649">
        <ele>128.1</ele>
        <time>2011-07-24T07:35:51Z</time>
      </trkpt>
      <trkpt lat="43.94876" lon="0.47668">
        <ele>129.2</ele>
        <time>2011-07-24T07:35:56Z</time>
      </trkpt>
      <trkpt lat="43.94878" lon="0.47688">
        <ele>129.9</ele>
        <time>2011-07-24T07:36:02Z</time>
      </trkpt>
      <trkpt lat="43.9488" lon="0.47708">
        <ele>131.3</ele>
        <time>2011-07-24T07:36:08Z</time>
      </trkpt>
      <trkpt lat="43.94881" lon="0.47728">
        <ele>132.5</ele>
        <time>2011-07-24T07:36:14Z</time>
      </trkpt>
      <trkpt lat="43.9488" lon="0.47748">
        <ele>133.2</ele>
        <time>2011-07-24T07:36:20Z</time>
      </trkpt>
      <trkpt lat="43.94875" lon="0.47769">
        <ele>134.7</ele>
        <time>2011-07-24T07:36:26Z</time>
      </trkpt>
      <trkpt lat="43.94869" lon="0.47789">
        <ele>135.9</ele>
        <time>2011-07-24T07:36:32Z</time>
      </trkpt>
      <trkpt lat="43.94861" lon="0.47807">
        <ele>136.9</ele>
        <time>2011-07-24T07:36:38Z</time>
      </trkpt>
      <trkpt lat="43.94854" lon="0.47825">
        <ele>138.4</ele>
        <time>2011-07-24T07:36:44Z</time>
      </trkpt>
      <trkpt lat="43.94844" lon="0.47838">
        <ele>138.8</ele>
        <time>2011-07-24T07:36:50Z</time>
      </trkpt>
      <trkpt lat="43.94833" lon="0.47852">
        <ele>139.9</ele>
        <time>2011-07-24T07:36:56Z</time>
      </trkpt>
      <trkpt lat="43.94825" lon="0.4787">
        <ele>140.3</ele>
        <time>2011-07-24T07:37:04Z</time>
      </trkpt>
      <trkpt lat="43.94837" lon="0.47883">
        <ele>140.3</ele>
        <time>2011-07-24T07:37:10Z</time>
      </trkpt>
      <trkpt lat="43.94851" lon="0.47893">
        <ele>140.5</ele>
        <time>2011-07-24T07:37:15Z</time>
      </trkpt>
      <trkpt lat="43.94866" lon="0.47904">
        <ele>142</ele>
        <time>2011-07-24T07:37:20Z</time>
      </trkpt>
      <trkpt lat="43.94881" lon="0.47914">
        <ele>142.6</ele>
        <time>2011-07-24T07:37:25Z</time>
      </trkpt>
      <trkpt lat="43.94895" lon="0.47924">
        <ele>143.9</ele>
        <time>2011-07-24T07:37:30Z</time>
      </trkpt>
      <trkpt lat="43.94908" lon="0.47931">
        <ele>144.6</ele>
        <time>2011-07-24T07:37:35Z</time>
      </trkpt>
      <trkpt lat="43.94923" lon="0.47939">
        <ele>146.1</ele>
        <time>2011-07-24T07:37:41Z</time>
      </trkpt>
      <trkpt lat="43.94937" lon="0.47948">
        <ele>147.4</ele>
        <time>2011-07-24T07:37:47Z</time>
      </trkpt>
      <trkpt lat="43.9494" lon="0.47971">
        <ele>150</ele>
      </trkpt>
      <trkpt lat="43.94928" lon="0.47992">
        <ele>148.1</ele>
        <time>2011-07-24T07:38:42Z</time>
      </trkpt>
      <trkpt lat="43.94912" lon="0.4803">
        <ele>149.3</ele>
        <time>2011-07-24T07:38:50Z</time>
      </trkpt>
      <trkpt lat="43.94898" lon="0.48066">
        <ele>150</ele>
        <time>2011-07-24T07:38:58Z</time>
      </trkpt>
      <trkpt lat="43.94887" lon="0.4811">
        <ele>151.3</ele>
        <time>2011-07-24T07:39:06Z</time>
      </trkpt>
      <trkpt lat="43.9488" lon="0.48154">
        <ele>151.8</ele>
        <time>2011-07-24T07:39:14Z</time>
      </trkpt>
      <trkpt lat="43.94876" lon="0.48176">
        <ele>152.3</ele>
        <time>2011-07-24T07:39:19Z</time>
      </trkpt>
      <trkpt lat="43.94872" lon="0.48195">
        <ele>153.1</ele>
        <time>2011-07-24T07:39:24Z</time>
      </trkpt>
      <trkpt lat="43.94868" lon="0.48215">
        <ele>153.5</ele>
        <time>2011-07-24T07:39:29Z</time>
      </trkpt>
      <trkpt lat="43.94863" lon="0.48235">
        <ele>153.9</ele>
        <time>2011-07-24T07:39:34Z</time>
      </trkpt>
      <trkpt lat="43.94857" lon="0.48253">
        <ele>154.7</ele>
        <time>2011-07-24T07:39:39Z</time>
      </trkpt>
      <trkpt lat="43.94851" lon="0.48271">
        <ele>155.5</ele>
        <time>2011-07-24T07:39:44Z</time>
      </trkpt>
      <trkpt lat="43.94845" lon="0.48292">
        <ele>156.3</ele>
        <time>2011-07-24T07:39:49Z</time>
      </trkpt>
      <trkpt lat="43.94839" lon="0.48314">
        <ele>157.3</ele>
        <time>2011-07-24T07:39:54Z</time>
      </trkpt>
      <trkpt lat="43.94835" lon="0.48332">
        <ele>157.5</ele>
        <time>2011-07-24T07:39:58Z</time>
      </trkpt>
      <trkpt lat="43.9483" lon="0.48372">
        <ele>158.8</ele>
        <time>2011-07-24T07:40:06Z</time>
      </trkpt>
      <trkpt lat="43.94828" lon="0.48393">
        <ele>159.1</ele>
        <time>2011-07-24T07:40:10Z</time>
      </trkpt>
      <trkpt lat="43.94828" lon="0.48436">
        <ele>159.7</ele>
        <time>2011-07-24T07:40:18Z</time>
      </trkpt>
      <trkpt lat="43.94829" lon="0.48479">
        <ele>160.8</ele>
        <time>2011-07-24T07:40:27Z</time>
      </trkpt>
      <trkpt lat="43.94827" lon="0.485">
        <ele>161</ele>
        <time>2011-07-24T07:40:32Z</time>
      </trkpt>
      <trkpt lat="43.94823" lon="0.4852">
        <ele>161.9</ele>
        <time>2011-07-24T07:40:37Z</time>
      </trkpt>
      <trkpt lat="43.94814" lon="0.48559">
        <ele>164.2</ele>
        <time>2011-07-24T07:40:45Z</time>
      </trkpt>
      <trkpt lat="43.94807" lon="0.48577">
        <ele>165.1</ele>
        <time>2011-07-24T07:40:49Z</time>
      </trkpt>
      <trkpt lat="43.94789" lon="0.48615">
        <ele>166.4</ele>
        <time>2011-07-24T07:40:57Z</time>
      </trkpt>
      <trkpt lat="43.94774" lon="0.4865">
        <ele>166.9</ele>
        <time>2011-07-24T07:41:03Z</time>
      </trkpt>
      <trkpt lat="43.94759" lon="0.48684">
        <ele>166.6</ele>
        <time>2011-07-24T07:41:09Z</time>
      </trkpt>
      <trkpt lat="43.94741" lon="0.48724">
        <ele>166.3</ele>
        <time>2011-07-24T07:41:16Z</time>
      </trkpt>
      <trkpt lat="43.94726" lon="0.48758">
        <ele>166.1</ele>
        <time>2011-07-24T07:41:22Z</time>
      </trkpt>
      <trkpt lat="43.94716" lon="0.48794">
        <ele>166.7</ele>
        <time>2011-07-24T07:41:28Z</time>
      </trkpt>
      <trkpt lat="43.9471" lon="0.48836">
        <ele>167.2</ele>
        <time>2011-07-24T07:41:35Z</time>
      </trkpt>
      <trkpt lat="43.94707" lon="0.48858">
        <ele>167.4</ele>
        <time>2011-07-24T07:41:39Z</time>
      </trkpt>
      <trkpt lat="43.94701" lon="0.48899">
        <ele>167.8</ele>
        <time>2011-07-24T07:41:45Z</time>
      </trkpt>
      <trkpt lat="43.94699" lon="0.48939">
        <ele>168</ele>
        <time>2011-07-24T07:41:51Z</time>
      </trkpt>
      <trkpt lat="43.94713" lon="0.48948">
        <ele>167.3</ele>
        <time>2011-07-24T07:41:55Z</time>
      </trkpt>
      <trkpt lat="43.94748" lon="0.48951">
        <ele>165.3</ele>
        <time>2011-07-24T07:42:02Z</time>
      </trkpt>
      <trkpt lat="43.94772" lon="0.48951">
        <ele>163.9</ele>
        <time>2011-07-24T07:42:06Z</time>
      </trkpt>
      <trkpt lat="43.94809" lon="0.4895">
        <ele>161.3</ele>
        <time>2011-07-24T07:42:12Z</time>
      </trkpt>
      <trkpt lat="43.94843" lon="0.48943">
        <ele>159.2</ele>
        <time>2011-07-24T07:42:18Z</time>
      </trkpt>
      <trkpt lat="43.94873" lon="0.48927">
        <ele>157.4</ele>
        <time>2011-07-24T07:42:24Z</time>
      </trkpt>
      <trkpt lat="43.94902" lon="0.48934">
        <ele>155.8</ele>
        <time>2011-07-24T07:42:30Z</time>
      </trkpt>
      <trkpt lat="43.94936" lon="0.48946">
        <ele>153.4</ele>
        <time>2011-07-24T07:42:36Z</time>
      </trkpt>
      <trkpt lat="43.9497" lon="0.48958">
        <ele>151</ele>
        <time>2011-07-24T07:42:41Z</time>
      </trkpt>
      <trkpt lat="43.94998" lon="0.48971">
        <ele>148.5</ele>
        <time>2011-07-24T07:42:45Z</time>
      </trkpt>
      <trkpt lat="43.95028" lon="0.48985">
        <ele>145.9</ele>
        <time>2011-07-24T07:42:49Z</time>
      </trkpt>
      <trkpt lat="43.95069" lon="0.49009">
        <ele>143.1</ele>
        <time>2011-07-24T07:42:54Z</time>
      </trkpt>
      <trkpt lat="43.95111" lon="0.49036">
        <ele>142.5</ele>
        <time>2011-07-24T07:43:00Z</time>
      </trkpt>
      <trkpt lat="43.95147" lon="0.49037">
        <ele>143.3</ele>
        <time>2011-07-24T07:43:06Z</time>
      </trkpt>
      <trkpt lat="43.95177" lon="0.49025">
        <ele>145.6</ele>
        <time>2011-07-24T07:43:13Z</time>
      </trkpt>
      <trkpt lat="43.95206" lon="0.49015">
        <ele>148.4</ele>
        <time>2011-07-24T07:43:21Z</time>
      </trkpt>
      <trkpt lat="43.95233" lon="0.49007">
        <ele>151.9</ele>
        <time>2011-07-24T07:43:29Z</time>
      </trkpt>
      <trkpt lat="43.95247" lon="0.49004">
        <ele>153.7</ele>
        <time>2011-07-24T07:43:33Z</time>
      </trkpt>
      <trkpt lat="43.95263" lon="0.49002">
        <ele>154.2</ele>
        <time>2011-07-24T07:43:38Z</time>
      </trkpt>
      <trkpt lat="43.95279" lon="0.49002">
        <ele>153.5</ele>
        <time>2011-07-24T07:43:42Z</time>
      </trkpt>
      <trkpt lat="43.95312" lon="0.48998">
        <ele>151.8</ele>
        <time>2011-07-24T07:43:47Z</time>
      </trkpt>
      <trkpt lat="43.95349" lon="0.48992">
        <ele>150.6</ele>
        <time>2011-07-24T07:43:53Z</time>
      </trkpt>
      <trkpt lat="43.95383" lon="0.48988">
        <ele>150.5</ele>
        <time>2011-07-24T07:43:59Z</time>
      </trkpt>
      <trkpt lat="43.95412" lon="0.48988">
        <ele>151.6</ele>
        <time>2011-07-24T07:44:05Z</time>
      </trkpt>
      <trkpt lat="43.95427" lon="0.48997">
        <ele>153.5</ele>
        <time>2011-07-24T07:44:09Z</time>
      </trkpt>
      <trkpt lat="43.95454" lon="0.49015">
        <ele>155.7</ele>
        <time>2011-07-24T07:44:17Z</time>
      </trkpt>
      <trkpt lat="43.95467" lon="0.49023">
        <ele>156.7</ele>
        <time>2011-07-24T07:44:22Z</time>
      </trkpt>
      <trkpt lat="43.9548" lon="0.49032">
        <ele>158</ele>
        <time>2011-07-24T07:44:28Z</time>
      </trkpt>
      <trkpt lat="43.95494" lon="0.4904">
        <ele>159.5</ele>
        <time>2011-07-24T07:44:34Z</time>
      </trkpt>
      <trkpt lat="43.95507" lon="0.49047">
        <ele>160.9</ele>
        <time>2011-07-24T07:44:40Z</time>
      </trkpt>
      <trkpt lat="43.95521" lon="0.49055">
        <ele>162</ele>
        <time>2011-07-24T07:44:46Z</time>
      </trkpt>
      <trkpt lat="43.95535" lon="0.49063">
        <ele>162.8</ele>
        <time>2011-07-24T07:44:53Z</time>
      </trkpt>
      <trkpt lat="43.95548" lon="0.49072">
        <ele>164</ele>
        <time>2011-07-24T07:45:00Z</time>
      </trkpt>
      <trkpt lat="43.95561" lon="0.49083">
        <ele>166</ele>
        <time>2011-07-24T07:45:07Z</time>
      </trkpt>
      <trkpt lat="43.95574" lon="0.49093">
        <ele>167.9</ele>
        <time>2011-07-24T07:45:13Z</time>
      </trkpt>
      <trkpt lat="43.95587" lon="0.49105">
        <ele>169.8</ele>
        <time>2011-07-24T07:45:19Z</time>
      </trkpt>
      <trkpt lat="43.95599" lon="0.49113">
        <ele>171</ele>
        <time>2011-07-24T07:45:25Z</time>
      </trkpt>
      <trkpt lat="43.95613" lon="0.49119">
        <ele>171.6</ele>
        <time>2011-07-24T07:45:32Z</time>
      </trkpt>
      <trkpt lat="43.95627" lon="0.49123">
        <ele>170</ele>
        <time>2011-07-24T07:45:37Z</time>
      </trkpt>
      <trkpt lat="43.95661" lon="0.49122">
        <ele>165.7</ele>
        <time>2011-07-24T07:45:43Z</time>
      </trkpt>
      <trkpt lat="43.95696" lon="0.4912">
        <ele>162.4</ele>
        <time>2011-07-24T07:45:48Z</time>
      </trkpt>
      <trkpt lat="43.95727" lon="0.49119">
        <ele>160.1</ele>
        <time>2011-07-24T07:45:52Z</time>
      </trkpt>
      <trkpt lat="43.95759" lon="0.49116">
        <ele>158.4</ele>
        <time>2011-07-24T07:45:56Z</time>
      </trkpt>
      <trkpt lat="43.95809" lon="0.4911">
        <ele>155.3</ele>
        <time>2011-07-24T07:46:02Z</time>
      </trkpt>
      <trkpt lat="43.95862" lon="0.49106">
        <ele>151.4</ele>
        <time>2011-07-24T07:46:08Z</time>
      </trkpt>
      <trkpt lat="43.95895" lon="0.49101">
        <ele>148.4</ele>
        <time>2011-07-24T07:46:12Z</time>
      </trkpt>
      <trkpt lat="43.95925" lon="0.49105">
        <ele>146.6</ele>
        <time>2011-07-24T07:46:16Z</time>
      </trkpt>
      <trkpt lat="43.95955" lon="0.49118">
        <ele>148.8</ele>
        <time>2011-07-24T07:46:27Z</time>
      </trkpt>
      <trkpt lat="43.95968" lon="0.49123">
        <ele>151.6</ele>
        <time>2011-07-24T07:46:36Z</time>
      </trkpt>
      <trkpt lat="43.95983" lon="0.49129">
        <ele>154.7</ele>
        <time>2011-07-24T07:46:45Z</time>
      </trkpt>
      <trkpt lat="43.95996" lon="0.49136">
        <ele>156.7</ele>
        <time>2011-07-24T07:46:52Z</time>
      </trkpt>
      <trkpt lat="43.96009" lon="0.49145">
        <ele>158.2</ele>
        <time>2011-07-24T07:46:59Z</time>
      </trkpt>
      <trkpt lat="43.96019" lon="0.49157">
        <ele>159.3</ele>
        <time>2011-07-24T07:47:06Z</time>
      </trkpt>
      <trkpt lat="43.96028" lon="0.49171">
        <ele>160.9</ele>
        <time>2011-07-24T07:47:13Z</time>
      </trkpt>
      <trkpt lat="43.96038" lon="0.49185">
        <ele>161.9</ele>
        <time>2011-07-24T07:47:20Z</time>
      </trkpt>
      <trkpt lat="43.96048" lon="0.49202">
        <ele>163.1</ele>
        <time>2011-07-24T07:47:28Z</time>
      </trkpt>
      <trkpt lat="43.96056" lon="0.49217">
        <ele>164.2</ele>
        <time>2011-07-24T07:47:35Z</time>
      </trkpt>
      <trkpt lat="43.96065" lon="0.49232">
        <ele>165.1</ele>
        <time>2011-07-24T07:47:43Z</time>
      </trkpt>
      <trkpt lat="43.96076" lon="0.49248">
        <ele>165.3</ele>
        <time>2011-07-24T07:47:49Z</time>
      </trkpt>
      <trkpt lat="43.96088" lon="0.49264">
        <ele>165</ele>
        <time>2011-07-24T07:47:54Z</time>
      </trkpt>
      <trkpt lat="43.96098" lon="0.49281">
        <ele>164.8</ele>
        <time>2011-07-24T07:47:58Z</time>
      </trkpt>
      <trkpt lat="43.96112" lon="0.4932">
        <ele>166.2</ele>
        <time>2011-07-24T07:48:06Z</time>
      </trkpt>
      <trkpt lat="43.96118" lon="0.49338">
        <ele>167.3</ele>
        <time>2011-07-24T07:48:10Z</time>
      </trkpt>
      <trkpt lat="43.96137" lon="0.49366">
        <ele>168.3</ele>
        <time>2011-07-24T07:48:18Z</time>
      </trkpt>
      <trkpt lat="43.96152" lon="0.49371">
        <ele>168.8</ele>
        <time>2011-07-24T07:48:23Z</time>
      </trkpt>
      <trkpt lat="43.96168" lon="0.49377">
        <ele>169.4</ele>
        <time>2011-07-24T07:48:28Z</time>
      </trkpt>
      <trkpt lat="43.96182" lon="0.49385">
        <ele>170.3</ele>
        <time>2011-07-24T07:48:33Z</time>
      </trkpt>
      <trkpt lat="43.96195" lon="0.49393">
        <ele>171.2</ele>
        <time>2011-07-24T07:48:39Z</time>
      </trkpt>
      <trkpt lat="43.96209" lon="0.49401">
        <ele>172</ele>
        <time>2011-07-24T07:48:47Z</time>
      </trkpt>
      <trkpt lat="43.96222" lon="0.49407">
        <ele>173.5</ele>
        <time>2011-07-24T07:48:54Z</time>
      </trkpt>
      <trkpt lat="43.96236" lon="0.49411">
        <ele>175.5</ele>
        <time>2011-07-24T07:49:02Z</time>
      </trkpt>
      <trkpt lat="43.9625" lon="0.49416">
        <ele>177.3</ele>
        <time>2011-07-24T07:49:09Z</time>
      </trkpt>
      <trkpt lat="43.96267" lon="0.49422">
        <ele>180.2</ele>
        <time>2011-07-24T07:49:18Z</time>
      </trkpt>
      <trkpt lat="43.96281" lon="0.49428">
        <ele>181.5</ele>
        <time>2011-07-24T07:49:25Z</time>
      </trkpt>
      <trkpt lat="43.96288" lon="0.49432">
        <ele>182.6</ele>
        <time>2011-07-24T07:49:29Z</time>
      </trkpt>
      <trkpt lat="43.96303" lon="0.49438">
        <ele>185.1</ele>
        <time>2011-07-24T07:49:36Z</time>
      </trkpt>
      <trkpt lat="43.96318" lon="0.49445">
        <ele>186.3</ele>
        <time>2011-07-24T07:49:43Z</time>
      </trkpt>
      <trkpt lat="43.96331" lon="0.49452">
        <ele>188.1</ele>
        <time>2011-07-24T07:49:49Z</time>
      </trkpt>
      <trkpt lat="43.96345" lon="0.49458">
        <ele>189.4</ele>
        <time>2011-07-24T07:49:56Z</time>
      </trkpt>
      <trkpt lat="43.96359" lon="0.49465">
        <ele>191</ele>
        <time>2011-07-24T07:50:02Z</time>
      </trkpt>
      <trkpt lat="43.96373" lon="0.49469">
        <ele>193.2</ele>
        <time>2011-07-24T07:50:09Z</time>
      </trkpt>
      <trkpt lat="43.96388" lon="0.49468">
        <ele>196.2</ele>
        <time>2011-07-24T07:50:16Z</time>
      </trkpt>
      <trkpt lat="43.96404" lon="0.49471">
        <ele>198.4</ele>
        <time>2011-07-24T07:50:24Z</time>
      </trkpt>
      <trkpt lat="43.96418" lon="0.49482">
        <ele>200.7</ele>
        <time>2011-07-24T07:50:36Z</time>
      </trkpt>
      <trkpt lat="43.96418" lon="0.49484">
        <ele>200.9</ele>
        <time>2011-07-24T07:50:40Z</time>
      </trkpt>
      <trkpt lat="43.96416" lon="0.49465">
        <ele>201</ele>
        <time>2011-07-24T07:52:40Z</time>
      </trkpt>
      <trkpt lat="43.96423" lon="0.4948">
        <ele>201.3</ele>
        <time>2011-07-24T07:53:41Z</time>
      </trkpt>
      <trkpt lat="43.96421" lon="0.495">
        <ele>201.6</ele>
        <time>2011-07-24T07:53:50Z</time>
      </trkpt>
      <trkpt lat="43.96419" lon="0.4952">
        <ele>201.9</ele>
        <time>2011-07-24T07:53:59Z</time>
      </trkpt>
      <trkpt lat="43.96416" lon="0.49538">
        <ele>202.2</ele>
        <time>2011-07-24T07:54:05Z</time>
      </trkpt>
      <trkpt lat="43.96405" lon="0.49568">
        <ele>203.2</ele>
        <time>2011-07-24T07:54:12Z</time>
      </trkpt>
      <trkpt lat="43.96395" lon="0.49587">
        <ele>203.8</ele>
        <time>2011-07-24T07:54:17Z</time>
      </trkpt>
      <trkpt lat="43.96385" lon="0.49605">
        <ele>204.2</ele>
        <time>2011-07-24T07:54:22Z</time>
      </trkpt>
      <trkpt lat="43.96373" lon="0.49628">
        <ele>204.8</ele>
        <time>2011-07-24T07:54:28Z</time>
      </trkpt>
      <trkpt lat="43.96363" lon="0.49643">
        <ele>205.3</ele>
        <time>2011-07-24T07:54:33Z</time>
      </trkpt>
      <trkpt lat="43.96348" lon="0.49659">
        <ele>206</ele>
        <time>2011-07-24T07:54:39Z</time>
      </trkpt>
      <trkpt lat="43.96338" lon="0.49673">
        <ele>206.6</ele>
        <time>2011-07-24T07:54:44Z</time>
      </trkpt>
      <trkpt lat="43.9632" lon="0.497">
        <ele>207.4</ele>
        <time>2011-07-24T07:54:51Z</time>
      </trkpt>
      <trkpt lat="43.9631" lon="0.49714">
        <ele>208.1</ele>
        <time>2011-07-24T07:54:55Z</time>
      </trkpt>
      <trkpt lat="43.96297" lon="0.49734">
        <ele>208.8</ele>
        <time>2011-07-24T07:55:01Z</time>
      </trkpt>
      <trkpt lat="43.96286" lon="0.49751">
        <ele>209.4</ele>
        <time>2011-07-24T07:55:06Z</time>
      </trkpt>
      <trkpt lat="43.96276" lon="0.49768">
        <ele>210</ele>
        <time>2011-07-24T07:55:11Z</time>
      </trkpt>
      <trkpt lat="43.96267" lon="0.49785">
        <ele>210.6</ele>
        <time>2011-07-24T07:55:16Z</time>
      </trkpt>
      <trkpt lat="43.96259" lon="0.49804">
        <ele>211.5</ele>
        <time>2011-07-24T07:55:21Z</time>
      </trkpt>
      <trkpt lat="43.9625" lon="0.49822">
        <ele>212.3</ele>
        <time>2011-07-24T07:55:26Z</time>
      </trkpt>
      <trkpt lat="43.96241" lon="0.4984">
        <ele>213</ele>
        <time>2011-07-24T07:55:31Z</time>
      </trkpt>
      <trkpt lat="43.96232" lon="0.49868">
        <ele>213.9</ele>
        <time>2011-07-24T07:55:38Z</time>
      </trkpt>
      <trkpt lat="43.96225" lon="0.49889">
        <ele>214.7</ele>
        <time>2011-07-24T07:55:43Z</time>
      </trkpt>
      <trkpt lat="43.96217" lon="0.49908">
        <ele>215.5</ele>
        <time>2011-07-24T07:55:48Z</time>
      </trkpt>
      <trkpt lat="43.9621" lon="0.49925">
        <ele>216.1</ele>
        <time>2011-07-24T07:55:52Z</time>
      </trkpt>
      <trkpt lat="43.96203" lon="0.49947">
        <ele>216.7</ele>
        <time>2011-07-24T07:55:57Z</time>
      </trkpt>
      <trkpt lat="43.96198" lon="0.49966">
        <ele>217.3</ele>
        <time>2011-07-24T07:56:01Z</time>
      </trkpt>
      <trkpt lat="43.96186" lon="0.5">
        <ele>218.3</ele>
        <time>2011-07-24T07:56:09Z</time>
      </trkpt>
      <trkpt lat="43.96178" lon="0.50022">
        <ele>218.6</ele>
        <time>2011-07-24T07:56:14Z</time>
      </trkpt>
      <trkpt lat="43.96171" lon="0.5004">
        <ele>218.9</ele>
        <time>2011-07-24T07:56:18Z</time>
      </trkpt>
      <trkpt lat="43.96157" lon="0.50074">
        <ele>219.7</ele>
        <time>2011-07-24T07:56:26Z</time>
      </trkpt>
      <trkpt lat="43.9615" lon="0.50092">
        <ele>220.2</ele>
        <time>2011-07-24T07:56:30Z</time>
      </trkpt>
      <trkpt lat="43.96134" lon="0.50132">
        <ele>220.5</ele>
        <time>2011-07-24T07:56:38Z</time>
      </trkpt>
      <trkpt lat="43.96131" lon="0.50152">
        <ele>220.3</ele>
        <time>2011-07-24T07:56:42Z</time>
      </trkpt>
      <trkpt lat="43.96117" lon="0.50188">
        <ele>220.2</ele>
        <time>2011-07-24T07:56:49Z</time>
      </trkpt>
      <trkpt lat="43.96093" lon="0.50218">
        <ele>219.7</ele>
        <time>2011-07-24T07:56:57Z</time>
      </trkpt>
      <trkpt lat="43.96085" lon="0.50234">
        <ele>219.3</ele>
        <time>2011-07-24T07:57:01Z</time>
      </trkpt>
      <trkpt lat="43.96072" lon="0.50247">
        <ele>218.6</ele>
        <time>2011-07-24T07:57:06Z</time>
      </trkpt>
      <trkpt lat="43.96046" lon="0.50263">
        <ele>217.7</ele>
        <time>2011-07-24T07:57:14Z</time>
      </trkpt>
      <trkpt lat="43.9603" lon="0.50273">
        <ele>217.2</ele>
        <time>2011-07-24T07:57:19Z</time>
      </trkpt>
      <trkpt lat="43.95994" lon="0.50289">
        <ele>216.2</ele>
        <time>2011-07-24T07:57:25Z</time>
      </trkpt>
      <trkpt lat="43.9596" lon="0.50316">
        <ele>215.4</ele>
        <time>2011-07-24T07:57:31Z</time>
      </trkpt>
      <trkpt lat="43.95934" lon="0.50352">
        <ele>215.3</ele>
        <time>2011-07-24T07:57:37Z</time>
      </trkpt>
      <trkpt lat="43.95913" lon="0.50385">
        <ele>215.5</ele>
        <time>2011-07-24T07:57:43Z</time>
      </trkpt>
      <trkpt lat="43.95893" lon="0.50416">
        <ele>215.8</ele>
        <time>2011-07-24T07:57:49Z</time>
      </trkpt>
      <trkpt lat="43.95869" lon="0.50447">
        <ele>216</ele>
        <time>2011-07-24T07:57:55Z</time>
      </trkpt>
      <trkpt lat="43.95845" lon="0.50473">
        <ele>216.1</ele>
        <time>2011-07-24T07:58:01Z</time>
      </trkpt>
      <trkpt lat="43.95819" lon="0.50499">
        <ele>216.1</ele>
        <time>2011-07-24T07:58:07Z</time>
      </trkpt>
      <trkpt lat="43.95795" lon="0.50526">
        <ele>215.9</ele>
        <time>2011-07-24T07:58:13Z</time>
      </trkpt>
      <trkpt lat="43.95768" lon="0.50549">
        <ele>215.4</ele>
        <time>2011-07-24T07:58:19Z</time>
      </trkpt>
      <trkpt lat="43.95741" lon="0.50569">
        <ele>214.7</ele>
        <time>2011-07-24T07:58:25Z</time>
      </trkpt>
      <trkpt lat="43.95713" lon="0.50587">
        <ele>213.8</ele>
        <time>2011-07-24T07:58:31Z</time>
      </trkpt>
      <trkpt lat="43.95678" lon="0.50606">
        <ele>212.5</ele>
        <time>2011-07-24T07:58:37Z</time>
      </trkpt>
      <trkpt lat="43.95646" lon="0.50627">
        <ele>211.3</ele>
        <time>2011-07-24T07:58:42Z</time>
      </trkpt>
      <trkpt lat="43.95604" lon="0.50655">
        <ele>209.9</ele>
        <time>2011-07-24T07:58:48Z</time>
      </trkpt>
      <trkpt lat="43.95571" lon="0.50677">
        <ele>209</ele>
        <time>2011-07-24T07:58:53Z</time>
      </trkpt>
      <trkpt lat="43.95545" lon="0.5069">
        <ele>208.4</ele>
        <time>2011-07-24T07:58:57Z</time>
      </trkpt>
      <trkpt lat="43.95501" lon="0.50703">
        <ele>207.8</ele>
        <time>2011-07-24T07:59:03Z</time>
      </trkpt>
      <trkpt lat="43.95473" lon="0.50708">
        <ele>207.6</ele>
        <time>2011-07-24T07:59:07Z</time>
      </trkpt>
      <trkpt lat="43.95445" lon="0.50713">
        <ele>207.5</ele>
        <time>2011-07-24T07:59:11Z</time>
      </trkpt>
      <trkpt lat="43.95404" lon="0.50721">
        <ele>207.7</ele>
        <time>2011-07-24T07:59:17Z</time>
      </trkpt>
      <trkpt lat="43.95366" lon="0.50737">
        <ele>208.2</ele>
        <time>2011-07-24T07:59:23Z</time>
      </trkpt>
      <trkpt lat="43.95331" lon="0.50758">
        <ele>209.3</ele>
        <time>2011-07-24T07:59:29Z</time>
      </trkpt>
      <trkpt lat="43.95299" lon="0.50782">
        <ele>210.6</ele>
        <time>2011-07-24T07:59:35Z</time>
      </trkpt>
      <trkpt lat="43.95271" lon="0.50801">
        <ele>211.9</ele>
        <time>2011-07-24T07:59:41Z</time>
      </trkpt>
      <trkpt lat="43.95256" lon="0.50813">
        <ele>212.7</ele>
        <time>2011-07-24T07:59:45Z</time>
      </trkpt>
      <trkpt lat="43.95232" lon="0.50835">
        <ele>214</ele>
        <time>2011-07-24T07:59:51Z</time>
      </trkpt>
      <trkpt lat="43.95209" lon="0.50868">
        <ele>215.4</ele>
        <time>2011-07-24T07:59:57Z</time>
      </trkpt>
      <trkpt lat="43.9519" lon="0.50897">
        <ele>216</ele>
        <time>2011-07-24T08:00:03Z</time>
      </trkpt>
      <trkpt lat="43.95168" lon="0.50928">
        <ele>216.3</ele>
        <time>2011-07-24T08:00:10Z</time>
      </trkpt>
      <trkpt lat="43.95136" lon="0.50945">
        <ele>216</ele>
        <time>2011-07-24T08:00:18Z</time>
      </trkpt>
      <trkpt lat="43.95109" lon="0.50957">
        <ele>215.1</ele>
        <time>2011-07-24T08:00:24Z</time>
      </trkpt>
      <trkpt lat="43.95075" lon="0.50972">
        <ele>213.2</ele>
        <time>2011-07-24T08:00:30Z</time>
      </trkpt>
      <trkpt lat="43.95033" lon="0.50981">
        <ele>209.8</ele>
        <time>2011-07-24T08:00:36Z</time>
      </trkpt>
      <trkpt lat="43.9501" lon="0.50949">
        <ele>206.9</ele>
        <time>2011-07-24T08:00:40Z</time>
      </trkpt>
      <trkpt lat="43.94979" lon="0.50898">
        <ele>203.9</ele>
        <time>2011-07-24T08:00:46Z</time>
      </trkpt>
      <trkpt lat="43.94953" lon="0.50857">
        <ele>201.8</ele>
        <time>2011-07-24T08:00:52Z</time>
      </trkpt>
      <trkpt lat="43.9494" lon="0.50871">
        <ele>198.8</ele>
        <time>2011-07-24T08:00:59Z</time>
      </trkpt>
      <trkpt lat="43.94933" lon="0.50921">
        <ele>195</ele>
        <time>2011-07-24T08:01:04Z</time>
      </trkpt>
      <trkpt lat="43.94904" lon="0.50985">
        <ele>191.4</ele>
        <time>2011-07-24T08:01:10Z</time>
      </trkpt>
      <trkpt lat="43.94859" lon="0.51034">
        <ele>188.3</ele>
        <time>2011-07-24T08:01:16Z</time>
      </trkpt>
      <trkpt lat="43.94814" lon="0.51082">
        <ele>186.3</ele>
        <time>2011-07-24T08:01:22Z</time>
      </trkpt>
      <trkpt lat="43.9478" lon="0.51146">
        <ele>184.7</ele>
        <time>2011-07-24T08:01:28Z</time>
      </trkpt>
      <trkpt lat="43.94757" lon="0.51186">
        <ele>183.7</ele>
        <time>2011-07-24T08:01:32Z</time>
      </trkpt>
      <trkpt lat="43.94752" lon="0.51223">
        <ele>183.7</ele>
        <time>2011-07-24T08:01:37Z</time>
      </trkpt>
      <trkpt lat="43.94776" lon="0.51245">
        <ele>185.8</ele>
        <time>2011-07-24T08:01:43Z</time>
      </trkpt>
      <trkpt lat="43.948" lon="0.51267">
        <ele>189.5</ele>
        <time>2011-07-24T08:01:49Z</time>
      </trkpt>
      <trkpt lat="43.94826" lon="0.51287">
        <ele>191.9</ele>
        <time>2011-07-24T08:01:56Z</time>
      </trkpt>
      <trkpt lat="43.94838" lon="0.51295">
        <ele>192.4</ele>
        <time>2011-07-24T08:02:00Z</time>
      </trkpt>
      <trkpt lat="43.94853" lon="0.51311">
        <ele>191.7</ele>
        <time>2011-07-24T08:02:04Z</time>
      </trkpt>
      <trkpt lat="43.94885" lon="0.51368">
        <ele>187.1</ele>
        <time>2011-07-24T08:02:10Z</time>
      </trkpt>
      <trkpt lat="43.94908" lon="0.51464">
        <ele>180</ele>
        <time>2011-07-24T08:02:16Z</time>
      </trkpt>
      <trkpt lat="43.94956" lon="0.51538">
        <ele>176.8</ele>
        <time>2011-07-24T08:02:22Z</time>
      </trkpt>
      <trkpt lat="43.94983" lon="0.51579">
        <ele>177.7</ele>
        <time>2011-07-24T08:02:26Z</time>
      </trkpt>
      <trkpt lat="43.95003" lon="0.5162">
        <ele>179</ele>
        <time>2011-07-24T08:02:31Z</time>
      </trkpt>
      <trkpt lat="43.9501" lon="0.51677">
        <ele>179.5</ele>
        <time>2011-07-24T08:02:37Z</time>
      </trkpt>
      <trkpt lat="43.95027" lon="0.51716">
        <ele>180.6</ele>
        <time>2011-07-24T08:02:44Z</time>
      </trkpt>
      <trkpt lat="43.95054" lon="0.51726">
        <ele>182.2</ele>
        <time>2011-07-24T08:02:50Z</time>
      </trkpt>
      <trkpt lat="43.95084" lon="0.51739">
        <ele>183.5</ele>
        <time>2011-07-24T08:02:57Z</time>
      </trkpt>
      <trkpt lat="43.95099" lon="0.51744">
        <ele>184.3</ele>
        <time>2011-07-24T08:03:01Z</time>
      </trkpt>
      <trkpt lat="43.9511" lon="0.5173">
        <ele>184.7</ele>
        <time>2011-07-24T08:03:07Z</time>
      </trkpt>
      <trkpt lat="43.95121" lon="0.51694">
        <ele>185.4</ele>
        <time>2011-07-24T08:03:15Z</time>
      </trkpt>
      <trkpt lat="43.95136" lon="0.51657">
        <ele>186.2</ele>
        <time>2011-07-24T08:03:23Z</time>
      </trkpt>
      <trkpt lat="43.95146" lon="0.5164">
        <ele>186.5</ele>
        <time>2011-07-24T08:03:27Z</time>
      </trkpt>
      <trkpt lat="43.95169" lon="0.51623">
        <ele>186.8</ele>
        <time>2011-07-24T08:03:36Z</time>
      </trkpt>
      <trkpt lat="43.95176" lon="0.51644">
        <ele>186.5</ele>
        <time>2011-07-24T08:03:40Z</time>
      </trkpt>
      <trkpt lat="43.95188" lon="0.5168">
        <ele>185.9</ele>
        <time>2011-07-24T08:03:46Z</time>
      </trkpt>
      <trkpt lat="43.952" lon="0.51718">
        <ele>185.2</ele>
        <time>2011-07-24T08:03:52Z</time>
      </trkpt>
      <trkpt lat="43.95214" lon="0.51759">
        <ele>184.4</ele>
        <time>2011-07-24T08:03:58Z</time>
      </trkpt>
      <trkpt lat="43.95229" lon="0.51801">
        <ele>183.5</ele>
        <time>2011-07-24T08:04:04Z</time>
      </trkpt>
      <trkpt lat="43.95244" lon="0.51843">
        <ele>183.7</ele>
        <time>2011-07-24T08:04:10Z</time>
      </trkpt>
      <trkpt lat="43.95258" lon="0.51883">
        <ele>184.5</ele>
        <time>2011-07-24T08:04:16Z</time>
      </trkpt>
      <trkpt lat="43.95273" lon="0.51921">
        <ele>185.5</ele>
        <time>2011-07-24T08:04:22Z</time>
      </trkpt>
      <trkpt lat="43.95287" lon="0.51956">
        <ele>186.2</ele>
        <time>2011-07-24T08:04:28Z</time>
      </trkpt>
      <trkpt lat="43.95302" lon="0.51994">
        <ele>186.8</ele>
        <time>2011-07-24T08:04:35Z</time>
      </trkpt>
      <trkpt lat="43.9531" lon="0.52015">
        <ele>187.2</ele>
        <time>2011-07-24T08:04:39Z</time>
      </trkpt>
      <trkpt lat="43.95318" lon="0.52036">
        <ele>187.5</ele>
        <time>2011-07-24T08:04:43Z</time>
      </trkpt>
      <trkpt lat="43.95332" lon="0.52074">
        <ele>187.4</ele>
        <time>2011-07-24T08:04:50Z</time>
      </trkpt>
      <trkpt lat="43.95347" lon="0.52113">
        <ele>187</ele>
        <time>2011-07-24T08:04:57Z</time>
      </trkpt>
      <trkpt lat="43.95367" lon="0.52148">
        <ele>186.8</ele>
        <time>2011-07-24T08:05:04Z</time>
      </trkpt>
      <trkpt lat="43.95388" lon="0.52183">
        <ele>186.8</ele>
        <time>2011-07-24T08:05:10Z</time>
      </trkpt>
      <trkpt lat="43.95408" lon="0.52217">
        <ele>186.3</ele>
        <time>2011-07-24T08:05:16Z</time>
      </trkpt>
      <trkpt lat="43.95428" lon="0.52251">
        <ele>186.7</ele>
        <time>2011-07-24T08:05:22Z</time>
      </trkpt>
      <trkpt lat="43.95446" lon="0.52284">
        <ele>187.3</ele>
        <time>2011-07-24T08:05:28Z</time>
      </trkpt>
      <trkpt lat="43.95463" lon="0.52318">
        <ele>187.5</ele>
        <time>2011-07-24T08:05:34Z</time>
      </trkpt>
      <trkpt lat="43.95482" lon="0.52352">
        <ele>187.6</ele>
        <time>2011-07-24T08:05:40Z</time>
      </trkpt>
      <trkpt lat="43.955" lon="0.52385">
        <ele>187.6</ele>
        <time>2011-07-24T08:05:46Z</time>
      </trkpt>
      <trkpt lat="43.95516" lon="0.52418">
        <ele>186.8</ele>
        <time>2011-07-24T08:05:52Z</time>
      </trkpt>
      <trkpt lat="43.95536" lon="0.52451">
        <ele>185.3</ele>
        <time>2011-07-24T08:05:58Z</time>
      </trkpt>
      <trkpt lat="43.95566" lon="0.52483">
        <ele>182.5</ele>
        <time>2011-07-24T08:06:04Z</time>
      </trkpt>
      <trkpt lat="43.95599" lon="0.52515">
        <ele>179.2</ele>
        <time>2011-07-24T08:06:10Z</time>
      </trkpt>
      <trkpt lat="43.95636" lon="0.52495">
        <ele>176</ele>
        <time>2011-07-24T08:06:17Z</time>
      </trkpt>
      <trkpt lat="43.95657" lon="0.52467">
        <ele>176.3</ele>
        <time>2011-07-24T08:06:23Z</time>
      </trkpt>
      <trkpt lat="43.9568" lon="0.52436">
        <ele>176.7</ele>
        <time>2011-07-24T08:06:30Z</time>
      </trkpt>
      <trkpt lat="43.95703" lon="0.52406">
        <ele>177.4</ele>
        <time>2011-07-24T08:06:38Z</time>
      </trkpt>
      <trkpt lat="43.95715" lon="0.52394">
        <ele>177.8</ele>
        <time>2011-07-24T08:06:43Z</time>
      </trkpt>
      <trkpt lat="43.95717" lon="0.52413">
        <ele>177.6</ele>
        <time>2011-07-24T08:06:49Z</time>
      </trkpt>
      <trkpt lat="43.9571" lon="0.52454">
        <ele>176.2</ele>
        <time>2011-07-24T08:06:55Z</time>
      </trkpt>
      <trkpt lat="43.95707" lon="0.52502">
        <ele>174.5</ele>
        <time>2011-07-24T08:07:01Z</time>
      </trkpt>
      <trkpt lat="43.95695" lon="0.52538">
        <ele>173.2</ele>
        <time>2011-07-24T08:07:07Z</time>
      </trkpt>
      <trkpt lat="43.95684" lon="0.52571">
        <ele>171.6</ele>
        <time>2011-07-24T08:07:14Z</time>
      </trkpt>
      <trkpt lat="43.95692" lon="0.52613">
        <ele>170.6</ele>
        <time>2011-07-24T08:07:20Z</time>
      </trkpt>
      <trkpt lat="43.95702" lon="0.52643">
        <ele>168.5</ele>
        <time>2011-07-24T08:07:24Z</time>
      </trkpt>
      <trkpt lat="43.95717" lon="0.52688">
        <ele>161.5</ele>
        <time>2011-07-24T08:07:30Z</time>
      </trkpt>
      <trkpt lat="43.95737" lon="0.52733">
        <ele>154.3</ele>
        <time>2011-07-24T08:07:36Z</time>
      </trkpt>
      <trkpt lat="43.95748" lon="0.52779">
        <ele>148.3</ele>
        <time>2011-07-24T08:07:43Z</time>
      </trkpt>
      <trkpt lat="43.95758" lon="0.5282">
        <ele>144.1</ele>
        <time>2011-07-24T08:07:50Z</time>
      </trkpt>
      <trkpt lat="43.95793" lon="0.52822">
        <ele>139.5</ele>
        <time>2011-07-24T08:07:56Z</time>
      </trkpt>
      <trkpt lat="43.95814" lon="0.52852">
        <ele>135.7</ele>
        <time>2011-07-24T08:08:01Z</time>
      </trkpt>
      <trkpt lat="43.95823" lon="0.52897">
        <ele>131.4</ele>
        <time>2011-07-24T08:08:05Z</time>
      </trkpt>
      <trkpt lat="43.9583" lon="0.52969">
        <ele>123.9</ele>
        <time>2011-07-24T08:08:11Z</time>
      </trkpt>
      <trkpt lat="43.95835" lon="0.53017">
        <ele>120.3</ele>
        <time>2011-07-24T08:08:15Z</time>
      </trkpt>
      <trkpt lat="43.9584" lon="0.5306">
        <ele>117.5</ele>
        <time>2011-07-24T08:08:19Z</time>
      </trkpt>
      <trkpt lat="43.95851" lon="0.53116">
        <ele>113.3</ele>
        <time>2011-07-24T08:08:25Z</time>
      </trkpt>
      <trkpt lat="43.95873" lon="0.53174">
        <ele>107.3</ele>
        <time>2011-07-24T08:08:31Z</time>
      </trkpt>
      <trkpt lat="43.95887" lon="0.53216">
        <ele>103.8</ele>
        <time>2011-07-24T08:08:37Z</time>
      </trkpt>
      <trkpt lat="43.95915" lon="0.53215">
        <ele>103</ele>
        <time>2011-07-24T08:08:43Z</time>
      </trkpt>
      <trkpt lat="43.95949" lon="0.53199">
        <ele>102.2</ele>
        <time>2011-07-24T08:08:51Z</time>
      </trkpt>
      <trkpt lat="43.95977" lon="0.53185">
        <ele>101.8</ele>
        <time>2011-07-24T08:08:57Z</time>
      </trkpt>
      <trkpt lat="43.96002" lon="0.5316">
        <ele>101.7</ele>
        <time>2011-07-24T08:09:04Z</time>
      </trkpt>
      <trkpt lat="43.96029" lon="0.53174">
        <ele>101.1</ele>
        <time>2011-07-24T08:09:12Z</time>
      </trkpt>
      <trkpt lat="43.96041" lon="0.53186">
        <ele>101</ele>
        <time>2011-07-24T08:09:16Z</time>
      </trkpt>
      <trkpt lat="43.96067" lon="0.53201">
        <ele>101.3</ele>
        <time>2011-07-24T08:09:25Z</time>
      </trkpt>
      <trkpt lat="43.96082" lon="0.53199">
        <ele>101.7</ele>
        <time>2011-07-24T08:09:30Z</time>
      </trkpt>
      <trkpt lat="43.96098" lon="0.53195">
        <ele>102.7</ele>
        <time>2011-07-24T08:09:36Z</time>
      </trkpt>
      <trkpt lat="43.96111" lon="0.53196">
        <ele>103.9</ele>
        <time>2011-07-24T08:09:41Z</time>
      </trkpt>
      <trkpt lat="43.96125" lon="0.53198">
        <ele>105.8</ele>
        <time>2011-07-24T08:09:47Z</time>
      </trkpt>
      <trkpt lat="43.96141" lon="0.532">
        <ele>108.5</ele>
        <time>2011-07-24T08:09:55Z</time>
      </trkpt>
      <trkpt lat="43.96156" lon="0.532">
        <ele>110.4</ele>
        <time>2011-07-24T08:10:02Z</time>
      </trkpt>
      <trkpt lat="43.96171" lon="0.53198">
        <ele>111.9</ele>
        <time>2011-07-24T08:10:09Z</time>
      </trkpt>
      <trkpt lat="43.96185" lon="0.53194">
        <ele>113.3</ele>
        <time>2011-07-24T08:10:17Z</time>
      </trkpt>
      <trkpt lat="43.96199" lon="0.5319">
        <ele>115.3</ele>
        <time>2011-07-24T08:10:26Z</time>
      </trkpt>
      <trkpt lat="43.96212" lon="0.53185">
        <ele>117.4</ele>
        <time>2011-07-24T08:10:34Z</time>
      </trkpt>
      <trkpt lat="43.96226" lon="0.5318">
        <ele>119.4</ele>
        <time>2011-07-24T08:10:42Z</time>
      </trkpt>
      <trkpt lat="43.96239" lon="0.53176">
        <ele>121.4</ele>
        <time>2011-07-24T08:10:50Z</time>
      </trkpt>
      <trkpt lat="43.96253" lon="0.53173">
        <ele>123.1</ele>
        <time>2011-07-24T08:10:58Z</time>
      </trkpt>
      <trkpt lat="43.96267" lon="0.53173">
        <ele>125.4</ele>
        <time>2011-07-24T08:11:08Z</time>
      </trkpt>
      <trkpt lat="43.96281" lon="0.53181">
        <ele>128.2</ele>
        <time>2011-07-24T08:11:19Z</time>
      </trkpt>
      <trkpt lat="43.96292" lon="0.53192">
        <ele>130.9</ele>
        <time>2011-07-24T08:11:27Z</time>
      </trkpt>
      <trkpt lat="43.96305" lon="0.53202">
        <ele>133.1</ele>
        <time>2011-07-24T08:11:34Z</time>
      </trkpt>
      <trkpt lat="43.96317" lon="0.53213">
        <ele>134.8</ele>
        <time>2011-07-24T08:11:41Z</time>
      </trkpt>
      <trkpt lat="43.96329" lon="0.53223">
        <ele>136.2</ele>
        <time>2011-07-24T08:11:48Z</time>
      </trkpt>
      <trkpt lat="43.96343" lon="0.53229">
        <ele>137.1</ele>
        <time>2011-07-24T08:11:56Z</time>
      </trkpt>
      <trkpt lat="43.96359" lon="0.53219">
        <ele>139</ele>
        <time>2011-07-24T08:12:07Z</time>
      </trkpt>
      <trkpt lat="43.96371" lon="0.53207">
        <ele>141.4</ele>
        <time>2011-07-24T08:12:15Z</time>
      </trkpt>
      <trkpt lat="43.96384" lon="0.532">
        <ele>143</ele>
        <time>2011-07-24T08:12:21Z</time>
      </trkpt>
      <trkpt lat="43.96397" lon="0.53195">
        <ele>143.7</ele>
        <time>2011-07-24T08:12:27Z</time>
      </trkpt>
      <trkpt lat="43.9641" lon="0.53185">
        <ele>144.5</ele>
        <time>2011-07-24T08:12:33Z</time>
      </trkpt>
      <trkpt lat="43.96422" lon="0.53171">
        <ele>146.6</ele>
        <time>2011-07-24T08:12:40Z</time>
      </trkpt>
      <trkpt lat="43.96433" lon="0.53156">
        <ele>148.5</ele>
        <time>2011-07-24T08:12:47Z</time>
      </trkpt>
      <trkpt lat="43.96445" lon="0.53143">
        <ele>151.5</ele>
        <time>2011-07-24T08:12:54Z</time>
      </trkpt>
      <trkpt lat="43.96457" lon="0.53132">
        <ele>153.6</ele>
        <time>2011-07-24T08:13:01Z</time>
      </trkpt>
      <trkpt lat="43.96467" lon="0.53117">
        <ele>155.2</ele>
        <time>2011-07-24T08:13:08Z</time>
      </trkpt>
      <trkpt lat="43.96474" lon="0.53097">
        <ele>157.1</ele>
        <time>2011-07-24T08:13:15Z</time>
      </trkpt>
      <trkpt lat="43.9648" lon="0.53075">
        <ele>158.8</ele>
        <time>2011-07-24T08:13:23Z</time>
      </trkpt>
      <trkpt lat="43.96486" lon="0.53057">
        <ele>160.2</ele>
        <time>2011-07-24T08:13:30Z</time>
      </trkpt>
      <trkpt lat="43.96498" lon="0.53047">
        <ele>160.9</ele>
        <time>2011-07-24T08:14:11Z</time>
      </trkpt>
      <trkpt lat="43.96513" lon="0.53043">
        <ele>161.9</ele>
        <time>2011-07-24T08:14:19Z</time>
      </trkpt>
      <trkpt lat="43.96526" lon="0.53044">
        <ele>163</ele>
        <time>2011-07-24T08:14:26Z</time>
      </trkpt>
      <trkpt lat="43.96542" lon="0.53046">
        <ele>164.4</ele>
        <time>2011-07-24T08:14:33Z</time>
      </trkpt>
      <trkpt lat="43.96554" lon="0.53055">
        <ele>165.7</ele>
        <time>2011-07-24T08:14:40Z</time>
      </trkpt>
      <trkpt lat="43.96566" lon="0.53069">
        <ele>166.5</ele>
        <time>2011-07-24T08:14:48Z</time>
      </trkpt>
      <trkpt lat="43.96581" lon="0.53073">
        <ele>167.3</ele>
        <time>2011-07-24T08:14:54Z</time>
      </trkpt>
      <trkpt lat="43.96597" lon="0.53063">
        <ele>167.9</ele>
        <time>2011-07-24T08:15:01Z</time>
      </trkpt>
      <trkpt lat="43.96613" lon="0.53049">
        <ele>168.3</ele>
        <time>2011-07-24T08:15:08Z</time>
      </trkpt>
      <trkpt lat="43.96626" lon="0.5304">
        <ele>167.7</ele>
        <time>2011-07-24T08:15:13Z</time>
      </trkpt>
      <trkpt lat="43.9664" lon="0.53033">
        <ele>167</ele>
        <time>2011-07-24T08:15:18Z</time>
      </trkpt>
      <trkpt lat="43.96657" lon="0.53029">
        <ele>166.6</ele>
        <time>2011-07-24T08:15:23Z</time>
      </trkpt>
      <trkpt lat="43.96687" lon="0.5303">
        <ele>168.1</ele>
        <time>2011-07-24T08:15:31Z</time>
      </trkpt>
      <trkpt lat="43.96711" lon="0.53007">
        <ele>167.9</ele>
        <time>2011-07-24T08:15:39Z</time>
      </trkpt>
      <trkpt lat="43.96717" lon="0.52985">
        <ele>167.8</ele>
        <time>2011-07-24T08:15:44Z</time>
      </trkpt>
      <trkpt lat="43.96732" lon="0.52951">
        <ele>168.6</ele>
        <time>2011-07-24T08:15:52Z</time>
      </trkpt>
      <trkpt lat="43.96752" lon="0.52923">
        <ele>169.8</ele>
        <time>2011-07-24T08:16:00Z</time>
      </trkpt>
      <trkpt lat="43.96773" lon="0.52894">
        <ele>168.7</ele>
        <time>2011-07-24T08:16:08Z</time>
      </trkpt>
      <trkpt lat="43.96796" lon="0.52866">
        <ele>168.5</ele>
        <time>2011-07-24T08:16:16Z</time>
      </trkpt>
      <trkpt lat="43.96818" lon="0.52838">
        <ele>169.3</ele>
        <time>2011-07-24T08:16:23Z</time>
      </trkpt>
      <trkpt lat="43.9684" lon="0.52809">
        <ele>172</ele>
        <time>2011-07-24T08:16:30Z</time>
      </trkpt>
      <trkpt lat="43.96851" lon="0.52795">
        <ele>172.6</ele>
        <time>2011-07-24T08:16:34Z</time>
      </trkpt>
      <trkpt lat="43.96872" lon="0.52765">
        <ele>171.4</ele>
        <time>2011-07-24T08:16:42Z</time>
      </trkpt>
      <trkpt lat="43.96896" lon="0.52733">
        <ele>171.1</ele>
        <time>2011-07-24T08:16:50Z</time>
      </trkpt>
      <trkpt lat="43.96909" lon="0.52716">
        <ele>171.1</ele>
        <time>2011-07-24T08:16:54Z</time>
      </trkpt>
      <trkpt lat="43.96931" lon="0.52678">
        <ele>169.3</ele>
        <time>2011-07-24T08:17:02Z</time>
      </trkpt>
      <trkpt lat="43.96947" lon="0.52645">
        <ele>169</ele>
        <time>2011-07-24T08:17:08Z</time>
      </trkpt>
      <trkpt lat="43.96963" lon="0.52612">
        <ele>171.1</ele>
        <time>2011-07-24T08:17:14Z</time>
      </trkpt>
      <trkpt lat="43.96976" lon="0.52575">
        <ele>169.8</ele>
        <time>2011-07-24T08:17:21Z</time>
      </trkpt>
      <trkpt lat="43.96982" lon="0.52557">
        <ele>169.3</ele>
        <time>2011-07-24T08:17:25Z</time>
      </trkpt>
      <trkpt lat="43.96995" lon="0.52521">
        <ele>168.9</ele>
        <time>2011-07-24T08:17:32Z</time>
      </trkpt>
      <trkpt lat="43.97002" lon="0.52479">
        <ele>167.7</ele>
        <time>2011-07-24T08:17:37Z</time>
      </trkpt>
      <trkpt lat="43.97009" lon="0.52439">
        <ele>168.8</ele>
        <time>2011-07-24T08:17:41Z</time>
      </trkpt>
      <trkpt lat="43.97022" lon="0.52389">
        <ele>167.1</ele>
        <time>2011-07-24T08:17:47Z</time>
      </trkpt>
      <trkpt lat="43.97039" lon="0.52346">
        <ele>167.8</ele>
        <time>2011-07-24T08:17:53Z</time>
      </trkpt>
      <trkpt lat="43.97049" lon="0.52309">
        <ele>169.6</ele>
        <time>2011-07-24T08:17:59Z</time>
      </trkpt>
      <trkpt lat="43.9706" lon="0.52265">
        <ele>169.4</ele>
        <time>2011-07-24T08:18:07Z</time>
      </trkpt>
      <trkpt lat="43.97064" lon="0.52241">
        <ele>169.7</ele>
        <time>2011-07-24T08:18:13Z</time>
      </trkpt>
      <trkpt lat="43.97068" lon="0.52219">
        <ele>170.1</ele>
        <time>2011-07-24T08:18:18Z</time>
      </trkpt>
      <trkpt lat="43.97074" lon="0.52198">
        <ele>171.2</ele>
        <time>2011-07-24T08:18:23Z</time>
      </trkpt>
      <trkpt lat="43.97087" lon="0.5216">
        <ele>172.5</ele>
        <time>2011-07-24T08:18:31Z</time>
      </trkpt>
      <trkpt lat="43.97098" lon="0.52131">
        <ele>173.5</ele>
        <time>2011-07-24T08:18:37Z</time>
      </trkpt>
      <trkpt lat="43.97113" lon="0.52101">
        <ele>174.3</ele>
        <time>2011-07-24T08:18:44Z</time>
      </trkpt>
      <trkpt lat="43.97121" lon="0.52084">
        <ele>174.9</ele>
        <time>2011-07-24T08:18:48Z</time>
      </trkpt>
      <trkpt lat="43.97129" lon="0.52064">
        <ele>174.7</ele>
        <time>2011-07-24T08:18:53Z</time>
      </trkpt>
      <trkpt lat="43.97149" lon="0.52023">
        <ele>175.3</ele>
        <time>2011-07-24T08:18:59Z</time>
      </trkpt>
      <trkpt lat="43.97175" lon="0.5199">
        <ele>177.3</ele>
        <time>2011-07-24T08:19:05Z</time>
      </trkpt>
      <trkpt lat="43.97203" lon="0.51958">
        <ele>173.1</ele>
        <time>2011-07-24T08:19:13Z</time>
      </trkpt>
      <trkpt lat="43.97222" lon="0.51939">
        <ele>173.2</ele>
        <time>2011-07-24T08:19:18Z</time>
      </trkpt>
      <trkpt lat="43.97251" lon="0.5192">
        <ele>175.5</ele>
        <time>2011-07-24T08:19:24Z</time>
      </trkpt>
      <trkpt lat="43.97276" lon="0.51901">
        <ele>176.7</ele>
        <time>2011-07-24T08:19:30Z</time>
      </trkpt>
      <trkpt lat="43.97298" lon="0.51872">
        <ele>175.8</ele>
        <time>2011-07-24T08:19:36Z</time>
      </trkpt>
      <trkpt lat="43.97318" lon="0.51862">
        <ele>175.7</ele>
        <time>2011-07-24T08:19:41Z</time>
      </trkpt>
      <trkpt lat="43.97334" lon="0.51852">
        <ele>176.6</ele>
        <time>2011-07-24T08:19:45Z</time>
      </trkpt>
      <trkpt lat="43.97345" lon="0.51833">
        <ele>177.1</ele>
        <time>2011-07-24T08:19:49Z</time>
      </trkpt>
      <trkpt lat="43.97359" lon="0.51794">
        <ele>175.5</ele>
        <time>2011-07-24T08:19:56Z</time>
      </trkpt>
      <trkpt lat="43.97372" lon="0.51758">
        <ele>174.5</ele>
        <time>2011-07-24T08:20:02Z</time>
      </trkpt>
      <trkpt lat="43.97387" lon="0.51719">
        <ele>172</ele>
        <time>2011-07-24T08:20:08Z</time>
      </trkpt>
      <trkpt lat="43.97403" lon="0.51678">
        <ele>171.1</ele>
        <time>2011-07-24T08:20:14Z</time>
      </trkpt>
      <trkpt lat="43.97417" lon="0.51641">
        <ele>171.8</ele>
        <time>2011-07-24T08:20:20Z</time>
      </trkpt>
      <trkpt lat="43.9743" lon="0.51605">
        <ele>172.8</ele>
        <time>2011-07-24T08:20:26Z</time>
      </trkpt>
      <trkpt lat="43.97444" lon="0.51564">
        <ele>174.9</ele>
        <time>2011-07-24T08:20:33Z</time>
      </trkpt>
      <trkpt lat="43.97452" lon="0.51542">
        <ele>176.4</ele>
        <time>2011-07-24T08:20:37Z</time>
      </trkpt>
      <trkpt lat="43.97468" lon="0.51506">
        <ele>178.2</ele>
        <time>2011-07-24T08:20:44Z</time>
      </trkpt>
      <trkpt lat="43.97482" lon="0.51492">
        <ele>179.2</ele>
        <time>2011-07-24T08:20:48Z</time>
      </trkpt>
      <trkpt lat="43.97495" lon="0.5148">
        <ele>180.3</ele>
        <time>2011-07-24T08:20:52Z</time>
      </trkpt>
      <trkpt lat="43.9752" lon="0.51459">
        <ele>181.5</ele>
        <time>2011-07-24T08:21:00Z</time>
      </trkpt>
      <trkpt lat="43.97548" lon="0.51438">
        <ele>182.7</ele>
        <time>2011-07-24T08:21:08Z</time>
      </trkpt>
      <trkpt lat="43.97561" lon="0.51425">
        <ele>183.4</ele>
        <time>2011-07-24T08:21:12Z</time>
      </trkpt>
      <trkpt lat="43.97574" lon="0.51413">
        <ele>184.2</ele>
        <time>2011-07-24T08:21:16Z</time>
      </trkpt>
      <trkpt lat="43.976" lon="0.51391">
        <ele>184.6</ele>
        <time>2011-07-24T08:21:24Z</time>
      </trkpt>
      <trkpt lat="43.97627" lon="0.5137">
        <ele>184.7</ele>
        <time>2011-07-24T08:21:32Z</time>
      </trkpt>
      <trkpt lat="43.97651" lon="0.51337">
        <ele>185.8</ele>
        <time>2011-07-24T08:21:40Z</time>
      </trkpt>
      <trkpt lat="43.97661" lon="0.51293">
        <ele>187</ele>
        <time>2011-07-24T08:21:46Z</time>
      </trkpt>
      <trkpt lat="43.97674" lon="0.51246">
        <ele>188.9</ele>
        <time>2011-07-24T08:21:52Z</time>
      </trkpt>
      <trkpt lat="43.97685" lon="0.51207">
        <ele>190</ele>
        <time>2011-07-24T08:22:02Z</time>
      </trkpt>
      <trkpt lat="43.97694" lon="0.51191">
        <ele>190.1</ele>
        <time>2011-07-24T08:22:07Z</time>
      </trkpt>
      <trkpt lat="43.97717" lon="0.51159">
        <ele>190.4</ele>
        <time>2011-07-24T08:22:15Z</time>
      </trkpt>
      <trkpt lat="43.97739" lon="0.51131">
        <ele>190.9</ele>
        <time>2011-07-24T08:22:23Z</time>
      </trkpt>
      <trkpt lat="43.97759" lon="0.51098">
        <ele>191</ele>
        <time>2011-07-24T08:22:31Z</time>
      </trkpt>
      <trkpt lat="43.97769" lon="0.51078">
        <ele>191.2</ele>
        <time>2011-07-24T08:22:36Z</time>
      </trkpt>
      <trkpt lat="43.97786" lon="0.51039">
        <ele>191.1</ele>
        <time>2011-07-24T08:22:44Z</time>
      </trkpt>
      <trkpt lat="43.978" lon="0.51001">
        <ele>191.3</ele>
        <time>2011-07-24T08:22:53Z</time>
      </trkpt>
      <trkpt lat="43.97806" lon="0.50982">
        <ele>191.2</ele>
        <time>2011-07-24T08:22:57Z</time>
      </trkpt>
      <trkpt lat="43.9781" lon="0.50962">
        <ele>191.2</ele>
        <time>2011-07-24T08:23:01Z</time>
      </trkpt>
      <trkpt lat="43.97813" lon="0.50937">
        <ele>191.3</ele>
        <time>2011-07-24T08:23:06Z</time>
      </trkpt>
      <trkpt lat="43.97815" lon="0.50917">
        <ele>191.3</ele>
        <time>2011-07-24T08:23:10Z</time>
      </trkpt>
      <trkpt lat="43.97819" lon="0.50895">
        <ele>191.5</ele>
        <time>2011-07-24T08:23:14Z</time>
      </trkpt>
      <trkpt lat="43.97822" lon="0.50873">
        <ele>191.6</ele>
        <time>2011-07-24T08:23:18Z</time>
      </trkpt>
      <trkpt lat="43.97826" lon="0.50832">
        <ele>191.3</ele>
        <time>2011-07-24T08:23:24Z</time>
      </trkpt>
      <trkpt lat="43.97832" lon="0.50789">
        <ele>191.4</ele>
        <time>2011-07-24T08:23:30Z</time>
      </trkpt>
      <trkpt lat="43.97844" lon="0.50751">
        <ele>191.8</ele>
        <time>2011-07-24T08:23:36Z</time>
      </trkpt>
      <trkpt lat="43.97862" lon="0.50716">
        <ele>192.3</ele>
        <time>2011-07-24T08:23:42Z</time>
      </trkpt>
      <trkpt lat="43.9788" lon="0.50679">
        <ele>193.2</ele>
        <time>2011-07-24T08:23:48Z</time>
      </trkpt>
      <trkpt lat="43.97895" lon="0.50641">
        <ele>193.9</ele>
        <time>2011-07-24T08:23:54Z</time>
      </trkpt>
      <trkpt lat="43.97906" lon="0.50603">
        <ele>194.2</ele>
        <time>2011-07-24T08:24:00Z</time>
      </trkpt>
      <trkpt lat="43.97917" lon="0.50566">
        <ele>194.4</ele>
        <time>2011-07-24T08:24:06Z</time>
      </trkpt>
      <trkpt lat="43.97927" lon="0.5053">
        <ele>194.5</ele>
        <time>2011-07-24T08:24:12Z</time>
      </trkpt>
      <trkpt lat="43.97939" lon="0.50495">
        <ele>194.9</ele>
        <time>2011-07-24T08:24:18Z</time>
      </trkpt>
      <trkpt lat="43.97955" lon="0.50461">
        <ele>194.9</ele>
        <time>2011-07-24T08:24:24Z</time>
      </trkpt>
      <trkpt lat="43.97977" lon="0.50432">
        <ele>194.9</ele>
        <time>2011-07-24T08:24:30Z</time>
      </trkpt>
      <trkpt lat="43.98001" lon="0.50407">
        <ele>194.7</ele>
        <time>2011-07-24T08:24:36Z</time>
      </trkpt>
      <trkpt lat="43.98016" lon="0.50393">
        <ele>194.9</ele>
        <time>2011-07-24T08:24:40Z</time>
      </trkpt>
      <trkpt lat="43.9804" lon="0.50375">
        <ele>195</ele>
        <time>2011-07-24T08:24:46Z</time>
      </trkpt>
      <trkpt lat="43.98054" lon="0.50365">
        <ele>194.4</ele>
        <time>2011-07-24T08:24:50Z</time>
      </trkpt>
      <trkpt lat="43.98071" lon="0.50327">
        <ele>194.1</ele>
        <time>2011-07-24T08:24:58Z</time>
      </trkpt>
      <trkpt lat="43.98085" lon="0.50289">
        <ele>194</ele>
        <time>2011-07-24T08:25:04Z</time>
      </trkpt>
      <trkpt lat="43.98098" lon="0.50252">
        <ele>194</ele>
        <time>2011-07-24T08:25:10Z</time>
      </trkpt>
      <trkpt lat="43.98103" lon="0.50213">
        <ele>192.6</ele>
        <time>2011-07-24T08:25:16Z</time>
      </trkpt>
      <trkpt lat="43.98099" lon="0.5017">
        <ele>191.1</ele>
        <time>2011-07-24T08:25:22Z</time>
      </trkpt>
      <trkpt lat="43.98094" lon="0.50121">
        <ele>189.4</ele>
        <time>2011-07-24T08:25:28Z</time>
      </trkpt>
      <trkpt lat="43.98087" lon="0.50075">
        <ele>187.6</ele>
        <time>2011-07-24T08:25:33Z</time>
      </trkpt>
      <trkpt lat="43.98082" lon="0.50037">
        <ele>185.9</ele>
        <time>2011-07-24T08:25:37Z</time>
      </trkpt>
      <trkpt lat="43.981" lon="0.4998">
        <ele>186.3</ele>
        <time>2011-07-24T08:25:44Z</time>
      </trkpt>
      <trkpt lat="43.98121" lon="0.49948">
        <ele>188</ele>
        <time>2011-07-24T08:25:50Z</time>
      </trkpt>
      <trkpt lat="43.98154" lon="0.49927">
        <ele>188</ele>
        <time>2011-07-24T08:25:57Z</time>
      </trkpt>
      <trkpt lat="43.98189" lon="0.49926">
        <ele>191</ele>
        <time>2011-07-24T08:26:03Z</time>
      </trkpt>
      <trkpt lat="43.98217" lon="0.49899">
        <ele>190.6</ele>
        <time>2011-07-24T08:26:09Z</time>
      </trkpt>
      <trkpt lat="43.98238" lon="0.49866">
        <ele>190.3</ele>
        <time>2011-07-24T08:26:15Z</time>
      </trkpt>
      <trkpt lat="43.98262" lon="0.49827">
        <ele>190.1</ele>
        <time>2011-07-24T08:26:23Z</time>
      </trkpt>
      <trkpt lat="43.98271" lon="0.49805">
        <ele>183.2</ele>
      </trkpt>
      <trkpt lat="43.98327" lon="0.49852">
        <ele>178.9</ele>
      </trkpt>
      <trkpt lat="43.9836" lon="0.49889">
        <ele>180</ele>
      </trkpt>
      <trkpt lat="43.98423" lon="0.49913">
        <ele>179.9</ele>
      </trkpt>
      <trkpt lat="43.98482" lon="0.50034">
        <ele>177.9</ele>
      </trkpt>
      <trkpt lat="43.98515" lon="0.50084">
        <ele>179</ele>
      </trkpt>
      <trkpt lat="43.98536" lon="0.50094">
        <ele>179.8</ele>
      </trkpt>
      <trkpt lat="43.98544" lon="0.5009">
        <ele>180.4</ele>
        <time>2011-07-24T06:23:40Z</time>
      </trkpt>
      <trkpt lat="43.98577" lon="0.50092">
        <ele>179.8</ele>
        <time>2011-07-24T06:29:32Z</time>
      </trkpt>
      <trkpt lat="43.98606" lon="0.50103">
        <ele>180.4</ele>
        <time>2011-07-24T06:29:38Z</time>
      </trkpt>
      <trkpt lat="43.98639" lon="0.50129">
        <ele>180.6</ele>
        <time>2011-07-24T06:29:44Z</time>
      </trkpt>
      <trkpt lat="43.98675" lon="0.50135">
        <ele>179.1</ele>
        <time>2011-07-24T06:29:50Z</time>
      </trkpt>
      <trkpt lat="43.98712" lon="0.50126">
        <ele>176.8</ele>
        <time>2011-07-24T06:29:56Z</time>
      </trkpt>
      <trkpt lat="43.98746" lon="0.50117">
        <ele>174.2</ele>
        <time>2011-07-24T06:30:01Z</time>
      </trkpt>
      <trkpt lat="43.98778" lon="0.50109">
        <ele>173.9</ele>
        <time>2011-07-24T06:30:06Z</time>
      </trkpt>
      <trkpt lat="43.98813" lon="0.50102">
        <ele>173.8</ele>
        <time>2011-07-24T06:30:12Z</time>
      </trkpt>
      <trkpt lat="43.98852" lon="0.50109">
        <ele>168.9</ele>
        <time>2011-07-24T06:30:18Z</time>
      </trkpt>
      <trkpt lat="43.98885" lon="0.50111">
        <ele>165.9</ele>
        <time>2011-07-24T06:30:23Z</time>
      </trkpt>
      <trkpt lat="43.98928" lon="0.50115">
        <ele>160.2</ele>
        <time>2011-07-24T06:30:29Z</time>
      </trkpt>
      <trkpt lat="43.9897" lon="0.5012">
        <ele>156.1</ele>
        <time>2011-07-24T06:30:34Z</time>
      </trkpt>
      <trkpt lat="43.99004" lon="0.5012">
        <ele>152.8</ele>
        <time>2011-07-24T06:30:38Z</time>
      </trkpt>
      <trkpt lat="43.99055" lon="0.50113">
        <ele>147.6</ele>
        <time>2011-07-24T06:30:44Z</time>
      </trkpt>
      <trkpt lat="43.99102" lon="0.50132">
        <ele>145.7</ele>
        <time>2011-07-24T06:30:50Z</time>
      </trkpt>
      <trkpt lat="43.99137" lon="0.50162">
        <ele>145.8</ele>
        <time>2011-07-24T06:30:55Z</time>
      </trkpt>
      <trkpt lat="43.9916" lon="0.50187">
        <ele>145.8</ele>
        <time>2011-07-24T06:30:59Z</time>
      </trkpt>
      <trkpt lat="43.99187" lon="0.50217">
        <ele>146</ele>
        <time>2011-07-24T06:31:05Z</time>
      </trkpt>
      <trkpt lat="43.99212" lon="0.50243">
        <ele>146.6</ele>
        <time>2011-07-24T06:31:12Z</time>
      </trkpt>
      <trkpt lat="43.99226" lon="0.50234">
        <ele>147.1</ele>
        <time>2011-07-24T06:31:22Z</time>
      </trkpt>
      <trkpt lat="43.99238" lon="0.50192">
        <ele>142.9</ele>
        <time>2011-07-24T06:31:28Z</time>
      </trkpt>
      <trkpt lat="43.99248" lon="0.50151">
        <ele>143.8</ele>
        <time>2011-07-24T06:31:35Z</time>
      </trkpt>
      <trkpt lat="43.99281" lon="0.50144">
        <ele>143.8</ele>
        <time>2011-07-24T06:31:43Z</time>
      </trkpt>
      <trkpt lat="43.99308" lon="0.50148">
        <ele>143.7</ele>
        <time>2011-07-24T06:31:49Z</time>
      </trkpt>
      <trkpt lat="43.99343" lon="0.50154">
        <ele>144.3</ele>
        <time>2011-07-24T06:31:57Z</time>
      </trkpt>
      <trkpt lat="43.9937" lon="0.50157">
        <ele>144.6</ele>
        <time>2011-07-24T06:32:03Z</time>
      </trkpt>
      <trkpt lat="43.99388" lon="0.5016">
        <ele>144.1</ele>
        <time>2011-07-24T06:32:07Z</time>
      </trkpt>
      <trkpt lat="43.99405" lon="0.50162">
        <ele>143.2</ele>
        <time>2011-07-24T06:32:11Z</time>
      </trkpt>
      <trkpt lat="43.99437" lon="0.50166">
        <ele>142.7</ele>
        <time>2011-07-24T06:32:18Z</time>
      </trkpt>
      <trkpt lat="43.99454" lon="0.50168">
        <ele>142.5</ele>
        <time>2011-07-24T06:32:22Z</time>
      </trkpt>
      <trkpt lat="43.99488" lon="0.50171">
        <ele>141</ele>
        <time>2011-07-24T06:32:30Z</time>
      </trkpt>
      <trkpt lat="43.9952" lon="0.50177">
        <ele>139.8</ele>
        <time>2011-07-24T06:32:38Z</time>
      </trkpt>
      <trkpt lat="43.99536" lon="0.5018">
        <ele>140.4</ele>
        <time>2011-07-24T06:32:42Z</time>
      </trkpt>
      <trkpt lat="43.99556" lon="0.50192">
        <ele>140.5</ele>
        <time>2011-07-24T06:32:47Z</time>
      </trkpt>
      <trkpt lat="43.99585" lon="0.50206">
        <ele>141</ele>
        <time>2011-07-24T06:32:55Z</time>
      </trkpt>
      <trkpt lat="43.99599" lon="0.5021">
        <ele>140.9</ele>
        <time>2011-07-24T06:32:59Z</time>
      </trkpt>
      <trkpt lat="43.99614" lon="0.50216">
        <ele>140.3</ele>
        <time>2011-07-24T06:33:04Z</time>
      </trkpt>
      <trkpt lat="43.99629" lon="0.50213">
        <ele>140.3</ele>
        <time>2011-07-24T06:33:10Z</time>
      </trkpt>
      <trkpt lat="43.99636" lon="0.50195">
        <ele>141</ele>
        <time>2011-07-24T06:33:15Z</time>
      </trkpt>
      <trkpt lat="43.99641" lon="0.50175">
        <ele>141.6</ele>
        <time>2011-07-24T06:33:20Z</time>
      </trkpt>
      <trkpt lat="43.99647" lon="0.50157">
        <ele>142.4</ele>
        <time>2011-07-24T06:33:25Z</time>
      </trkpt>
      <trkpt lat="43.99661" lon="0.50151">
        <ele>143.1</ele>
        <time>2011-07-24T06:33:30Z</time>
      </trkpt>
      <trkpt lat="43.99675" lon="0.50148">
        <ele>143.2</ele>
        <time>2011-07-24T06:33:35Z</time>
      </trkpt>
      <trkpt lat="43.99689" lon="0.50145">
        <ele>143.8</ele>
        <time>2011-07-24T06:33:40Z</time>
      </trkpt>
      <trkpt lat="43.99702" lon="0.50141">
        <ele>145.4</ele>
        <time>2011-07-24T06:33:46Z</time>
      </trkpt>
      <trkpt lat="43.99715" lon="0.50132">
        <ele>147.1</ele>
        <time>2011-07-24T06:33:52Z</time>
      </trkpt>
      <trkpt lat="43.99727" lon="0.50118">
        <ele>148</ele>
        <time>2011-07-24T06:33:58Z</time>
      </trkpt>
      <trkpt lat="43.99739" lon="0.50104">
        <ele>149.1</ele>
        <time>2011-07-24T06:34:04Z</time>
      </trkpt>
      <trkpt lat="43.99751" lon="0.5009">
        <ele>150.3</ele>
        <time>2011-07-24T06:34:10Z</time>
      </trkpt>
      <trkpt lat="43.99762" lon="0.50077">
        <ele>152.6</ele>
        <time>2011-07-24T06:34:16Z</time>
      </trkpt>
      <trkpt lat="43.99774" lon="0.50063">
        <ele>155.5</ele>
        <time>2011-07-24T06:34:22Z</time>
      </trkpt>
      <trkpt lat="43.99787" lon="0.50052">
        <ele>157.7</ele>
        <time>2011-07-24T06:34:29Z</time>
      </trkpt>
      <trkpt lat="43.99802" lon="0.50049">
        <ele>160.5</ele>
        <time>2011-07-24T06:34:36Z</time>
      </trkpt>
      <trkpt lat="43.99817" lon="0.5005">
        <ele>162.8</ele>
        <time>2011-07-24T06:34:43Z</time>
      </trkpt>
      <trkpt lat="43.99831" lon="0.50051">
        <ele>164.5</ele>
        <time>2011-07-24T06:34:50Z</time>
      </trkpt>
      <trkpt lat="43.99845" lon="0.5005">
        <ele>166.2</ele>
        <time>2011-07-24T06:34:57Z</time>
      </trkpt>
      <trkpt lat="43.99859" lon="0.50048">
        <ele>167.9</ele>
        <time>2011-07-24T06:35:04Z</time>
      </trkpt>
      <trkpt lat="43.99873" lon="0.50046">
        <ele>169.3</ele>
        <time>2011-07-24T06:35:11Z</time>
      </trkpt>
      <trkpt lat="43.99887" lon="0.50044">
        <ele>171.1</ele>
        <time>2011-07-24T06:35:18Z</time>
      </trkpt>
      <trkpt lat="43.999" lon="0.50051">
        <ele>172.3</ele>
        <time>2011-07-24T06:35:26Z</time>
      </trkpt>
      <trkpt lat="43.99914" lon="0.50057">
        <ele>174.1</ele>
        <time>2011-07-24T06:35:33Z</time>
      </trkpt>
      <trkpt lat="43.99926" lon="0.50063">
        <ele>175.7</ele>
        <time>2011-07-24T06:35:38Z</time>
      </trkpt>
      <trkpt lat="43.99941" lon="0.50071">
        <ele>176.9</ele>
        <time>2011-07-24T06:35:43Z</time>
      </trkpt>
      <trkpt lat="43.99955" lon="0.50078">
        <ele>177.1</ele>
        <time>2011-07-24T06:35:48Z</time>
      </trkpt>
      <trkpt lat="43.99969" lon="0.50074">
        <ele>177.6</ele>
        <time>2011-07-24T06:35:55Z</time>
      </trkpt>
      <trkpt lat="43.99978" lon="0.50056">
        <ele>179.8</ele>
        <time>2011-07-24T06:36:02Z</time>
      </trkpt>
      <trkpt lat="43.99984" lon="0.50039">
        <ele>181.6</ele>
        <time>2011-07-24T06:36:08Z</time>
      </trkpt>
      <trkpt lat="43.9999" lon="0.50021">
        <ele>182.8</ele>
        <time>2011-07-24T06:36:14Z</time>
      </trkpt>
      <trkpt lat="43.99997" lon="0.50003">
        <ele>184.5</ele>
        <time>2011-07-24T06:36:20Z</time>
      </trkpt>
      <trkpt lat="44.00006" lon="0.49988">
        <ele>186</ele>
        <time>2011-07-24T06:36:25Z</time>
      </trkpt>
      <trkpt lat="44.00015" lon="0.49973">
        <ele>187</ele>
        <time>2011-07-24T06:36:30Z</time>
      </trkpt>
      <trkpt lat="44.00026" lon="0.49957">
        <ele>187.8</ele>
        <time>2011-07-24T06:36:36Z</time>
      </trkpt>
      <trkpt lat="44.00031" lon="0.49939">
        <ele>187.8</ele>
        <time>2011-07-24T06:36:43Z</time>
      </trkpt>
      <trkpt lat="44.00051" lon="0.49912">
        <ele>188.5</ele>
        <time>2011-07-24T06:36:51Z</time>
      </trkpt>
      <trkpt lat="44.00054" lon="0.49892">
        <ele>188.5</ele>
        <time>2011-07-24T06:36:56Z</time>
      </trkpt>
      <trkpt lat="44.00059" lon="0.49872">
        <ele>189</ele>
        <time>2011-07-24T06:37:01Z</time>
      </trkpt>
      <trkpt lat="44.00069" lon="0.49855">
        <ele>189.2</ele>
        <time>2011-07-24T06:37:06Z</time>
      </trkpt>
      <trkpt lat="44.00084" lon="0.49847">
        <ele>189.2</ele>
        <time>2011-07-24T06:37:11Z</time>
      </trkpt>
      <trkpt lat="44.00112" lon="0.49832">
        <ele>189.2</ele>
        <time>2011-07-24T06:37:18Z</time>
      </trkpt>
      <trkpt lat="44.00139" lon="0.49815">
        <ele>188.1</ele>
        <time>2011-07-24T06:37:24Z</time>
      </trkpt>
      <trkpt lat="44.00168" lon="0.49795">
        <ele>186</ele>
        <time>2011-07-24T06:37:30Z</time>
      </trkpt>
      <trkpt lat="44.00203" lon="0.49773">
        <ele>184.4</ele>
        <time>2011-07-24T06:37:36Z</time>
      </trkpt>
      <trkpt lat="44.00238" lon="0.49746">
        <ele>184.1</ele>
        <time>2011-07-24T06:37:42Z</time>
      </trkpt>
      <trkpt lat="44.00271" lon="0.49715">
        <ele>184.8</ele>
        <time>2011-07-24T06:37:48Z</time>
      </trkpt>
      <trkpt lat="44.00304" lon="0.49691">
        <ele>184.7</ele>
        <time>2011-07-24T06:37:54Z</time>
      </trkpt>
      <trkpt lat="44.00342" lon="0.49694">
        <ele>181.5</ele>
        <time>2011-07-24T06:38:00Z</time>
      </trkpt>
      <trkpt lat="44.00377" lon="0.49701">
        <ele>182.6</ele>
        <time>2011-07-24T06:38:06Z</time>
      </trkpt>
      <trkpt lat="44.00413" lon="0.49696">
        <ele>182.2</ele>
        <time>2011-07-24T06:38:12Z</time>
      </trkpt>
      <trkpt lat="44.00447" lon="0.49687">
        <ele>181.5</ele>
        <time>2011-07-24T06:38:18Z</time>
      </trkpt>
      <trkpt lat="44.00484" lon="0.49682">
        <ele>180.9</ele>
        <time>2011-07-24T06:38:24Z</time>
      </trkpt>
      <trkpt lat="44.00524" lon="0.49676">
        <ele>183</ele>
        <time>2011-07-24T06:38:30Z</time>
      </trkpt>
      <trkpt lat="44.00557" lon="0.49673">
        <ele>185.4</ele>
        <time>2011-07-24T06:38:36Z</time>
      </trkpt>
      <trkpt lat="44.00583" lon="0.49663">
        <ele>185.3</ele>
        <time>2011-07-24T06:38:42Z</time>
      </trkpt>
      <trkpt lat="44.00585" lon="0.49625">
        <ele>185.5</ele>
        <time>2011-07-24T06:38:48Z</time>
      </trkpt>
      <trkpt lat="44.00576" lon="0.49585">
        <ele>187.3</ele>
        <time>2011-07-24T06:38:54Z</time>
      </trkpt>
      <trkpt lat="44.00572" lon="0.49544">
        <ele>190.9</ele>
        <time>2011-07-24T06:39:00Z</time>
      </trkpt>
      <trkpt lat="44.00575" lon="0.49502">
        <ele>193.4</ele>
        <time>2011-07-24T06:39:06Z</time>
      </trkpt>
      <trkpt lat="44.00579" lon="0.49462">
        <ele>195</ele>
        <time>2011-07-24T06:39:12Z</time>
      </trkpt>
      <trkpt lat="44.00576" lon="0.49416">
        <ele>199</ele>
        <time>2011-07-24T06:39:20Z</time>
      </trkpt>
      <trkpt lat="44.00576" lon="0.49396">
        <ele>199.5</ele>
        <time>2011-07-24T06:39:24Z</time>
      </trkpt>
      <trkpt lat="44.00583" lon="0.49357">
        <ele>200.3</ele>
        <time>2011-07-24T06:39:33Z</time>
      </trkpt>
      <trkpt lat="44.00586" lon="0.49337">
        <ele>201.7</ele>
        <time>2011-07-24T06:39:38Z</time>
      </trkpt>
      <trkpt lat="44.00582" lon="0.49317">
        <ele>201.8</ele>
        <time>2011-07-24T06:39:43Z</time>
      </trkpt>
      <trkpt lat="44.0057" lon="0.49303">
        <ele>201.9</ele>
        <time>2011-07-24T06:39:49Z</time>
      </trkpt>
      <trkpt lat="44.00556" lon="0.49302">
        <ele>202.1</ele>
        <time>2011-07-24T06:39:54Z</time>
      </trkpt>
      <trkpt lat="44.00525" lon="0.49302">
        <ele>202.6</ele>
        <time>2011-07-24T06:40:02Z</time>
      </trkpt>
      <trkpt lat="44.00499" lon="0.49278">
        <ele>203.2</ele>
        <time>2011-07-24T06:40:10Z</time>
      </trkpt>
      <trkpt lat="44.00487" lon="0.49263">
        <ele>203.6</ele>
        <time>2011-07-24T06:40:14Z</time>
      </trkpt>
      <trkpt lat="44.00464" lon="0.49231">
        <ele>205</ele>
        <time>2011-07-24T06:40:22Z</time>
      </trkpt>
      <trkpt lat="44.00453" lon="0.49215">
        <ele>205.2</ele>
        <time>2011-07-24T06:40:26Z</time>
      </trkpt>
      <trkpt lat="44.00443" lon="0.49199">
        <ele>205.4</ele>
        <time>2011-07-24T06:40:30Z</time>
      </trkpt>
      <trkpt lat="44.00422" lon="0.49166">
        <ele>205.8</ele>
        <time>2011-07-24T06:40:38Z</time>
      </trkpt>
      <trkpt lat="44.004" lon="0.49134">
        <ele>206.3</ele>
        <time>2011-07-24T06:40:46Z</time>
      </trkpt>
      <trkpt lat="44.00389" lon="0.49117">
        <ele>206.7</ele>
        <time>2011-07-24T06:40:50Z</time>
      </trkpt>
      <trkpt lat="44.00378" lon="0.491">
        <ele>207.8</ele>
        <time>2011-07-24T06:40:54Z</time>
      </trkpt>
      <trkpt lat="44.00356" lon="0.49066">
        <ele>208.4</ele>
        <time>2011-07-24T06:41:02Z</time>
      </trkpt>
      <trkpt lat="44.0033" lon="0.49034">
        <ele>208.7</ele>
        <time>2011-07-24T06:41:10Z</time>
      </trkpt>
      <trkpt lat="44.00317" lon="0.49018">
        <ele>208.9</ele>
        <time>2011-07-24T06:41:14Z</time>
      </trkpt>
      <trkpt lat="44.00303" lon="0.48999">
        <ele>209.2</ele>
        <time>2011-07-24T06:41:19Z</time>
      </trkpt>
      <trkpt lat="44.00294" lon="0.48982">
        <ele>209.5</ele>
        <time>2011-07-24T06:41:23Z</time>
      </trkpt>
      <trkpt lat="44.00278" lon="0.48945">
        <ele>211.4</ele>
        <time>2011-07-24T06:41:32Z</time>
      </trkpt>
      <trkpt lat="44.0027" lon="0.48924">
        <ele>212.5</ele>
        <time>2011-07-24T06:41:37Z</time>
      </trkpt>
      <trkpt lat="44.00263" lon="0.48907">
        <ele>214.1</ele>
        <time>2011-07-24T06:41:41Z</time>
      </trkpt>
      <trkpt lat="44.00255" lon="0.48891">
        <ele>214.9</ele>
        <time>2011-07-24T06:41:45Z</time>
      </trkpt>
      <trkpt lat="44.0024" lon="0.48855">
        <ele>217.5</ele>
        <time>2011-07-24T06:41:54Z</time>
      </trkpt>
      <trkpt lat="44.00232" lon="0.48836">
        <ele>219.1</ele>
        <time>2011-07-24T06:41:59Z</time>
      </trkpt>
      <trkpt lat="44.00224" lon="0.48816">
        <ele>220.1</ele>
        <time>2011-07-24T06:42:04Z</time>
      </trkpt>
      <trkpt lat="44.00214" lon="0.4878">
        <ele>222</ele>
        <time>2011-07-24T06:42:12Z</time>
      </trkpt>
      <trkpt lat="44.00208" lon="0.48739">
        <ele>221.8</ele>
        <time>2011-07-24T06:42:20Z</time>
      </trkpt>
      <trkpt lat="44.00201" lon="0.48701">
        <ele>221.7</ele>
        <time>2011-07-24T06:42:28Z</time>
      </trkpt>
      <trkpt lat="44.00205" lon="0.48679">
        <ele>221.6</ele>
        <time>2011-07-24T06:42:32Z</time>
      </trkpt>
      <trkpt lat="44.00214" lon="0.4865">
        <ele>221.1</ele>
        <time>2011-07-24T06:42:37Z</time>
      </trkpt>
      <trkpt lat="44.00224" lon="0.48608">
        <ele>220.4</ele>
        <time>2011-07-24T06:42:43Z</time>
      </trkpt>
      <trkpt lat="44.00231" lon="0.48579">
        <ele>220.7</ele>
        <time>2011-07-24T06:42:48Z</time>
      </trkpt>
      <trkpt lat="44.00239" lon="0.48557">
        <ele>220.2</ele>
        <time>2011-07-24T06:42:52Z</time>
      </trkpt>
      <trkpt lat="44.00253" lon="0.48514">
        <ele>219.8</ele>
        <time>2011-07-24T06:42:58Z</time>
      </trkpt>
      <trkpt lat="44.00269" lon="0.4847">
        <ele>220.1</ele>
        <time>2011-07-24T06:43:04Z</time>
      </trkpt>
      <trkpt lat="44.00298" lon="0.48424">
        <ele>214.6</ele>
        <time>2011-07-24T06:43:10Z</time>
      </trkpt>
      <trkpt lat="44.0033" lon="0.4837">
        <ele>210.5</ele>
        <time>2011-07-24T06:43:16Z</time>
      </trkpt>
      <trkpt lat="44.00359" lon="0.48342">
        <ele>207.5</ele>
        <time>2011-07-24T06:43:20Z</time>
      </trkpt>
      <trkpt lat="44.00402" lon="0.48292">
        <ele>197.1</ele>
        <time>2011-07-24T06:43:26Z</time>
      </trkpt>
      <trkpt lat="44.00448" lon="0.48247">
        <ele>192.8</ele>
        <time>2011-07-24T06:43:32Z</time>
      </trkpt>
      <trkpt lat="44.00487" lon="0.48205">
        <ele>190.6</ele>
        <time>2011-07-24T06:43:38Z</time>
      </trkpt>
      <trkpt lat="44.00526" lon="0.48199">
        <ele>189.2</ele>
        <time>2011-07-24T06:43:43Z</time>
      </trkpt>
      <trkpt lat="44.00579" lon="0.48192">
        <ele>184.7</ele>
        <time>2011-07-24T06:43:49Z</time>
      </trkpt>
      <trkpt lat="44.00614" lon="0.48196">
        <ele>182.5</ele>
        <time>2011-07-24T06:43:53Z</time>
      </trkpt>
      <trkpt lat="44.00661" lon="0.48203">
        <ele>183.4</ele>
        <time>2011-07-24T06:44:00Z</time>
      </trkpt>
      <trkpt lat="44.00679" lon="0.48165">
        <ele>179.9</ele>
        <time>2011-07-24T06:44:06Z</time>
      </trkpt>
      <trkpt lat="44.00697" lon="0.48117">
        <ele>178.3</ele>
        <time>2011-07-24T06:44:12Z</time>
      </trkpt>
      <trkpt lat="44.0071" lon="0.48084">
        <ele>177.7</ele>
        <time>2011-07-24T06:44:16Z</time>
      </trkpt>
      <trkpt lat="44.00723" lon="0.48049">
        <ele>175.7</ele>
        <time>2011-07-24T06:44:20Z</time>
      </trkpt>
      <trkpt lat="44.00739" lon="0.48008">
        <ele>174.2</ele>
        <time>2011-07-24T06:44:25Z</time>
      </trkpt>
      <trkpt lat="44.0076" lon="0.47975">
        <ele>174.1</ele>
        <time>2011-07-24T06:44:31Z</time>
      </trkpt>
      <trkpt lat="44.00786" lon="0.47948">
        <ele>169.4</ele>
        <time>2011-07-24T06:44:37Z</time>
      </trkpt>
      <trkpt lat="44.008" lon="0.47897">
        <ele>164.2</ele>
        <time>2011-07-24T06:44:43Z</time>
      </trkpt>
      <trkpt lat="44.00817" lon="0.47859">
        <ele>162.4</ele>
        <time>2011-07-24T06:44:51Z</time>
      </trkpt>
      <trkpt lat="44.00847" lon="0.47884">
        <ele>161.5</ele>
        <time>2011-07-24T06:44:57Z</time>
      </trkpt>
      <trkpt lat="44.00868" lon="0.47875">
        <ele>158.6</ele>
        <time>2011-07-24T06:45:06Z</time>
      </trkpt>
      <trkpt lat="44.00868" lon="0.47828">
        <ele>156</ele>
        <time>2011-07-24T06:45:12Z</time>
      </trkpt>
      <trkpt lat="44.00873" lon="0.47779">
        <ele>152.5</ele>
        <time>2011-07-24T06:45:17Z</time>
      </trkpt>
      <trkpt lat="44.00873" lon="0.47706">
        <ele>144.5</ele>
        <time>2011-07-24T06:45:23Z</time>
      </trkpt>
      <trkpt lat="44.00849" lon="0.47628">
        <ele>142.1</ele>
        <time>2011-07-24T06:45:29Z</time>
      </trkpt>
      <trkpt lat="44.00849" lon="0.47556">
        <ele>148.1</ele>
        <time>2011-07-24T06:45:36Z</time>
      </trkpt>
      <trkpt lat="44.00835" lon="0.47518">
        <ele>154</ele>
        <time>2011-07-24T06:45:44Z</time>
      </trkpt>
      <trkpt lat="44.00828" lon="0.47498">
        <ele>155.8</ele>
        <time>2011-07-24T06:45:49Z</time>
      </trkpt>
      <trkpt lat="44.00826" lon="0.4748">
        <ele>156.4</ele>
        <time>2011-07-24T06:45:54Z</time>
      </trkpt>
      <trkpt lat="44.00826" lon="0.47441">
        <ele>158.2</ele>
        <time>2011-07-24T06:46:02Z</time>
      </trkpt>
      <trkpt lat="44.00825" lon="0.47417">
        <ele>161.2</ele>
        <time>2011-07-24T06:46:07Z</time>
      </trkpt>
      <trkpt lat="44.00827" lon="0.47396">
        <ele>161.7</ele>
        <time>2011-07-24T06:46:11Z</time>
      </trkpt>
      <trkpt lat="44.00832" lon="0.47357">
        <ele>160.7</ele>
        <time>2011-07-24T06:46:17Z</time>
      </trkpt>
      <trkpt lat="44.00833" lon="0.47316">
        <ele>161.2</ele>
        <time>2011-07-24T06:46:24Z</time>
      </trkpt>
      <trkpt lat="44.00832" lon="0.47277">
        <ele>161</ele>
        <time>2011-07-24T06:46:30Z</time>
      </trkpt>
      <trkpt lat="44.00833" lon="0.47253">
        <ele>162.1</ele>
        <time>2011-07-24T06:46:34Z</time>
      </trkpt>
      <trkpt lat="44.00834" lon="0.47229">
        <ele>162.9</ele>
        <time>2011-07-24T06:46:38Z</time>
      </trkpt>
      <trkpt lat="44.00834" lon="0.47204">
        <ele>164.8</ele>
        <time>2011-07-24T06:46:42Z</time>
      </trkpt>
      <trkpt lat="44.0084" lon="0.47157">
        <ele>164.3</ele>
        <time>2011-07-24T06:46:50Z</time>
      </trkpt>
      <trkpt lat="44.00858" lon="0.47117">
        <ele>160.9</ele>
        <time>2011-07-24T06:46:57Z</time>
      </trkpt>
      <trkpt lat="44.00882" lon="0.47076">
        <ele>159.1</ele>
        <time>2011-07-24T06:47:03Z</time>
      </trkpt>
      <trkpt lat="44.00899" lon="0.47038">
        <ele>159.1</ele>
        <time>2011-07-24T06:47:09Z</time>
      </trkpt>
      <trkpt lat="44.009" lon="0.46998">
        <ele>159</ele>
        <time>2011-07-24T06:47:15Z</time>
      </trkpt>
      <trkpt lat="44.00887" lon="0.46955">
        <ele>160.6</ele>
        <time>2011-07-24T06:47:21Z</time>
      </trkpt>
      <trkpt lat="44.00884" lon="0.46904">
        <ele>161</ele>
        <time>2011-07-24T06:47:27Z</time>
      </trkpt>
      <trkpt lat="44.00893" lon="0.46861">
        <ele>163.1</ele>
        <time>2011-07-24T06:47:33Z</time>
      </trkpt>
      <trkpt lat="44.00909" lon="0.46818">
        <ele>162.2</ele>
        <time>2011-07-24T06:47:41Z</time>
      </trkpt>
      <trkpt lat="44.00919" lon="0.46781">
        <ele>163.4</ele>
        <time>2011-07-24T06:47:47Z</time>
      </trkpt>
      <trkpt lat="44.00921" lon="0.46741">
        <ele>165.9</ele>
        <time>2011-07-24T06:47:53Z</time>
      </trkpt>
      <trkpt lat="44.00937" lon="0.46707">
        <ele>166.1</ele>
        <time>2011-07-24T06:47:59Z</time>
      </trkpt>
      <trkpt lat="44.00947" lon="0.46696">
        <ele>165.9</ele>
        <time>2011-07-24T06:48:03Z</time>
      </trkpt>
      <trkpt lat="44.0096" lon="0.46688">
        <ele>165.2</ele>
        <time>2011-07-24T06:48:08Z</time>
      </trkpt>
      <trkpt lat="44.00978" lon="0.46689">
        <ele>164</ele>
        <time>2011-07-24T06:48:13Z</time>
      </trkpt>
      <trkpt lat="44.01004" lon="0.46666">
        <ele>163.1</ele>
        <time>2011-07-24T06:48:20Z</time>
      </trkpt>
      <trkpt lat="44.01026" lon="0.46634">
        <ele>162.5</ele>
        <time>2011-07-24T06:48:27Z</time>
      </trkpt>
      <trkpt lat="44.01033" lon="0.46594">
        <ele>162.8</ele>
        <time>2011-07-24T06:48:33Z</time>
      </trkpt>
      <trkpt lat="44.01046" lon="0.46559">
        <ele>163.1</ele>
        <time>2011-07-24T06:48:39Z</time>
      </trkpt>
      <trkpt lat="44.01052" lon="0.46536">
        <ele>163</ele>
        <time>2011-07-24T06:48:43Z</time>
      </trkpt>
      <trkpt lat="44.01056" lon="0.46511">
        <ele>163.1</ele>
        <time>2011-07-24T06:48:47Z</time>
      </trkpt>
      <trkpt lat="44.01065" lon="0.46475">
        <ele>162.6</ele>
        <time>2011-07-24T06:48:53Z</time>
      </trkpt>
      <trkpt lat="44.0108" lon="0.46437">
        <ele>161.7</ele>
        <time>2011-07-24T06:48:59Z</time>
      </trkpt>
      <trkpt lat="44.01105" lon="0.46419">
        <ele>161</ele>
        <time>2011-07-24T06:49:05Z</time>
      </trkpt>
      <trkpt lat="44.01141" lon="0.46432">
        <ele>159.6</ele>
        <time>2011-07-24T06:49:11Z</time>
      </trkpt>
      <trkpt lat="44.01173" lon="0.46436">
        <ele>159.2</ele>
        <time>2011-07-24T06:49:18Z</time>
      </trkpt>
      <trkpt lat="44.0118" lon="0.46418">
        <ele>160.5</ele>
        <time>2011-07-24T06:49:24Z</time>
      </trkpt>
      <trkpt lat="44.0117" lon="0.464">
        <ele>162.4</ele>
        <time>2011-07-24T06:49:29Z</time>
      </trkpt>
      <trkpt lat="44.01161" lon="0.4638">
        <ele>164.2</ele>
        <time>2011-07-24T06:49:34Z</time>
      </trkpt>
      <trkpt lat="44.01152" lon="0.46361">
        <ele>165.8</ele>
        <time>2011-07-24T06:49:39Z</time>
      </trkpt>
      <trkpt lat="44.01143" lon="0.46343">
        <ele>167.4</ele>
        <time>2011-07-24T06:49:44Z</time>
      </trkpt>
      <trkpt lat="44.01126" lon="0.46307">
        <ele>170</ele>
        <time>2011-07-24T06:49:53Z</time>
      </trkpt>
      <trkpt lat="44.01117" lon="0.4629">
        <ele>171.1</ele>
        <time>2011-07-24T06:49:58Z</time>
      </trkpt>
      <trkpt lat="44.01108" lon="0.46273">
        <ele>172.1</ele>
        <time>2011-07-24T06:50:03Z</time>
      </trkpt>
      <trkpt lat="44.01099" lon="0.46257">
        <ele>173.2</ele>
        <time>2011-07-24T06:50:10Z</time>
      </trkpt>
      <trkpt lat="44.01092" lon="0.46237">
        <ele>174.1</ele>
        <time>2011-07-24T06:50:16Z</time>
      </trkpt>
      <trkpt lat="44.01091" lon="0.46216">
        <ele>175.1</ele>
        <time>2011-07-24T06:50:22Z</time>
      </trkpt>
      <trkpt lat="44.0109" lon="0.46194">
        <ele>175.6</ele>
        <time>2011-07-24T06:50:28Z</time>
      </trkpt>
      <trkpt lat="44.01084" lon="0.46176">
        <ele>175.9</ele>
        <time>2011-07-24T06:50:33Z</time>
      </trkpt>
      <trkpt lat="44.01074" lon="0.4616">
        <ele>175.5</ele>
        <time>2011-07-24T06:50:38Z</time>
      </trkpt>
      <trkpt lat="44.01063" lon="0.46144">
        <ele>175.1</ele>
        <time>2011-07-24T06:50:43Z</time>
      </trkpt>
      <trkpt lat="44.01052" lon="0.46129">
        <ele>174.5</ele>
        <time>2011-07-24T06:50:48Z</time>
      </trkpt>
      <trkpt lat="44.01043" lon="0.46113">
        <ele>173.7</ele>
        <time>2011-07-24T06:50:53Z</time>
      </trkpt>
      <trkpt lat="44.01033" lon="0.46098">
        <ele>172.9</ele>
        <time>2011-07-24T06:50:58Z</time>
      </trkpt>
      <trkpt lat="44.01024" lon="0.46082">
        <ele>172</ele>
        <time>2011-07-24T06:51:02Z</time>
      </trkpt>
      <trkpt lat="44.01006" lon="0.46047">
        <ele>170</ele>
        <time>2011-07-24T06:51:09Z</time>
      </trkpt>
      <trkpt lat="44.00991" lon="0.46007">
        <ele>168.1</ele>
        <time>2011-07-24T06:51:15Z</time>
      </trkpt>
      <trkpt lat="44.00976" lon="0.45967">
        <ele>166.9</ele>
        <time>2011-07-24T06:51:20Z</time>
      </trkpt>
      <trkpt lat="44.00946" lon="0.45915">
        <ele>166.6</ele>
        <time>2011-07-24T06:51:26Z</time>
      </trkpt>
      <trkpt lat="44.00927" lon="0.4588">
        <ele>166.9</ele>
        <time>2011-07-24T06:51:30Z</time>
      </trkpt>
      <trkpt lat="44.00903" lon="0.45827">
        <ele>167.5</ele>
        <time>2011-07-24T06:51:36Z</time>
      </trkpt>
      <trkpt lat="44.00875" lon="0.45782">
        <ele>167.9</ele>
        <time>2011-07-24T06:51:42Z</time>
      </trkpt>
      <trkpt lat="44.00851" lon="0.45751">
        <ele>168.4</ele>
        <time>2011-07-24T06:51:47Z</time>
      </trkpt>
      <trkpt lat="44.00825" lon="0.45715">
        <ele>169.1</ele>
        <time>2011-07-24T06:51:53Z</time>
      </trkpt>
      <trkpt lat="44.00804" lon="0.45682">
        <ele>169.7</ele>
        <time>2011-07-24T06:51:59Z</time>
      </trkpt>
      <trkpt lat="44.00794" lon="0.45699">
        <ele>171.3</ele>
        <time>2011-07-24T06:52:05Z</time>
      </trkpt>
      <trkpt lat="44.008" lon="0.45737">
        <ele>172.5</ele>
        <time>2011-07-24T06:52:11Z</time>
      </trkpt>
      <trkpt lat="44.00781" lon="0.45763">
        <ele>173.6</ele>
        <time>2011-07-24T06:52:18Z</time>
      </trkpt>
      <trkpt lat="44.00766" lon="0.45798">
        <ele>172.9</ele>
        <time>2011-07-24T06:52:24Z</time>
      </trkpt>
      <trkpt lat="44.00758" lon="0.4584">
        <ele>172.7</ele>
        <time>2011-07-24T06:52:30Z</time>
      </trkpt>
      <trkpt lat="44.00751" lon="0.45883">
        <ele>173.4</ele>
        <time>2011-07-24T06:52:36Z</time>
      </trkpt>
      <trkpt lat="44.00744" lon="0.45924">
        <ele>175.4</ele>
        <time>2011-07-24T06:52:42Z</time>
      </trkpt>
      <trkpt lat="44.00734" lon="0.45966">
        <ele>175.7</ele>
        <time>2011-07-24T06:52:49Z</time>
      </trkpt>
      <trkpt lat="44.00731" lon="0.45988">
        <ele>177.1</ele>
        <time>2011-07-24T06:52:53Z</time>
      </trkpt>
      <trkpt lat="44.00726" lon="0.46033">
        <ele>177.3</ele>
        <time>2011-07-24T06:53:01Z</time>
      </trkpt>
      <trkpt lat="44.00723" lon="0.46055">
        <ele>177.6</ele>
        <time>2011-07-24T06:53:05Z</time>
      </trkpt>
      <trkpt lat="44.00713" lon="0.461">
        <ele>177.8</ele>
        <time>2011-07-24T06:53:13Z</time>
      </trkpt>
      <trkpt lat="44.00708" lon="0.46122">
        <ele>178.9</ele>
        <time>2011-07-24T06:53:17Z</time>
      </trkpt>
      <trkpt lat="44.00697" lon="0.46167">
        <ele>177.5</ele>
        <time>2011-07-24T06:53:25Z</time>
      </trkpt>
      <trkpt lat="44.00691" lon="0.46191">
        <ele>177.5</ele>
        <time>2011-07-24T06:53:29Z</time>
      </trkpt>
      <trkpt lat="44.00681" lon="0.46227">
        <ele>176.4</ele>
        <time>2011-07-24T06:53:35Z</time>
      </trkpt>
      <trkpt lat="44.00662" lon="0.46265">
        <ele>174.8</ele>
        <time>2011-07-24T06:53:41Z</time>
      </trkpt>
      <trkpt lat="44.00639" lon="0.463">
        <ele>171.3</ele>
        <time>2011-07-24T06:53:47Z</time>
      </trkpt>
      <trkpt lat="44.00614" lon="0.46339">
        <ele>169.9</ele>
        <time>2011-07-24T06:53:53Z</time>
      </trkpt>
      <trkpt lat="44.00598" lon="0.46378">
        <ele>168.9</ele>
        <time>2011-07-24T06:53:59Z</time>
      </trkpt>
      <trkpt lat="44.00591" lon="0.46416">
        <ele>167.8</ele>
        <time>2011-07-24T06:54:05Z</time>
      </trkpt>
      <trkpt lat="44.00585" lon="0.46458">
        <ele>167.7</ele>
        <time>2011-07-24T06:54:12Z</time>
      </trkpt>
      <trkpt lat="44.00582" lon="0.46482">
        <ele>167.8</ele>
        <time>2011-07-24T06:54:16Z</time>
      </trkpt>
      <trkpt lat="44.0058" lon="0.4652">
        <ele>168.1</ele>
        <time>2011-07-24T06:54:22Z</time>
      </trkpt>
      <trkpt lat="44.00577" lon="0.46558">
        <ele>169.2</ele>
        <time>2011-07-24T06:54:28Z</time>
      </trkpt>
      <trkpt lat="44.00575" lon="0.46578">
        <ele>170.9</ele>
        <time>2011-07-24T06:54:32Z</time>
      </trkpt>
      <trkpt lat="44.00563" lon="0.46617">
        <ele>171.6</ele>
        <time>2011-07-24T06:54:39Z</time>
      </trkpt>
      <trkpt lat="44.00551" lon="0.46654">
        <ele>170.4</ele>
        <time>2011-07-24T06:54:45Z</time>
      </trkpt>
      <trkpt lat="44.00539" lon="0.46696">
        <ele>169</ele>
        <time>2011-07-24T06:54:51Z</time>
      </trkpt>
      <trkpt lat="44.00531" lon="0.46735">
        <ele>170.2</ele>
        <time>2011-07-24T06:54:57Z</time>
      </trkpt>
      <trkpt lat="44.00522" lon="0.46772">
        <ele>171.5</ele>
        <time>2011-07-24T06:55:03Z</time>
      </trkpt>
      <trkpt lat="44.00516" lon="0.46795">
        <ele>171.7</ele>
        <time>2011-07-24T06:55:07Z</time>
      </trkpt>
      <trkpt lat="44.0051" lon="0.46815">
        <ele>171.8</ele>
        <time>2011-07-24T06:55:11Z</time>
      </trkpt>
      <trkpt lat="44.00508" lon="0.46835">
        <ele>173</ele>
        <time>2011-07-24T06:55:15Z</time>
      </trkpt>
      <trkpt lat="44.00492" lon="0.46865">
        <ele>174.3</ele>
        <time>2011-07-24T06:55:23Z</time>
      </trkpt>
      <trkpt lat="44.00461" lon="0.46871">
        <ele>170.5</ele>
        <time>2011-07-24T06:55:30Z</time>
      </trkpt>
      <trkpt lat="44.00434" lon="0.46896">
        <ele>171.6</ele>
        <time>2011-07-24T06:55:36Z</time>
      </trkpt>
      <trkpt lat="44.00414" lon="0.4693">
        <ele>173.3</ele>
        <time>2011-07-24T06:55:44Z</time>
      </trkpt>
      <trkpt lat="44.0038" lon="0.4693">
        <ele>174</ele>
        <time>2011-07-24T06:55:52Z</time>
      </trkpt>
      <trkpt lat="44.00366" lon="0.46928">
        <ele>174.6</ele>
        <time>2011-07-24T06:55:56Z</time>
      </trkpt>
      <trkpt lat="44.00351" lon="0.46936">
        <ele>175.8</ele>
        <time>2011-07-24T06:56:01Z</time>
      </trkpt>
      <trkpt lat="44.00338" lon="0.46944">
        <ele>176.6</ele>
        <time>2011-07-24T06:56:18Z</time>
      </trkpt>
      <trkpt lat="44.00317" lon="0.46973">
        <ele>179</ele>
        <time>2011-07-24T06:56:26Z</time>
      </trkpt>
      <trkpt lat="44.003" lon="0.47008">
        <ele>181.8</ele>
        <time>2011-07-24T06:56:35Z</time>
      </trkpt>
      <trkpt lat="44.00293" lon="0.47026">
        <ele>182.1</ele>
        <time>2011-07-24T06:56:40Z</time>
      </trkpt>
      <trkpt lat="44.00284" lon="0.47044">
        <ele>182.9</ele>
        <time>2011-07-24T06:56:45Z</time>
      </trkpt>
      <trkpt lat="44.00276" lon="0.47063">
        <ele>183.9</ele>
        <time>2011-07-24T06:56:50Z</time>
      </trkpt>
      <trkpt lat="44.00268" lon="0.47082">
        <ele>185.2</ele>
        <time>2011-07-24T06:56:55Z</time>
      </trkpt>
      <trkpt lat="44.00262" lon="0.47099">
        <ele>186.5</ele>
        <time>2011-07-24T06:57:00Z</time>
      </trkpt>
      <trkpt lat="44.00256" lon="0.47116">
        <ele>187.2</ele>
        <time>2011-07-24T06:57:05Z</time>
      </trkpt>
      <trkpt lat="44.00251" lon="0.47135">
        <ele>188.2</ele>
        <time>2011-07-24T06:57:10Z</time>
      </trkpt>
      <trkpt lat="44.00247" lon="0.47154">
        <ele>189.7</ele>
        <time>2011-07-24T06:57:15Z</time>
      </trkpt>
      <trkpt lat="44.00245" lon="0.47173">
        <ele>191.7</ele>
        <time>2011-07-24T06:57:20Z</time>
      </trkpt>
      <trkpt lat="44.00241" lon="0.47192">
        <ele>193.2</ele>
        <time>2011-07-24T06:57:25Z</time>
      </trkpt>
      <trkpt lat="44.00236" lon="0.47212">
        <ele>194.9</ele>
        <time>2011-07-24T06:57:30Z</time>
      </trkpt>
      <trkpt lat="44.0023" lon="0.47232">
        <ele>196.3</ele>
        <time>2011-07-24T06:57:35Z</time>
      </trkpt>
      <trkpt lat="44.00224" lon="0.47251">
        <ele>197.3</ele>
        <time>2011-07-24T06:57:40Z</time>
      </trkpt>
      <trkpt lat="44.00218" lon="0.47269">
        <ele>198</ele>
        <time>2011-07-24T06:57:45Z</time>
      </trkpt>
      <trkpt lat="44.00213" lon="0.47287">
        <ele>198.5</ele>
        <time>2011-07-24T06:57:50Z</time>
      </trkpt>
      <trkpt lat="44.00207" lon="0.47307">
        <ele>199.4</ele>
        <time>2011-07-24T06:57:56Z</time>
      </trkpt>
      <trkpt lat="44.00203" lon="0.47326">
        <ele>200</ele>
        <time>2011-07-24T06:58:02Z</time>
      </trkpt>
      <trkpt lat="44.00217" lon="0.47333">
        <ele>200.1</ele>
        <time>2011-07-24T06:58:08Z</time>
      </trkpt>
      <trkpt lat="44.00232" lon="0.47338">
        <ele>200.2</ele>
        <time>2011-07-24T06:58:13Z</time>
      </trkpt>
      <trkpt lat="44.00248" lon="0.47343">
        <ele>200.3</ele>
        <time>2011-07-24T06:58:18Z</time>
      </trkpt>
      <trkpt lat="44.00263" lon="0.47352">
        <ele>200.4</ele>
        <time>2011-07-24T06:58:23Z</time>
      </trkpt>
      <trkpt lat="44.00277" lon="0.47362">
        <ele>200.4</ele>
        <time>2011-07-24T06:58:28Z</time>
      </trkpt>
      <trkpt lat="44.00289" lon="0.47373">
        <ele>200.5</ele>
        <time>2011-07-24T06:58:33Z</time>
      </trkpt>
      <trkpt lat="44.00284" lon="0.47391">
        <ele>200.5</ele>
        <time>2011-07-24T06:58:41Z</time>
      </trkpt>
      <trkpt lat="44.00271" lon="0.47402">
        <ele>200.6</ele>
        <time>2011-07-24T07:00:47Z</time>
      </trkpt>
      <trkpt lat="44.00253" lon="0.47434">
        <ele>200.6</ele>
        <time>2011-07-24T07:00:55Z</time>
      </trkpt>
      <trkpt lat="44.00234" lon="0.47463">
        <ele>201.7</ele>
        <time>2011-07-24T07:01:03Z</time>
      </trkpt>
      <trkpt lat="44.00223" lon="0.47478">
        <ele>201.7</ele>
        <time>2011-07-24T07:01:07Z</time>
      </trkpt>
      <trkpt lat="44.00203" lon="0.47507">
        <ele>200.4</ele>
        <time>2011-07-24T07:01:15Z</time>
      </trkpt>
      <trkpt lat="44.00182" lon="0.47538">
        <ele>202</ele>
        <time>2011-07-24T07:01:23Z</time>
      </trkpt>
      <trkpt lat="44.00169" lon="0.4755">
        <ele>202.6</ele>
        <time>2011-07-24T07:01:27Z</time>
      </trkpt>
      <trkpt lat="44.00141" lon="0.47572">
        <ele>204</ele>
        <time>2011-07-24T07:01:35Z</time>
      </trkpt>
      <trkpt lat="44.00129" lon="0.47587">
        <ele>203.9</ele>
        <time>2011-07-24T07:01:39Z</time>
      </trkpt>
      <trkpt lat="44.00107" lon="0.47614">
        <ele>203.6</ele>
        <time>2011-07-24T07:01:47Z</time>
      </trkpt>
      <trkpt lat="44.00085" lon="0.4765">
        <ele>202.1</ele>
        <time>2011-07-24T07:01:54Z</time>
      </trkpt>
      <trkpt lat="44.00073" lon="0.47694">
        <ele>200.4</ele>
        <time>2011-07-24T07:02:00Z</time>
      </trkpt>
      <trkpt lat="44.00065" lon="0.47732">
        <ele>199</ele>
        <time>2011-07-24T07:02:04Z</time>
      </trkpt>
      <trkpt lat="44.00074" lon="0.47769">
        <ele>202.7</ele>
        <time>2011-07-24T07:02:10Z</time>
      </trkpt>
      <trkpt lat="44.0009" lon="0.47806">
        <ele>206.3</ele>
        <time>2011-07-24T07:02:16Z</time>
      </trkpt>
      <trkpt lat="44.00085" lon="0.47848">
        <ele>205.6</ele>
        <time>2011-07-24T07:02:22Z</time>
      </trkpt>
      <trkpt lat="44.00086" lon="0.4789">
        <ele>205.3</ele>
        <time>2011-07-24T07:02:28Z</time>
      </trkpt>
      <trkpt lat="44.00082" lon="0.4793">
        <ele>205.3</ele>
        <time>2011-07-24T07:02:34Z</time>
      </trkpt>
      <trkpt lat="44.00082" lon="0.47954">
        <ele>205.8</ele>
        <time>2011-07-24T07:02:38Z</time>
      </trkpt>
      <trkpt lat="44.00076" lon="0.48001">
        <ele>207.6</ele>
        <time>2011-07-24T07:02:46Z</time>
      </trkpt>
      <trkpt lat="44.00072" lon="0.48043">
        <ele>209</ele>
        <time>2011-07-24T07:02:53Z</time>
      </trkpt>
      <trkpt lat="44.00054" lon="0.48068">
        <ele>210.6</ele>
        <time>2011-07-24T07:03:04Z</time>
      </trkpt>
      <trkpt lat="44.0004" lon="0.48075">
        <ele>210.8</ele>
        <time>2011-07-24T07:03:09Z</time>
      </trkpt>
      <trkpt lat="44.00007" lon="0.48089">
        <ele>208</ele>
        <time>2011-07-24T07:03:15Z</time>
      </trkpt>
      <trkpt lat="43.99965" lon="0.4808">
        <ele>203.2</ele>
        <time>2011-07-24T07:03:22Z</time>
      </trkpt>
      <trkpt lat="43.99934" lon="0.4806">
        <ele>199.5</ele>
        <time>2011-07-24T07:03:27Z</time>
      </trkpt>
      <trkpt lat="43.99901" lon="0.48057">
        <ele>197.5</ele>
        <time>2011-07-24T07:03:32Z</time>
      </trkpt>
      <trkpt lat="43.99867" lon="0.48068">
        <ele>194.3</ele>
        <time>2011-07-24T07:03:37Z</time>
      </trkpt>
      <trkpt lat="43.99829" lon="0.48059">
        <ele>188.2</ele>
        <time>2011-07-24T07:03:43Z</time>
      </trkpt>
      <trkpt lat="43.99793" lon="0.48049">
        <ele>186</ele>
        <time>2011-07-24T07:03:49Z</time>
      </trkpt>
      <trkpt lat="43.99751" lon="0.48032">
        <ele>184.7</ele>
        <time>2011-07-24T07:03:56Z</time>
      </trkpt>
      <trkpt lat="43.99716" lon="0.48013">
        <ele>185.1</ele>
        <time>2011-07-24T07:04:02Z</time>
      </trkpt>
      <trkpt lat="43.99695" lon="0.47973">
        <ele>183.9</ele>
        <time>2011-07-24T07:04:08Z</time>
      </trkpt>
      <trkpt lat="43.99683" lon="0.47931">
        <ele>181.7</ele>
        <time>2011-07-24T07:04:14Z</time>
      </trkpt>
      <trkpt lat="43.99662" lon="0.47895">
        <ele>180.5</ele>
        <time>2011-07-24T07:04:20Z</time>
      </trkpt>
      <trkpt lat="43.99648" lon="0.47883">
        <ele>181</ele>
        <time>2011-07-24T07:04:24Z</time>
      </trkpt>
      <trkpt lat="43.99619" lon="0.47879">
        <ele>181.4</ele>
        <time>2011-07-24T07:04:30Z</time>
      </trkpt>
      <trkpt lat="43.99591" lon="0.47859">
        <ele>181.9</ele>
        <time>2011-07-24T07:04:38Z</time>
      </trkpt>
      <trkpt lat="43.99557" lon="0.47859">
        <ele>182.2</ele>
        <time>2011-07-24T07:04:44Z</time>
      </trkpt>
      <trkpt lat="43.99519" lon="0.47863">
        <ele>180.8</ele>
        <time>2011-07-24T07:04:50Z</time>
      </trkpt>
      <trkpt lat="43.99472" lon="0.47853">
        <ele>180</ele>
        <time>2011-07-24T07:04:57Z</time>
      </trkpt>
      <trkpt lat="43.99444" lon="0.47831">
        <ele>181.4</ele>
        <time>2011-07-24T07:05:03Z</time>
      </trkpt>
      <trkpt lat="43.99416" lon="0.4781">
        <ele>181.2</ele>
        <time>2011-07-24T07:05:11Z</time>
      </trkpt>
      <trkpt lat="43.99387" lon="0.47799">
        <ele>182</ele>
        <time>2011-07-24T07:05:19Z</time>
      </trkpt>
      <trkpt lat="43.99373" lon="0.47793">
        <ele>181.4</ele>
        <time>2011-07-24T07:05:23Z</time>
      </trkpt>
      <trkpt lat="43.99352" lon="0.47767">
        <ele>179.1</ele>
        <time>2011-07-24T07:05:31Z</time>
      </trkpt>
      <trkpt lat="43.9933" lon="0.47745">
        <ele>178.5</ele>
        <time>2011-07-24T07:05:40Z</time>
      </trkpt>
      <trkpt lat="43.99314" lon="0.47738">
        <ele>179.9</ele>
        <time>2011-07-24T07:05:45Z</time>
      </trkpt>
      <trkpt lat="43.993" lon="0.47734">
        <ele>181.2</ele>
        <time>2011-07-24T07:05:49Z</time>
      </trkpt>
      <trkpt lat="43.99271" lon="0.47728">
        <ele>182.5</ele>
        <time>2011-07-24T07:05:57Z</time>
      </trkpt>
      <trkpt lat="43.99258" lon="0.47723">
        <ele>181.9</ele>
        <time>2011-07-24T07:06:01Z</time>
      </trkpt>
      <trkpt lat="43.99245" lon="0.47719">
        <ele>181.5</ele>
        <time>2011-07-24T07:06:05Z</time>
      </trkpt>
      <trkpt lat="43.99227" lon="0.47714">
        <ele>181.8</ele>
        <time>2011-07-24T07:06:11Z</time>
      </trkpt>
      <trkpt lat="43.9921" lon="0.47708">
        <ele>180.6</ele>
        <time>2011-07-24T07:06:16Z</time>
      </trkpt>
      <trkpt lat="43.99179" lon="0.47705">
        <ele>177.8</ele>
        <time>2011-07-24T07:06:22Z</time>
      </trkpt>
      <trkpt lat="43.99146" lon="0.47712">
        <ele>176.1</ele>
        <time>2011-07-24T07:06:29Z</time>
      </trkpt>
      <trkpt lat="43.99115" lon="0.47713">
        <ele>175.5</ele>
        <time>2011-07-24T07:06:35Z</time>
      </trkpt>
      <trkpt lat="43.99069" lon="0.47721">
        <ele>175.1</ele>
        <time>2011-07-24T07:06:42Z</time>
      </trkpt>
      <trkpt lat="43.99033" lon="0.47728">
        <ele>174.5</ele>
        <time>2011-07-24T07:06:48Z</time>
      </trkpt>
      <trkpt lat="43.98997" lon="0.47726">
        <ele>174</ele>
        <time>2011-07-24T07:06:54Z</time>
      </trkpt>
      <trkpt lat="43.9896" lon="0.47717">
        <ele>174.5</ele>
        <time>2011-07-24T07:07:00Z</time>
      </trkpt>
      <trkpt lat="43.98926" lon="0.47708">
        <ele>175.8</ele>
        <time>2011-07-24T07:07:05Z</time>
      </trkpt>
      <trkpt lat="43.98875" lon="0.47696">
        <ele>178.2</ele>
        <time>2011-07-24T07:07:12Z</time>
      </trkpt>
      <trkpt lat="43.98835" lon="0.47679">
        <ele>180</ele>
        <time>2011-07-24T07:07:18Z</time>
      </trkpt>
      <trkpt lat="43.98801" lon="0.47661">
        <ele>180.9</ele>
        <time>2011-07-24T07:07:24Z</time>
      </trkpt>
      <trkpt lat="43.98767" lon="0.47648">
        <ele>181</ele>
        <time>2011-07-24T07:07:30Z</time>
      </trkpt>
      <trkpt lat="43.98735" lon="0.47662">
        <ele>180.9</ele>
        <time>2011-07-24T07:07:38Z</time>
      </trkpt>
      <trkpt lat="43.9872" lon="0.4767">
        <ele>180.8</ele>
        <time>2011-07-24T07:07:42Z</time>
      </trkpt>
      <trkpt lat="43.9869" lon="0.47683">
        <ele>180.5</ele>
        <time>2011-07-24T07:07:49Z</time>
      </trkpt>
      <trkpt lat="43.98664" lon="0.47697">
        <ele>180.2</ele>
        <time>2011-07-24T07:07:55Z</time>
      </trkpt>
      <trkpt lat="43.98636" lon="0.47704">
        <ele>180</ele>
        <time>2011-07-24T07:08:03Z</time>
      </trkpt>
      <trkpt lat="43.98624" lon="0.47715">
        <ele>179.7</ele>
        <time>2011-07-24T07:08:07Z</time>
      </trkpt>
      <trkpt lat="43.98599" lon="0.47727">
        <ele>178.9</ele>
        <time>2011-07-24T07:08:13Z</time>
      </trkpt>
      <trkpt lat="43.98568" lon="0.47739">
        <ele>177.9</ele>
        <time>2011-07-24T07:08:21Z</time>
      </trkpt>
      <trkpt lat="43.98553" lon="0.47747">
        <ele>177.3</ele>
        <time>2011-07-24T07:08:26Z</time>
      </trkpt>
      <trkpt lat="43.98545" lon="0.47729">
        <ele>177</ele>
        <time>2011-07-24T07:08:31Z</time>
      </trkpt>
      <trkpt lat="43.98553" lon="0.47686">
        <ele>176.8</ele>
        <time>2011-07-24T07:08:37Z</time>
      </trkpt>
      <trkpt lat="43.98562" lon="0.47636">
        <ele>176.4</ele>
        <time>2011-07-24T07:08:43Z</time>
      </trkpt>
      <trkpt lat="43.98572" lon="0.47583">
        <ele>174.9</ele>
        <time>2011-07-24T07:08:49Z</time>
      </trkpt>
      <trkpt lat="43.98576" lon="0.47532">
        <ele>174.4</ele>
        <time>2011-07-24T07:08:56Z</time>
      </trkpt>
      <trkpt lat="43.98558" lon="0.47496">
        <ele>173.9</ele>
        <time>2011-07-24T07:09:02Z</time>
      </trkpt>
      <trkpt lat="43.9854" lon="0.47462">
        <ele>171.9</ele>
        <time>2011-07-24T07:09:10Z</time>
      </trkpt>
      <trkpt lat="43.98539" lon="0.4741">
        <ele>168.6</ele>
        <time>2011-07-24T07:09:17Z</time>
      </trkpt>
      <trkpt lat="43.98539" lon="0.47371">
        <ele>165.7</ele>
        <time>2011-07-24T07:09:23Z</time>
      </trkpt>
      <trkpt lat="43.98525" lon="0.47332">
        <ele>163.5</ele>
        <time>2011-07-24T07:09:30Z</time>
      </trkpt>
      <trkpt lat="43.98516" lon="0.47311">
        <ele>162.4</ele>
        <time>2011-07-24T07:09:34Z</time>
      </trkpt>
      <trkpt lat="43.98505" lon="0.4727">
        <ele>160.4</ele>
        <time>2011-07-24T07:09:40Z</time>
      </trkpt>
      <trkpt lat="43.98494" lon="0.47231">
        <ele>158</ele>
        <time>2011-07-24T07:09:46Z</time>
      </trkpt>
      <trkpt lat="43.98476" lon="0.47189">
        <ele>155.2</ele>
        <time>2011-07-24T07:09:52Z</time>
      </trkpt>
      <trkpt lat="43.98459" lon="0.4715">
        <ele>153.1</ele>
        <time>2011-07-24T07:09:57Z</time>
      </trkpt>
      <trkpt lat="43.98442" lon="0.47105">
        <ele>152.2</ele>
        <time>2011-07-24T07:10:03Z</time>
      </trkpt>
      <trkpt lat="43.98426" lon="0.47064">
        <ele>150.1</ele>
        <time>2011-07-24T07:10:08Z</time>
      </trkpt>
      <trkpt lat="43.98398" lon="0.47029">
        <ele>147.7</ele>
        <time>2011-07-24T07:10:13Z</time>
      </trkpt>
      <trkpt lat="43.98362" lon="0.46982">
        <ele>146.9</ele>
        <time>2011-07-24T07:10:19Z</time>
      </trkpt>
      <trkpt lat="43.98341" lon="0.46944">
        <ele>146.4</ele>
        <time>2011-07-24T07:10:24Z</time>
      </trkpt>
      <trkpt lat="43.98327" lon="0.46901">
        <ele>144.8</ele>
        <time>2011-07-24T07:10:29Z</time>
      </trkpt>
      <trkpt lat="43.98316" lon="0.46862">
        <ele>143.8</ele>
        <time>2011-07-24T07:10:33Z</time>
      </trkpt>
      <trkpt lat="43.98303" lon="0.46818">
        <ele>142.5</ele>
        <time>2011-07-24T07:10:39Z</time>
      </trkpt>
      <trkpt lat="43.983" lon="0.46798">
        <ele>141.5</ele>
        <time>2011-07-24T07:10:44Z</time>
      </trkpt>
      <trkpt lat="43.98314" lon="0.46798">
        <ele>143</ele>
        <time>2011-07-24T07:10:50Z</time>
      </trkpt>
      <trkpt lat="43.98327" lon="0.46805">
        <ele>145</ele>
        <time>2011-07-24T07:10:55Z</time>
      </trkpt>
      <trkpt lat="43.98341" lon="0.46814">
        <ele>146.9</ele>
        <time>2011-07-24T07:11:01Z</time>
      </trkpt>
      <trkpt lat="43.98354" lon="0.46822">
        <ele>148.7</ele>
        <time>2011-07-24T07:11:07Z</time>
      </trkpt>
      <trkpt lat="43.98367" lon="0.46829">
        <ele>150.7</ele>
        <time>2011-07-24T07:11:13Z</time>
      </trkpt>
      <trkpt lat="43.98379" lon="0.46838">
        <ele>152.8</ele>
        <time>2011-07-24T07:11:19Z</time>
      </trkpt>
      <trkpt lat="43.98391" lon="0.46847">
        <ele>154.6</ele>
        <time>2011-07-24T07:11:25Z</time>
      </trkpt>
      <trkpt lat="43.98403" lon="0.46857">
        <ele>156.5</ele>
        <time>2011-07-24T07:11:31Z</time>
      </trkpt>
      <trkpt lat="43.98416" lon="0.46868">
        <ele>158.7</ele>
        <time>2011-07-24T07:11:37Z</time>
      </trkpt>
      <trkpt lat="43.98429" lon="0.46879">
        <ele>161.1</ele>
        <time>2011-07-24T07:11:43Z</time>
      </trkpt>
      <trkpt lat="43.98442" lon="0.4689">
        <ele>163.4</ele>
        <time>2011-07-24T07:11:49Z</time>
      </trkpt>
      <trkpt lat="43.98456" lon="0.46898">
        <ele>165.6</ele>
        <time>2011-07-24T07:11:55Z</time>
      </trkpt>
      <trkpt lat="43.98472" lon="0.469">
        <ele>167.7</ele>
        <time>2011-07-24T07:12:01Z</time>
      </trkpt>
      <trkpt lat="43.98488" lon="0.46902">
        <ele>169</ele>
        <time>2011-07-24T07:12:07Z</time>
      </trkpt>
      <trkpt lat="43.98502" lon="0.46905">
        <ele>169.8</ele>
        <time>2011-07-24T07:12:12Z</time>
      </trkpt>
      <trkpt lat="43.98518" lon="0.46907">
        <ele>170.2</ele>
        <time>2011-07-24T07:12:17Z</time>
      </trkpt>
      <trkpt lat="43.98534" lon="0.4691">
        <ele>170.5</ele>
        <time>2011-07-24T07:12:22Z</time>
      </trkpt>
      <trkpt lat="43.98549" lon="0.46902">
        <ele>170.3</ele>
        <time>2011-07-24T07:12:27Z</time>
      </trkpt>
      <trkpt lat="43.98558" lon="0.46888">
        <ele>169.9</ele>
        <time>2011-07-24T07:12:31Z</time>
      </trkpt>
      <trkpt lat="43.98569" lon="0.46847">
        <ele>169.3</ele>
        <time>2011-07-24T07:12:39Z</time>
      </trkpt>
      <trkpt lat="43.98573" lon="0.46826">
        <ele>168.5</ele>
        <time>2011-07-24T07:12:43Z</time>
      </trkpt>
      <trkpt lat="43.98582" lon="0.46781">
        <ele>166.7</ele>
        <time>2011-07-24T07:12:51Z</time>
      </trkpt>
      <trkpt lat="43.98585" lon="0.46757">
        <ele>166</ele>
        <time>2011-07-24T07:12:55Z</time>
      </trkpt>
      <trkpt lat="43.98586" lon="0.46708">
        <ele>165</ele>
        <time>2011-07-24T07:13:03Z</time>
      </trkpt>
      <trkpt lat="43.98586" lon="0.46688">
        <ele>164.6</ele>
        <time>2011-07-24T07:13:07Z</time>
      </trkpt>
      <trkpt lat="43.98582" lon="0.46643">
        <ele>163.7</ele>
        <time>2011-07-24T07:13:15Z</time>
      </trkpt>
      <trkpt lat="43.98575" lon="0.46602">
        <ele>162.6</ele>
        <time>2011-07-24T07:13:21Z</time>
      </trkpt>
      <trkpt lat="43.98571" lon="0.46559">
        <ele>161.2</ele>
        <time>2011-07-24T07:13:27Z</time>
      </trkpt>
      <trkpt lat="43.98571" lon="0.46516">
        <ele>160.1</ele>
        <time>2011-07-24T07:13:33Z</time>
      </trkpt>
      <trkpt lat="43.9858" lon="0.46474">
        <ele>160.5</ele>
        <time>2011-07-24T07:13:39Z</time>
      </trkpt>
      <trkpt lat="43.98593" lon="0.46433">
        <ele>161.5</ele>
        <time>2011-07-24T07:13:45Z</time>
      </trkpt>
      <trkpt lat="43.98605" lon="0.46393">
        <ele>163</ele>
        <time>2011-07-24T07:13:53Z</time>
      </trkpt>
      <trkpt lat="43.98618" lon="0.4635">
        <ele>163.4</ele>
        <time>2011-07-24T07:14:00Z</time>
      </trkpt>
      <trkpt lat="43.98629" lon="0.46312">
        <ele>163.4</ele>
        <time>2011-07-24T07:14:06Z</time>
      </trkpt>
      <trkpt lat="43.9864" lon="0.46272">
        <ele>163.1</ele>
        <time>2011-07-24T07:14:11Z</time>
      </trkpt>
      <trkpt lat="43.98659" lon="0.46228">
        <ele>162.3</ele>
        <time>2011-07-24T07:14:17Z</time>
      </trkpt>
      <trkpt lat="43.98675" lon="0.46193">
        <ele>162.6</ele>
        <time>2011-07-24T07:14:23Z</time>
      </trkpt>
      <trkpt lat="43.9869" lon="0.46154">
        <ele>162.3</ele>
        <time>2011-07-24T07:14:29Z</time>
      </trkpt>
      <trkpt lat="43.98705" lon="0.46112">
        <ele>161.4</ele>
        <time>2011-07-24T07:14:35Z</time>
      </trkpt>
      <trkpt lat="43.98722" lon="0.46064">
        <ele>159.9</ele>
        <time>2011-07-24T07:14:41Z</time>
      </trkpt>
      <trkpt lat="43.98739" lon="0.46014">
        <ele>157.2</ele>
        <time>2011-07-24T07:14:47Z</time>
      </trkpt>
      <trkpt lat="43.98753" lon="0.45974">
        <ele>154.9</ele>
        <time>2011-07-24T07:14:53Z</time>
      </trkpt>
      <trkpt lat="43.98767" lon="0.4593">
        <ele>152.7</ele>
        <time>2011-07-24T07:15:01Z</time>
      </trkpt>
      <trkpt lat="43.9878" lon="0.45894">
        <ele>151</ele>
        <time>2011-07-24T07:15:10Z</time>
      </trkpt>
      <trkpt lat="43.98791" lon="0.45854">
        <ele>150.2</ele>
        <time>2011-07-24T07:15:18Z</time>
      </trkpt>
      <trkpt lat="43.98804" lon="0.45818">
        <ele>148.3</ele>
        <time>2011-07-24T07:15:26Z</time>
      </trkpt>
      <trkpt lat="43.98814" lon="0.458">
        <ele>147.7</ele>
        <time>2011-07-24T07:15:31Z</time>
      </trkpt>
      <trkpt lat="43.98802" lon="0.45755">
        <ele>145.6</ele>
        <time>2011-07-24T07:15:38Z</time>
      </trkpt>
      <trkpt lat="43.98782" lon="0.45723">
        <ele>142.6</ele>
        <time>2011-07-24T07:15:44Z</time>
      </trkpt>
      <trkpt lat="43.9876" lon="0.45696">
        <ele>137.4</ele>
        <time>2011-07-24T07:15:49Z</time>
      </trkpt>
      <trkpt lat="43.98732" lon="0.45671">
        <ele>130</ele>
        <time>2011-07-24T07:15:56Z</time>
      </trkpt>
      <trkpt lat="43.98697" lon="0.45657">
        <ele>123.1</ele>
        <time>2011-07-24T07:16:02Z</time>
      </trkpt>
      <trkpt lat="43.98668" lon="0.4562">
        <ele>118.3</ele>
        <time>2011-07-24T07:16:08Z</time>
      </trkpt>
      <trkpt lat="43.98637" lon="0.45601">
        <ele>116.7</ele>
        <time>2011-07-24T07:16:14Z</time>
      </trkpt>
      <trkpt lat="43.98623" lon="0.45603">
        <ele>116.7</ele>
        <time>2011-07-24T07:16:24Z</time>
      </trkpt>
      <trkpt lat="43.98609" lon="0.45593">
        <ele>117.6</ele>
        <time>2011-07-24T07:16:31Z</time>
      </trkpt>
      <trkpt lat="43.98598" lon="0.45581">
        <ele>119.3</ele>
        <time>2011-07-24T07:16:36Z</time>
      </trkpt>
      <trkpt lat="43.98584" lon="0.4557">
        <ele>122</ele>
        <time>2011-07-24T07:16:41Z</time>
      </trkpt>
      <trkpt lat="43.98571" lon="0.45562">
        <ele>123.9</ele>
        <time>2011-07-24T07:16:46Z</time>
      </trkpt>
      <trkpt lat="43.98557" lon="0.45554">
        <ele>125.2</ele>
        <time>2011-07-24T07:16:51Z</time>
      </trkpt>
      <trkpt lat="43.98545" lon="0.45546">
        <ele>126.2</ele>
        <time>2011-07-24T07:16:56Z</time>
      </trkpt>
      <trkpt lat="43.98532" lon="0.45537">
        <ele>128</ele>
        <time>2011-07-24T07:17:01Z</time>
      </trkpt>
      <trkpt lat="43.98518" lon="0.45526">
        <ele>129.3</ele>
        <time>2011-07-24T07:17:06Z</time>
      </trkpt>
      <trkpt lat="43.98506" lon="0.45516">
        <ele>131.9</ele>
        <time>2011-07-24T07:17:11Z</time>
      </trkpt>
      <trkpt lat="43.98493" lon="0.45506">
        <ele>135.6</ele>
        <time>2011-07-24T07:17:17Z</time>
      </trkpt>
      <trkpt lat="43.98481" lon="0.45495">
        <ele>138.6</ele>
        <time>2011-07-24T07:17:23Z</time>
      </trkpt>
      <trkpt lat="43.98468" lon="0.45484">
        <ele>141.7</ele>
        <time>2011-07-24T07:17:30Z</time>
      </trkpt>
      <trkpt lat="43.98457" lon="0.45472">
        <ele>144.2</ele>
        <time>2011-07-24T07:17:36Z</time>
      </trkpt>
      <trkpt lat="43.98446" lon="0.45459">
        <ele>146.8</ele>
        <time>2011-07-24T07:17:43Z</time>
      </trkpt>
      <trkpt lat="43.98435" lon="0.45443">
        <ele>150</ele>
        <time>2011-07-24T07:17:50Z</time>
      </trkpt>
      <trkpt lat="43.9842" lon="0.45441">
        <ele>152.5</ele>
        <time>2011-07-24T07:17:59Z</time>
      </trkpt>
      <trkpt lat="43.98406" lon="0.45447">
        <ele>154</ele>
        <time>2011-07-24T07:18:08Z</time>
      </trkpt>
      <trkpt lat="43.98391" lon="0.45446">
        <ele>155.7</ele>
        <time>2011-07-24T07:18:17Z</time>
      </trkpt>
      <trkpt lat="43.98376" lon="0.45439">
        <ele>158</ele>
        <time>2011-07-24T07:18:24Z</time>
      </trkpt>
      <trkpt lat="43.98362" lon="0.45432">
        <ele>160.1</ele>
        <time>2011-07-24T07:18:31Z</time>
      </trkpt>
      <trkpt lat="43.98349" lon="0.45422">
        <ele>161.6</ele>
        <time>2011-07-24T07:18:38Z</time>
      </trkpt>
      <trkpt lat="43.98337" lon="0.45412">
        <ele>162.7</ele>
        <time>2011-07-24T07:18:45Z</time>
      </trkpt>
      <trkpt lat="43.98324" lon="0.45402">
        <ele>164.3</ele>
        <time>2011-07-24T07:18:52Z</time>
      </trkpt>
      <trkpt lat="43.98311" lon="0.45391">
        <ele>166.1</ele>
        <time>2011-07-24T07:18:59Z</time>
      </trkpt>
      <trkpt lat="43.98298" lon="0.45379">
        <ele>165.4</ele>
        <time>2011-07-24T07:19:06Z</time>
      </trkpt>
      <trkpt lat="43.98286" lon="0.45369">
        <ele>165.1</ele>
        <time>2011-07-24T07:19:14Z</time>
      </trkpt>
      <trkpt lat="43.98272" lon="0.4537">
        <ele>165.2</ele>
        <time>2011-07-24T07:20:21Z</time>
      </trkpt>
      <trkpt lat="43.98259" lon="0.45373">
        <ele>165.3</ele>
        <time>2011-07-24T07:20:30Z</time>
      </trkpt>
      <trkpt lat="43.98244" lon="0.45374">
        <ele>164.4</ele>
        <time>2011-07-24T07:20:39Z</time>
      </trkpt>
      <trkpt lat="43.98231" lon="0.45372">
        <ele>162.8</ele>
        <time>2011-07-24T07:20:45Z</time>
      </trkpt>
      <trkpt lat="43.98218" lon="0.45366">
        <ele>160.7</ele>
        <time>2011-07-24T07:20:51Z</time>
      </trkpt>
      <trkpt lat="43.98205" lon="0.45356">
        <ele>158.2</ele>
        <time>2011-07-24T07:20:57Z</time>
      </trkpt>
      <trkpt lat="43.9819" lon="0.45346">
        <ele>156.8</ele>
        <time>2011-07-24T07:21:03Z</time>
      </trkpt>
      <trkpt lat="43.98164" lon="0.45334">
        <ele>153.5</ele>
        <time>2011-07-24T07:21:11Z</time>
      </trkpt>
      <trkpt lat="43.98148" lon="0.45327">
        <ele>150.6</ele>
        <time>2011-07-24T07:21:16Z</time>
      </trkpt>
      <trkpt lat="43.98118" lon="0.45316">
        <ele>144.7</ele>
        <time>2011-07-24T07:21:24Z</time>
      </trkpt>
      <trkpt lat="43.98087" lon="0.45314">
        <ele>141.8</ele>
        <time>2011-07-24T07:21:32Z</time>
      </trkpt>
      <trkpt lat="43.9807" lon="0.45315">
        <ele>141</ele>
        <time>2011-07-24T07:21:36Z</time>
      </trkpt>
      <trkpt lat="43.98055" lon="0.45314">
        <ele>140.1</ele>
        <time>2011-07-24T07:21:40Z</time>
      </trkpt>
      <trkpt lat="43.9803" lon="0.453">
        <ele>138.2</ele>
        <time>2011-07-24T07:21:49Z</time>
      </trkpt>
      <trkpt lat="43.9802" lon="0.45284">
        <ele>138</ele>
        <time>2011-07-24T07:21:56Z</time>
      </trkpt>
      <trkpt lat="43.9801" lon="0.453">
        <ele>138.4</ele>
        <time>2011-07-24T07:22:01Z</time>
      </trkpt>
      <trkpt lat="43.97997" lon="0.45305">
        <ele>138.7</ele>
        <time>2011-07-24T07:22:07Z</time>
      </trkpt>
      <trkpt lat="43.97982" lon="0.45301">
        <ele>137.2</ele>
        <time>2011-07-24T07:22:12Z</time>
      </trkpt>
      <trkpt lat="43.97966" lon="0.45297">
        <ele>134.1</ele>
        <time>2011-07-24T07:22:17Z</time>
      </trkpt>
      <trkpt lat="43.97936" lon="0.45288">
        <ele>128.4</ele>
        <time>2011-07-24T07:22:23Z</time>
      </trkpt>
      <trkpt lat="43.97901" lon="0.45295">
        <ele>125.2</ele>
        <time>2011-07-24T07:22:29Z</time>
      </trkpt>
      <trkpt lat="43.97864" lon="0.45313">
        <ele>121.1</ele>
        <time>2011-07-24T07:22:36Z</time>
      </trkpt>
      <trkpt lat="43.97841" lon="0.4531">
        <ele>117.8</ele>
        <time>2011-07-24T07:22:43Z</time>
      </trkpt>
      <trkpt lat="43.97812" lon="0.45297">
        <ele>114.6</ele>
        <time>2011-07-24T07:22:49Z</time>
      </trkpt>
      <trkpt lat="43.97779" lon="0.45285">
        <ele>110.8</ele>
        <time>2011-07-24T07:22:54Z</time>
      </trkpt>
      <trkpt lat="43.97747" lon="0.45277">
        <ele>107.5</ele>
        <time>2011-07-24T07:22:58Z</time>
      </trkpt>
      <trkpt lat="43.97701" lon="0.4527">
        <ele>105.3</ele>
        <time>2011-07-24T07:23:04Z</time>
      </trkpt>
      <trkpt lat="43.97665" lon="0.45265">
        <ele>104.5</ele>
        <time>2011-07-24T07:23:10Z</time>
      </trkpt>
      <trkpt lat="43.97633" lon="0.45253">
        <ele>105</ele>
        <time>2011-07-24T07:23:18Z</time>
      </trkpt>
      <trkpt lat="43.97619" lon="0.45248">
        <ele>105.4</ele>
        <time>2011-07-24T07:23:22Z</time>
      </trkpt>
      <trkpt lat="43.97606" lon="0.45243">
        <ele>105.5</ele>
        <time>2011-07-24T07:23:27Z</time>
      </trkpt>
      <trkpt lat="43.97591" lon="0.45242">
        <ele>105.5</ele>
        <time>2011-07-24T07:23:36Z</time>
      </trkpt>
      <trkpt lat="43.97576" lon="0.45237">
        <ele>105.5</ele>
        <time>2011-07-24T07:23:42Z</time>
      </trkpt>
      <trkpt lat="43.97561" lon="0.45232">
        <ele>105.6</ele>
        <time>2011-07-24T07:23:47Z</time>
      </trkpt>
      <trkpt lat="43.97527" lon="0.45224">
        <ele>106.3</ele>
        <time>2011-07-24T07:23:55Z</time>
      </trkpt>
      <trkpt lat="43.97498" lon="0.45207">
        <ele>106.7</ele>
        <time>2011-07-24T07:24:03Z</time>
      </trkpt>
      <trkpt lat="43.97484" lon="0.45198">
        <ele>106.9</ele>
        <time>2011-07-24T07:24:07Z</time>
      </trkpt>
      <trkpt lat="43.97469" lon="0.45188">
        <ele>107.1</ele>
        <time>2011-07-24T07:24:11Z</time>
      </trkpt>
      <trkpt lat="43.9744" lon="0.45169">
        <ele>107.3</ele>
        <time>2011-07-24T07:24:18Z</time>
      </trkpt>
      <trkpt lat="43.97424" lon="0.45158">
        <ele>107.2</ele>
        <time>2011-07-24T07:24:22Z</time>
      </trkpt>
      <trkpt lat="43.97394" lon="0.45143">
        <ele>107.1</ele>
        <time>2011-07-24T07:24:29Z</time>
      </trkpt>
      <trkpt lat="43.97364" lon="0.45149">
        <ele>107.5</ele>
        <time>2011-07-24T07:24:35Z</time>
      </trkpt>
      <trkpt lat="43.97335" lon="0.45163">
        <ele>108.2</ele>
        <time>2011-07-24T07:24:41Z</time>
      </trkpt>
      <trkpt lat="43.9731" lon="0.45182">
        <ele>108.8</ele>
        <time>2011-07-24T07:24:47Z</time>
      </trkpt>
      <trkpt lat="43.97285" lon="0.45203">
        <ele>109.7</ele>
        <time>2011-07-24T07:24:53Z</time>
      </trkpt>
      <trkpt lat="43.9726" lon="0.4522">
        <ele>110.5</ele>
        <time>2011-07-24T07:24:59Z</time>
      </trkpt>
      <trkpt lat="43.97233" lon="0.45237">
        <ele>110.7</ele>
        <time>2011-07-24T07:25:05Z</time>
      </trkpt>
      <trkpt lat="43.97206" lon="0.45257">
        <ele>110.9</ele>
        <time>2011-07-24T07:25:11Z</time>
      </trkpt>
      <trkpt lat="43.97184" lon="0.4528">
        <ele>111.6</ele>
        <time>2011-07-24T07:25:17Z</time>
      </trkpt>
      <trkpt lat="43.97157" lon="0.45301">
        <ele>112.1</ele>
        <time>2011-07-24T07:25:24Z</time>
      </trkpt>
      <trkpt lat="43.97128" lon="0.45313">
        <ele>112.3</ele>
        <time>2011-07-24T07:25:30Z</time>
      </trkpt>
      <trkpt lat="43.97094" lon="0.45329">
        <ele>111.8</ele>
        <time>2011-07-24T07:25:36Z</time>
      </trkpt>
      <trkpt lat="43.97063" lon="0.45337">
        <ele>111.1</ele>
        <time>2011-07-24T07:25:42Z</time>
      </trkpt>
      <trkpt lat="43.9705" lon="0.45294">
        <ele>107.9</ele>
        <time>2011-07-24T07:25:48Z</time>
      </trkpt>
      <trkpt lat="43.97023" lon="0.45261">
        <ele>106.3</ele>
        <time>2011-07-24T07:25:54Z</time>
      </trkpt>
      <trkpt lat="43.96988" lon="0.45252">
        <ele>106.6</ele>
        <time>2011-07-24T07:26:00Z</time>
      </trkpt>
      <trkpt lat="43.96954" lon="0.45259">
        <ele>106.8</ele>
        <time>2011-07-24T07:26:06Z</time>
      </trkpt>
      <trkpt lat="43.96921" lon="0.45264">
        <ele>106.7</ele>
        <time>2011-07-24T07:26:12Z</time>
      </trkpt>
      <trkpt lat="43.96895" lon="0.4528">
        <ele>106.5</ele>
        <time>2011-07-24T07:26:17Z</time>
      </trkpt>
      <trkpt lat="43.96878" lon="0.45318">
        <ele>106.4</ele>
        <time>2011-07-24T07:26:23Z</time>
      </trkpt>
      <trkpt lat="43.96867" lon="0.45351">
        <ele>106.8</ele>
        <time>2011-07-24T07:26:28Z</time>
      </trkpt>
      <trkpt lat="43.96844" lon="0.45381">
        <ele>106.9</ele>
        <time>2011-07-24T07:26:34Z</time>
      </trkpt>
      <trkpt lat="43.96819" lon="0.45408">
        <ele>106.4</ele>
        <time>2011-07-24T07:26:40Z</time>
      </trkpt>
      <trkpt lat="43.9679" lon="0.45443">
        <ele>105.8</ele>
        <time>2011-07-24T07:26:47Z</time>
      </trkpt>
      <trkpt lat="43.96765" lon="0.45474">
        <ele>105.7</ele>
        <time>2011-07-24T07:26:53Z</time>
      </trkpt>
      <trkpt lat="43.96743" lon="0.45506">
        <ele>106.3</ele>
        <time>2011-07-24T07:26:59Z</time>
      </trkpt>
      <trkpt lat="43.96726" lon="0.45544">
        <ele>106.5</ele>
        <time>2011-07-24T07:27:05Z</time>
      </trkpt>
      <trkpt lat="43.96715" lon="0.45569">
        <ele>106.6</ele>
        <time>2011-07-24T07:27:09Z</time>
      </trkpt>
      <trkpt lat="43.96703" lon="0.45596">
        <ele>106.8</ele>
        <time>2011-07-24T07:27:14Z</time>
      </trkpt>
      <trkpt lat="43.96682" lon="0.45621">
        <ele>107.3</ele>
        <time>2011-07-24T07:27:20Z</time>
      </trkpt>
      <trkpt lat="43.96655" lon="0.45629">
        <ele>107.9</ele>
        <time>2011-07-24T07:27:26Z</time>
      </trkpt>
      <trkpt lat="43.96626" lon="0.45636">
        <ele>107.9</ele>
        <time>2011-07-24T07:27:32Z</time>
      </trkpt>
      <trkpt lat="43.96597" lon="0.45643">
        <ele>108</ele>
        <time>2011-07-24T07:27:38Z</time>
      </trkpt>
      <trkpt lat="43.96569" lon="0.45649">
        <ele>108.1</ele>
        <time>2011-07-24T07:27:44Z</time>
      </trkpt>
      <trkpt lat="43.96539" lon="0.45662">
        <ele>107.9</ele>
        <time>2011-07-24T07:27:50Z</time>
      </trkpt>
      <trkpt lat="43.96511" lon="0.45681">
        <ele>107.3</ele>
        <time>2011-07-24T07:27:56Z</time>
      </trkpt>
      <trkpt lat="43.96483" lon="0.45701">
        <ele>106.9</ele>
        <time>2011-07-24T07:28:02Z</time>
      </trkpt>
      <trkpt lat="43.96456" lon="0.4572">
        <ele>106.8</ele>
        <time>2011-07-24T07:28:08Z</time>
      </trkpt>
      <trkpt lat="43.96431" lon="0.45742">
        <ele>107.1</ele>
        <time>2011-07-24T07:28:14Z</time>
      </trkpt>
      <trkpt lat="43.96407" lon="0.45766">
        <ele>107</ele>
        <time>2011-07-24T07:28:20Z</time>
      </trkpt>
      <trkpt lat="43.96384" lon="0.45791">
        <ele>106.9</ele>
        <time>2011-07-24T07:28:26Z</time>
      </trkpt>
      <trkpt lat="43.96361" lon="0.45817">
        <ele>107</ele>
        <time>2011-07-24T07:28:32Z</time>
      </trkpt>
      <trkpt lat="43.96342" lon="0.45847">
        <ele>108</ele>
        <time>2011-07-24T07:28:38Z</time>
      </trkpt>
      <trkpt lat="43.96324" lon="0.45877">
        <ele>109.4</ele>
        <time>2011-07-24T07:28:44Z</time>
      </trkpt>
      <trkpt lat="43.96302" lon="0.4591">
        <ele>112.5</ele>
        <time>2011-07-24T07:28:51Z</time>
      </trkpt>
      <trkpt lat="43.96275" lon="0.45918">
        <ele>114.4</ele>
        <time>2011-07-24T07:28:57Z</time>
      </trkpt>
      <trkpt lat="43.96245" lon="0.45919">
        <ele>115.4</ele>
        <time>2011-07-24T07:29:03Z</time>
      </trkpt>
      <trkpt lat="43.96216" lon="0.45926">
        <ele>116</ele>
        <time>2011-07-24T07:29:09Z</time>
      </trkpt>
      <trkpt lat="43.96191" lon="0.45941">
        <ele>116.1</ele>
        <time>2011-07-24T07:29:15Z</time>
      </trkpt>
      <trkpt lat="43.96165" lon="0.45962">
        <ele>116</ele>
        <time>2011-07-24T07:29:21Z</time>
      </trkpt>
      <trkpt lat="43.96139" lon="0.45986">
        <ele>116</ele>
        <time>2011-07-24T07:29:27Z</time>
      </trkpt>
      <trkpt lat="43.96115" lon="0.46015">
        <ele>115.9</ele>
        <time>2011-07-24T07:29:34Z</time>
      </trkpt>
      <trkpt lat="43.961" lon="0.46034">
        <ele>115.9</ele>
        <time>2011-07-24T07:29:39Z</time>
      </trkpt>
      <trkpt lat="43.96085" lon="0.46046">
        <ele>115.8</ele>
        <time>2011-07-24T07:29:43Z</time>
      </trkpt>
      <trkpt lat="43.96053" lon="0.4606">
        <ele>115.6</ele>
        <time>2011-07-24T07:29:49Z</time>
      </trkpt>
      <trkpt lat="43.96023" lon="0.46085">
        <ele>114.8</ele>
        <time>2011-07-24T07:29:55Z</time>
      </trkpt>
      <trkpt lat="43.95997" lon="0.46118">
        <ele>113.3</ele>
        <time>2011-07-24T07:30:01Z</time>
      </trkpt>
      <trkpt lat="43.95963" lon="0.46146">
        <ele>111.6</ele>
        <time>2011-07-24T07:30:07Z</time>
      </trkpt>
      <trkpt lat="43.95928" lon="0.46165">
        <ele>111.1</ele>
        <time>2011-07-24T07:30:13Z</time>
      </trkpt>
      <trkpt lat="43.95893" lon="0.46183">
        <ele>110.9</ele>
        <time>2011-07-24T07:30:19Z</time>
      </trkpt>
      <trkpt lat="43.95858" lon="0.46202">
        <ele>110.8</ele>
        <time>2011-07-24T07:30:25Z</time>
      </trkpt>
      <trkpt lat="43.95823" lon="0.46217">
        <ele>110.7</ele>
        <time>2011-07-24T07:30:31Z</time>
      </trkpt>
      <trkpt lat="43.9579" lon="0.46233">
        <ele>110.7</ele>
        <time>2011-07-24T07:30:37Z</time>
      </trkpt>
      <trkpt lat="43.95761" lon="0.46253">
        <ele>110.7</ele>
        <time>2011-07-24T07:30:43Z</time>
      </trkpt>
      <trkpt lat="43.95736" lon="0.46282">
        <ele>110.6</ele>
        <time>2011-07-24T07:30:49Z</time>
      </trkpt>
      <trkpt lat="43.95716" lon="0.46315">
        <ele>110.6</ele>
        <time>2011-07-24T07:30:55Z</time>
      </trkpt>
      <trkpt lat="43.95692" lon="0.46342">
        <ele>111.6</ele>
        <time>2011-07-24T07:31:02Z</time>
      </trkpt>
      <trkpt lat="43.95677" lon="0.46357">
        <ele>111.8</ele>
        <time>2011-07-24T07:31:06Z</time>
      </trkpt>
      <trkpt lat="43.95653" lon="0.46385">
        <ele>111.3</ele>
        <time>2011-07-24T07:31:11Z</time>
      </trkpt>
      <trkpt lat="43.95626" lon="0.46414">
        <ele>110.3</ele>
        <time>2011-07-24T07:31:16Z</time>
      </trkpt>
      <trkpt lat="43.956" lon="0.46443">
        <ele>109.9</ele>
        <time>2011-07-24T07:31:22Z</time>
      </trkpt>
      <trkpt lat="43.95573" lon="0.46472">
        <ele>109.8</ele>
        <time>2011-07-24T07:31:28Z</time>
      </trkpt>
      <trkpt lat="43.95547" lon="0.46496">
        <ele>109.7</ele>
        <time>2011-07-24T07:31:34Z</time>
      </trkpt>
      <trkpt lat="43.95517" lon="0.46521">
        <ele>109.7</ele>
        <time>2011-07-24T07:31:40Z</time>
      </trkpt>
      <trkpt lat="43.95488" lon="0.46546">
        <ele>109.6</ele>
        <time>2011-07-24T07:31:46Z</time>
      </trkpt>
      <trkpt lat="43.95462" lon="0.46575">
        <ele>109.7</ele>
        <time>2011-07-24T07:31:52Z</time>
      </trkpt>
      <trkpt lat="43.95435" lon="0.46603">
        <ele>109.8</ele>
        <time>2011-07-24T07:31:58Z</time>
      </trkpt>
      <trkpt lat="43.95408" lon="0.46625">
        <ele>110</ele>
        <time>2011-07-24T07:32:04Z</time>
      </trkpt>
      <trkpt lat="43.9538" lon="0.46645">
        <ele>111.1</ele>
        <time>2011-07-24T07:32:10Z</time>
      </trkpt>
      <trkpt lat="43.9535" lon="0.46664">
        <ele>111.3</ele>
        <time>2011-07-24T07:32:16Z</time>
      </trkpt>
      <trkpt lat="43.9532" lon="0.46684">
        <ele>111.4</ele>
        <time>2011-07-24T07:32:22Z</time>
      </trkpt>
      <trkpt lat="43.95291" lon="0.46703">
        <ele>111.4</ele>
        <time>2011-07-24T07:32:28Z</time>
      </trkpt>
      <trkpt lat="43.95261" lon="0.46721">
        <ele>111.3</ele>
        <time>2011-07-24T07:32:34Z</time>
      </trkpt>
      <trkpt lat="43.95231" lon="0.46742">
        <ele>111.3</ele>
        <time>2011-07-24T07:32:40Z</time>
      </trkpt>
      <trkpt lat="43.95206" lon="0.46774">
        <ele>111.2</ele>
        <time>2011-07-24T07:32:46Z</time>
      </trkpt>
      <trkpt lat="43.95183" lon="0.46805">
        <ele>111.2</ele>
        <time>2011-07-24T07:32:52Z</time>
      </trkpt>
      <trkpt lat="43.95159" lon="0.46836">
        <ele>111.1</ele>
        <time>2011-07-24T07:32:58Z</time>
      </trkpt>
      <trkpt lat="43.95139" lon="0.46869">
        <ele>111.1</ele>
        <time>2011-07-24T07:33:04Z</time>
      </trkpt>
      <trkpt lat="43.95119" lon="0.46904">
        <ele>111.1</ele>
        <time>2011-07-24T07:33:10Z</time>
      </trkpt>
      <trkpt lat="43.951" lon="0.4694">
        <ele>111</ele>
        <time>2011-07-24T07:33:16Z</time>
      </trkpt>
      <trkpt lat="43.95083" lon="0.46976">
        <ele>111.1</ele>
        <time>2011-07-24T07:33:22Z</time>
      </trkpt>
      <trkpt lat="43.95066" lon="0.4701">
        <ele>111.4</ele>
        <time>2011-07-24T07:33:28Z</time>
      </trkpt>
      <trkpt lat="43.95043" lon="0.47039">
        <ele>111.6</ele>
        <time>2011-07-24T07:33:34Z</time>
      </trkpt>
      <trkpt lat="43.95014" lon="0.47058">
        <ele>111.9</ele>
        <time>2011-07-24T07:33:40Z</time>
      </trkpt>
      <trkpt lat="43.94987" lon="0.47082">
        <ele>112.2</ele>
        <time>2011-07-24T07:33:46Z</time>
      </trkpt>
      <trkpt lat="43.94961" lon="0.47109">
        <ele>112.8</ele>
        <time>2011-07-24T07:33:52Z</time>
      </trkpt>
      <trkpt lat="43.94935" lon="0.47131">
        <ele>113.3</ele>
        <time>2011-07-24T07:33:58Z</time>
      </trkpt>
      <trkpt lat="43.9491" lon="0.47152">
        <ele>114</ele>
        <time>2011-07-24T07:34:04Z</time>
      </trkpt>
      <trkpt lat="43.94901" lon="0.47138">
        <ele>111</ele>
      </trkpt>
      <trkpt lat="43.94893" lon="0.47126">
        <ele>110.9</ele>
      </trkpt>
      <trkpt lat="43.94883" lon="0.47097">
        <ele>111</ele>
      </trkpt>
      <trkpt lat="43.94872" lon="0.47064">
        <ele>111</ele>
      </trkpt>
      <trkpt lat="43.94868" lon="0.47027">
        <ele>111</ele>
      </trkpt>
      <trkpt lat="43.94864" lon="0.4699">
        <ele>111.3</ele>
      </trkpt>
      <trkpt lat="43.94861" lon="0.46947">
        <ele>112</ele>
      </trkpt>
      <trkpt lat="43.94847" lon="0.46869">
        <ele>115.2</ele>
      </trkpt>
      <trkpt lat="43.948" lon="0.46771">
        <ele>120.2</ele>
      </trkpt>
      <trkpt lat="43.94773" lon="0.46734">
        <ele>122.8</ele>
      </trkpt>
      <trkpt lat="43.94727" lon="0.46672">
        <ele>126.7</ele>
      </trkpt>
      <trkpt lat="43.9468" lon="0.4661">
        <ele>131.5</ele>
      </trkpt>
      <trkpt lat="43.94643" lon="0.46524">
        <ele>135.7</ele>
      </trkpt>
      <trkpt lat="43.94625" lon="0.46464">
        <ele>138.8</ele>
      </trkpt>
      <trkpt lat="43.94632" lon="0.46407">
        <ele>140.8</ele>
      </trkpt>
      <trkpt lat="43.94641" lon="0.4636">
        <ele>143.1</ele>
      </trkpt>
      <trkpt lat="43.94652" lon="0.46302">
        <ele>145.6</ele>
      </trkpt>
      <trkpt lat="43.94662" lon="0.46225">
        <ele>149.6</ele>
      </trkpt>
      <trkpt lat="43.94671" lon="0.46114">
        <ele>151</ele>
      </trkpt>
      <trkpt lat="43.94683" lon="0.46076">
        <ele>150.8</ele>
      </trkpt>
      <trkpt lat="43.94696" lon="0.46084">
        <ele>151</ele>
      </trkpt>
      <trkpt lat="43.9473" lon="0.46116">
        <ele>150.5</ele>
      </trkpt>
      <trkpt lat="43.94752" lon="0.46118">
        <ele>149.6</ele>
      </trkpt>
    </trkseg>
  </trk>
</gpx>